<?xml version="1.0" encoding="UTF-8" standalone="no" ?>
<gpx xmlns="http://www.topografix.com/GPX/1/1" creator="www.cicloide.com" version="1.1" xmlns:xsi="http://www.w3.org/2001/XMLSchema-instance" xsi:schemaLocation="http://www.topografix.com/GPX/1/1 http://www.topografix.com/GPX/1/1/gpx.xsd">
  <trk>
    <name>www.cicloide.com 19178</name>
    <desc>www.cicloide.com 19178</desc>
    <trkseg>
      <trkpt lat="41.605786786" lon="2.540303113">
        <ele>114.05</ele>
        <time>2014-08-17T07:42:55Z</time>
      </trkpt>
      <trkpt lat="41.605786870" lon="2.540305041">
        <ele>114.05</ele>
        <time>2014-08-17T07:43:00Z</time>
      </trkpt>
      <trkpt lat="41.605824086" lon="2.540359858">
        <ele>114.05</ele>
        <time>2014-08-17T07:43:05Z</time>
      </trkpt>
      <trkpt lat="41.605950653" lon="2.540399002">
        <ele>114.05</ele>
        <time>2014-08-17T07:43:10Z</time>
      </trkpt>
      <trkpt lat="41.606201355" lon="2.540373102">
        <ele>114.05</ele>
        <time>2014-08-17T07:43:17Z</time>
      </trkpt>
      <trkpt lat="41.606435713" lon="2.540492293">
        <ele>114.53</ele>
        <time>2014-08-17T07:43:26Z</time>
      </trkpt>
      <trkpt lat="41.606628413" lon="2.540581895">
        <ele>114.53</ele>
        <time>2014-08-17T07:43:33Z</time>
      </trkpt>
      <trkpt lat="41.606903843" lon="2.540708546">
        <ele>115.50</ele>
        <time>2014-08-17T07:43:43Z</time>
      </trkpt>
      <trkpt lat="41.607221098" lon="2.540808290">
        <ele>116.46</ele>
        <time>2014-08-17T07:43:54Z</time>
      </trkpt>
      <trkpt lat="41.607459647" lon="2.540816169">
        <ele>116.94</ele>
        <time>2014-08-17T07:44:02Z</time>
      </trkpt>
      <trkpt lat="41.607665758" lon="2.540797310">
        <ele>117.90</ele>
        <time>2014-08-17T07:44:10Z</time>
      </trkpt>
      <trkpt lat="41.607814285" lon="2.540762693">
        <ele>118.38</ele>
        <time>2014-08-17T07:44:16Z</time>
      </trkpt>
      <trkpt lat="41.607979911" lon="2.540769817">
        <ele>118.86</ele>
        <time>2014-08-17T07:44:22Z</time>
      </trkpt>
      <trkpt lat="41.608142688" lon="2.540744336">
        <ele>119.34</ele>
        <time>2014-08-17T07:44:28Z</time>
      </trkpt>
      <trkpt lat="41.608220807" lon="2.540726567">
        <ele>119.34</ele>
        <time>2014-08-17T07:44:31Z</time>
      </trkpt>
      <trkpt lat="41.608366736" lon="2.540698236">
        <ele>119.82</ele>
        <time>2014-08-17T07:44:37Z</time>
      </trkpt>
      <trkpt lat="41.608594389" lon="2.540673174">
        <ele>120.78</ele>
        <time>2014-08-17T07:44:45Z</time>
      </trkpt>
      <trkpt lat="41.608776024" lon="2.540654566">
        <ele>121.26</ele>
        <time>2014-08-17T07:44:51Z</time>
      </trkpt>
      <trkpt lat="41.609010885" lon="2.540610310">
        <ele>122.22</ele>
        <time>2014-08-17T07:45:00Z</time>
      </trkpt>
      <trkpt lat="41.609215823" lon="2.540578878">
        <ele>122.71</ele>
        <time>2014-08-17T07:45:08Z</time>
      </trkpt>
      <trkpt lat="41.609394106" lon="2.540561611">
        <ele>123.19</ele>
        <time>2014-08-17T07:45:15Z</time>
      </trkpt>
      <trkpt lat="41.609560822" lon="2.540508554">
        <ele>123.67</ele>
        <time>2014-08-17T07:45:22Z</time>
      </trkpt>
      <trkpt lat="41.609730472" lon="2.540467482">
        <ele>124.63</ele>
        <time>2014-08-17T07:45:29Z</time>
      </trkpt>
      <trkpt lat="41.609911940" lon="2.540427752">
        <ele>125.11</ele>
        <time>2014-08-17T07:45:37Z</time>
      </trkpt>
      <trkpt lat="41.609995759" lon="2.540393302">
        <ele>125.59</ele>
        <time>2014-08-17T07:45:40Z</time>
      </trkpt>
      <trkpt lat="41.610143616" lon="2.540298503">
        <ele>126.07</ele>
        <time>2014-08-17T07:45:46Z</time>
      </trkpt>
      <trkpt lat="41.610369676" lon="2.540194903">
        <ele>127.03</ele>
        <time>2014-08-17T07:45:53Z</time>
      </trkpt>
      <trkpt lat="41.610625491" lon="2.540058278">
        <ele>127.51</ele>
        <time>2014-08-17T07:46:01Z</time>
      </trkpt>
      <trkpt lat="41.610795644" lon="2.539956270">
        <ele>127.99</ele>
        <time>2014-08-17T07:46:07Z</time>
      </trkpt>
      <trkpt lat="41.611003180" lon="2.539865829">
        <ele>128.95</ele>
        <time>2014-08-17T07:46:14Z</time>
      </trkpt>
      <trkpt lat="41.611153048" lon="2.539785698">
        <ele>128.95</ele>
        <time>2014-08-17T07:46:21Z</time>
      </trkpt>
      <trkpt lat="41.611319010" lon="2.539702466">
        <ele>129.92</ele>
        <time>2014-08-17T07:46:28Z</time>
      </trkpt>
      <trkpt lat="41.611515063" lon="2.539536839">
        <ele>130.40</ele>
        <time>2014-08-17T07:46:37Z</time>
      </trkpt>
      <trkpt lat="41.611662165" lon="2.539397197">
        <ele>131.36</ele>
        <time>2014-08-17T07:46:44Z</time>
      </trkpt>
      <trkpt lat="41.611815889" lon="2.539223272">
        <ele>131.84</ele>
        <time>2014-08-17T07:46:52Z</time>
      </trkpt>
      <trkpt lat="41.611964417" lon="2.539064268">
        <ele>132.32</ele>
        <time>2014-08-17T07:47:00Z</time>
      </trkpt>
      <trkpt lat="41.612097270" lon="2.538904173">
        <ele>133.76</ele>
        <time>2014-08-17T07:47:08Z</time>
      </trkpt>
      <trkpt lat="41.612174467" lon="2.538704265">
        <ele>134.24</ele>
        <time>2014-08-17T07:47:15Z</time>
      </trkpt>
      <trkpt lat="41.612312266" lon="2.538480720">
        <ele>135.20</ele>
        <time>2014-08-17T07:47:23Z</time>
      </trkpt>
      <trkpt lat="41.612463308" lon="2.538270669">
        <ele>135.68</ele>
        <time>2014-08-17T07:47:31Z</time>
      </trkpt>
      <trkpt lat="41.612595071" lon="2.538113760">
        <ele>136.16</ele>
        <time>2014-08-17T07:47:38Z</time>
      </trkpt>
      <trkpt lat="41.612763296" lon="2.537905218">
        <ele>137.13</ele>
        <time>2014-08-17T07:47:47Z</time>
      </trkpt>
      <trkpt lat="41.612926911" lon="2.537709333">
        <ele>138.09</ele>
        <time>2014-08-17T07:47:55Z</time>
      </trkpt>
      <trkpt lat="41.613124807" lon="2.537492996">
        <ele>138.57</ele>
        <time>2014-08-17T07:48:04Z</time>
      </trkpt>
      <trkpt lat="41.613274843" lon="2.537310271">
        <ele>139.05</ele>
        <time>2014-08-17T07:48:11Z</time>
      </trkpt>
      <trkpt lat="41.613487241" lon="2.537034422">
        <ele>140.01</ele>
        <time>2014-08-17T07:48:22Z</time>
      </trkpt>
      <trkpt lat="41.613574077" lon="2.536887068">
        <ele>140.49</ele>
        <time>2014-08-17T07:48:28Z</time>
      </trkpt>
      <trkpt lat="41.613642641" lon="2.536679030">
        <ele>141.45</ele>
        <time>2014-08-17T07:48:35Z</time>
      </trkpt>
      <trkpt lat="41.613696285" lon="2.536463782">
        <ele>142.41</ele>
        <time>2014-08-17T07:48:42Z</time>
      </trkpt>
      <trkpt lat="41.613812710" lon="2.536194723">
        <ele>142.89</ele>
        <time>2014-08-17T07:48:51Z</time>
      </trkpt>
      <trkpt lat="41.613899882" lon="2.535983918">
        <ele>143.85</ele>
        <time>2014-08-17T07:48:58Z</time>
      </trkpt>
      <trkpt lat="41.614031981" lon="2.535622239">
        <ele>145.30</ele>
        <time>2014-08-17T07:49:09Z</time>
      </trkpt>
      <trkpt lat="41.614102892" lon="2.535351001">
        <ele>145.78</ele>
        <time>2014-08-17T07:49:17Z</time>
      </trkpt>
      <trkpt lat="41.614206492" lon="2.535000973">
        <ele>147.22</ele>
        <time>2014-08-17T07:49:28Z</time>
      </trkpt>
      <trkpt lat="41.614297016" lon="2.534677180">
        <ele>148.66</ele>
        <time>2014-08-17T07:49:38Z</time>
      </trkpt>
      <trkpt lat="41.614386619" lon="2.534406360">
        <ele>149.62</ele>
        <time>2014-08-17T07:49:47Z</time>
      </trkpt>
      <trkpt lat="41.614474294" lon="2.534113161">
        <ele>151.06</ele>
        <time>2014-08-17T07:49:56Z</time>
      </trkpt>
      <trkpt lat="41.614581582" lon="2.533746788">
        <ele>152.03</ele>
        <time>2014-08-17T07:50:07Z</time>
      </trkpt>
      <trkpt lat="41.614677303" lon="2.533410842">
        <ele>152.99</ele>
        <time>2014-08-17T07:50:17Z</time>
      </trkpt>
      <trkpt lat="41.614765565" lon="2.533143878">
        <ele>153.95</ele>
        <time>2014-08-17T07:50:25Z</time>
      </trkpt>
      <trkpt lat="41.614854162" lon="2.532851936">
        <ele>154.91</ele>
        <time>2014-08-17T07:50:34Z</time>
      </trkpt>
      <trkpt lat="41.614950973" lon="2.532515319">
        <ele>155.87</ele>
        <time>2014-08-17T07:50:44Z</time>
      </trkpt>
      <trkpt lat="41.615021800" lon="2.532248020">
        <ele>156.83</ele>
        <time>2014-08-17T07:50:52Z</time>
      </trkpt>
      <trkpt lat="41.615076533" lon="2.531853316">
        <ele>157.79</ele>
        <time>2014-08-17T07:51:03Z</time>
      </trkpt>
      <trkpt lat="41.615102350" lon="2.531524075">
        <ele>158.75</ele>
        <time>2014-08-17T07:51:12Z</time>
      </trkpt>
      <trkpt lat="41.615122969" lon="2.531185698">
        <ele>159.72</ele>
        <time>2014-08-17T07:51:21Z</time>
      </trkpt>
      <trkpt lat="41.615157251" lon="2.530756377">
        <ele>160.68</ele>
        <time>2014-08-17T07:51:32Z</time>
      </trkpt>
      <trkpt lat="41.615175524" lon="2.530326720">
        <ele>162.12</ele>
        <time>2014-08-17T07:51:44Z</time>
      </trkpt>
      <trkpt lat="41.615180721" lon="2.530035366">
        <ele>163.08</ele>
        <time>2014-08-17T07:51:52Z</time>
      </trkpt>
      <trkpt lat="41.615191533" lon="2.529723978">
        <ele>164.04</ele>
        <time>2014-08-17T07:52:01Z</time>
      </trkpt>
      <trkpt lat="41.615193712" lon="2.529404292">
        <ele>165.00</ele>
        <time>2014-08-17T07:52:10Z</time>
      </trkpt>
      <trkpt lat="41.615213242" lon="2.529042697">
        <ele>166.45</ele>
        <time>2014-08-17T07:52:20Z</time>
      </trkpt>
      <trkpt lat="41.615259846" lon="2.528740278">
        <ele>166.93</ele>
        <time>2014-08-17T07:52:28Z</time>
      </trkpt>
      <trkpt lat="41.615321034" lon="2.528385053">
        <ele>167.41</ele>
        <time>2014-08-17T07:52:38Z</time>
      </trkpt>
      <trkpt lat="41.615388927" lon="2.527976100">
        <ele>168.37</ele>
        <time>2014-08-17T07:52:50Z</time>
      </trkpt>
      <trkpt lat="41.615455563" lon="2.527616851">
        <ele>170.29</ele>
        <time>2014-08-17T07:53:01Z</time>
      </trkpt>
      <trkpt lat="41.615514991" lon="2.527359191">
        <ele>170.77</ele>
        <time>2014-08-17T07:53:09Z</time>
      </trkpt>
      <trkpt lat="41.615570563" lon="2.527077727">
        <ele>171.73</ele>
        <time>2014-08-17T07:53:18Z</time>
      </trkpt>
      <trkpt lat="41.615584728" lon="2.526834484">
        <ele>173.17</ele>
        <time>2014-08-17T07:53:26Z</time>
      </trkpt>
      <trkpt lat="41.615566875" lon="2.526615549">
        <ele>174.14</ele>
        <time>2014-08-17T07:53:33Z</time>
      </trkpt>
      <trkpt lat="41.615523708" lon="2.526305335">
        <ele>175.10</ele>
        <time>2014-08-17T07:53:42Z</time>
      </trkpt>
      <trkpt lat="41.615508621" lon="2.526075419">
        <ele>175.58</ele>
        <time>2014-08-17T07:53:49Z</time>
      </trkpt>
      <trkpt lat="41.615504430" lon="2.525805019">
        <ele>176.06</ele>
        <time>2014-08-17T07:53:57Z</time>
      </trkpt>
      <trkpt lat="41.615501496" lon="2.525553981">
        <ele>177.50</ele>
        <time>2014-08-17T07:54:05Z</time>
      </trkpt>
      <trkpt lat="41.615516667" lon="2.525224321">
        <ele>177.98</ele>
        <time>2014-08-17T07:54:14Z</time>
      </trkpt>
      <trkpt lat="41.615525217" lon="2.524972947">
        <ele>178.94</ele>
        <time>2014-08-17T07:54:21Z</time>
      </trkpt>
      <trkpt lat="41.615553380" lon="2.524651166">
        <ele>179.90</ele>
        <time>2014-08-17T07:54:30Z</time>
      </trkpt>
      <trkpt lat="41.615580789" lon="2.524317986">
        <ele>181.35</ele>
        <time>2014-08-17T07:54:40Z</time>
      </trkpt>
      <trkpt lat="41.615622950" lon="2.524055632">
        <ele>182.79</ele>
        <time>2014-08-17T07:54:48Z</time>
      </trkpt>
      <trkpt lat="41.615615238" lon="2.523884390">
        <ele>183.75</ele>
        <time>2014-08-17T07:54:54Z</time>
      </trkpt>
      <trkpt lat="41.615641306" lon="2.523638884">
        <ele>184.23</ele>
        <time>2014-08-17T07:55:02Z</time>
      </trkpt>
      <trkpt lat="41.615699141" lon="2.523373094">
        <ele>185.19</ele>
        <time>2014-08-17T07:55:11Z</time>
      </trkpt>
      <trkpt lat="41.615725293" lon="2.523134964">
        <ele>185.67</ele>
        <time>2014-08-17T07:55:18Z</time>
      </trkpt>
      <trkpt lat="41.615744236" lon="2.522992471">
        <ele>186.15</ele>
        <time>2014-08-17T07:55:22Z</time>
      </trkpt>
      <trkpt lat="41.615761586" lon="2.522840424">
        <ele>187.11</ele>
        <time>2014-08-17T07:55:27Z</time>
      </trkpt>
      <trkpt lat="41.615812967" lon="2.522551583">
        <ele>188.08</ele>
        <time>2014-08-17T07:55:36Z</time>
      </trkpt>
      <trkpt lat="41.615864935" lon="2.522309262">
        <ele>189.52</ele>
        <time>2014-08-17T07:55:44Z</time>
      </trkpt>
      <trkpt lat="41.615882286" lon="2.522124022">
        <ele>190.00</ele>
        <time>2014-08-17T07:55:50Z</time>
      </trkpt>
      <trkpt lat="41.615905923" lon="2.521873068">
        <ele>190.96</ele>
        <time>2014-08-17T07:55:58Z</time>
      </trkpt>
      <trkpt lat="41.615944899" lon="2.521510551">
        <ele>191.44</ele>
        <time>2014-08-17T07:56:07Z</time>
      </trkpt>
      <trkpt lat="41.615974151" lon="2.521205198">
        <ele>191.92</ele>
        <time>2014-08-17T07:56:15Z</time>
      </trkpt>
      <trkpt lat="41.616028047" lon="2.520920213">
        <ele>192.40</ele>
        <time>2014-08-17T07:56:23Z</time>
      </trkpt>
      <trkpt lat="41.616104406" lon="2.520595247">
        <ele>193.36</ele>
        <time>2014-08-17T07:56:32Z</time>
      </trkpt>
      <trkpt lat="41.616202139" lon="2.520310430">
        <ele>193.84</ele>
        <time>2014-08-17T07:56:41Z</time>
      </trkpt>
      <trkpt lat="41.616282019" lon="2.520146061">
        <ele>194.32</ele>
        <time>2014-08-17T07:56:49Z</time>
      </trkpt>
      <trkpt lat="41.616453513" lon="2.519982949">
        <ele>194.32</ele>
        <time>2014-08-17T07:56:55Z</time>
      </trkpt>
      <trkpt lat="41.616589467" lon="2.519890413">
        <ele>194.32</ele>
        <time>2014-08-17T07:57:00Z</time>
      </trkpt>
      <trkpt lat="41.616810833" lon="2.519774994">
        <ele>194.80</ele>
        <time>2014-08-17T07:57:10Z</time>
      </trkpt>
      <trkpt lat="41.616989619" lon="2.519728558">
        <ele>195.77</ele>
        <time>2014-08-17T07:57:18Z</time>
      </trkpt>
      <trkpt lat="41.617186007" lon="2.519692516">
        <ele>196.73</ele>
        <time>2014-08-17T07:57:27Z</time>
      </trkpt>
      <trkpt lat="41.617419275" lon="2.519672483">
        <ele>198.17</ele>
        <time>2014-08-17T07:57:36Z</time>
      </trkpt>
      <trkpt lat="41.617640222" lon="2.519641889">
        <ele>199.61</ele>
        <time>2014-08-17T07:57:45Z</time>
      </trkpt>
      <trkpt lat="41.617768549" lon="2.519616408">
        <ele>199.61</ele>
        <time>2014-08-17T07:57:53Z</time>
      </trkpt>
      <trkpt lat="41.617786067" lon="2.519629400">
        <ele>200.09</ele>
        <time>2014-08-17T07:57:59Z</time>
      </trkpt>
      <trkpt lat="41.617785984" lon="2.519658821">
        <ele>200.57</ele>
        <time>2014-08-17T07:58:07Z</time>
      </trkpt>
      <trkpt lat="41.617793276" lon="2.519698719">
        <ele>201.53</ele>
        <time>2014-08-17T07:58:14Z</time>
      </trkpt>
      <trkpt lat="41.617854883" lon="2.519767618">
        <ele>201.53</ele>
        <time>2014-08-17T07:58:21Z</time>
      </trkpt>
      <trkpt lat="41.617883549" lon="2.519926790">
        <ele>202.49</ele>
        <time>2014-08-17T07:58:27Z</time>
      </trkpt>
      <trkpt lat="41.617873658" lon="2.519954702">
        <ele>202.98</ele>
        <time>2014-08-17T07:58:28Z</time>
      </trkpt>
      <trkpt lat="41.617748768" lon="2.520103900">
        <ele>204.90</ele>
        <time>2014-08-17T07:58:37Z</time>
      </trkpt>
      <trkpt lat="41.617669559" lon="2.520224683">
        <ele>207.30</ele>
        <time>2014-08-17T07:58:45Z</time>
      </trkpt>
      <trkpt lat="41.617678360" lon="2.520353178">
        <ele>208.26</ele>
        <time>2014-08-17T07:58:52Z</time>
      </trkpt>
      <trkpt lat="41.617659920" lon="2.520536490">
        <ele>209.22</ele>
        <time>2014-08-17T07:59:00Z</time>
      </trkpt>
      <trkpt lat="41.617655142" lon="2.520723909">
        <ele>209.70</ele>
        <time>2014-08-17T07:59:08Z</time>
      </trkpt>
      <trkpt lat="41.617701829" lon="2.520921135">
        <ele>210.19</ele>
        <time>2014-08-17T07:59:16Z</time>
      </trkpt>
      <trkpt lat="41.617754216" lon="2.521094976">
        <ele>211.63</ele>
        <time>2014-08-17T07:59:24Z</time>
      </trkpt>
      <trkpt lat="41.617817751" lon="2.521300500">
        <ele>212.59</ele>
        <time>2014-08-17T07:59:34Z</time>
      </trkpt>
      <trkpt lat="41.617863013" lon="2.521455901">
        <ele>213.55</ele>
        <time>2014-08-17T07:59:42Z</time>
      </trkpt>
      <trkpt lat="41.617864438" lon="2.521479957">
        <ele>214.03</ele>
        <time>2014-08-17T07:59:43Z</time>
      </trkpt>
      <trkpt lat="41.617926967" lon="2.521649104">
        <ele>215.47</ele>
        <time>2014-08-17T07:59:52Z</time>
      </trkpt>
      <trkpt lat="41.617990418" lon="2.521620941">
        <ele>216.91</ele>
        <time>2014-08-17T07:59:59Z</time>
      </trkpt>
      <trkpt lat="41.618070717" lon="2.521416925">
        <ele>219.32</ele>
        <time>2014-08-17T08:00:12Z</time>
      </trkpt>
      <trkpt lat="41.618149507" lon="2.521279881">
        <ele>221.24</ele>
        <time>2014-08-17T08:00:21Z</time>
      </trkpt>
      <trkpt lat="41.618170629" lon="2.521231601">
        <ele>221.24</ele>
        <time>2014-08-17T08:00:24Z</time>
      </trkpt>
      <trkpt lat="41.618235002" lon="2.521090450">
        <ele>223.16</ele>
        <time>2014-08-17T08:00:33Z</time>
      </trkpt>
      <trkpt lat="41.618242630" lon="2.521074273">
        <ele>223.16</ele>
        <time>2014-08-17T08:00:34Z</time>
      </trkpt>
      <trkpt lat="41.618264590" lon="2.520992214">
        <ele>224.61</ele>
        <time>2014-08-17T08:00:39Z</time>
      </trkpt>
      <trkpt lat="41.618311110" lon="2.520823151">
        <ele>226.53</ele>
        <time>2014-08-17T08:00:49Z</time>
      </trkpt>
      <trkpt lat="41.618329047" lon="2.520767495">
        <ele>227.01</ele>
        <time>2014-08-17T08:00:52Z</time>
      </trkpt>
      <trkpt lat="41.618402137" lon="2.520668421">
        <ele>227.97</ele>
        <time>2014-08-17T08:00:59Z</time>
      </trkpt>
      <trkpt lat="41.618520406" lon="2.520609077">
        <ele>229.41</ele>
        <time>2014-08-17T08:01:08Z</time>
      </trkpt>
      <trkpt lat="41.618640603" lon="2.520594157">
        <ele>230.85</ele>
        <time>2014-08-17T08:01:17Z</time>
      </trkpt>
      <trkpt lat="41.618795249" lon="2.520553170">
        <ele>232.30</ele>
        <time>2014-08-17T08:01:28Z</time>
      </trkpt>
      <trkpt lat="41.618904716" lon="2.520492233">
        <ele>234.22</ele>
        <time>2014-08-17T08:01:37Z</time>
      </trkpt>
      <trkpt lat="41.619016866" lon="2.520433644">
        <ele>235.66</ele>
        <time>2014-08-17T08:01:46Z</time>
      </trkpt>
      <trkpt lat="41.619135889" lon="2.520371450">
        <ele>237.58</ele>
        <time>2014-08-17T08:01:55Z</time>
      </trkpt>
      <trkpt lat="41.619185845" lon="2.520341024">
        <ele>238.54</ele>
        <time>2014-08-17T08:01:59Z</time>
      </trkpt>
      <trkpt lat="41.619347784" lon="2.520327613">
        <ele>239.99</ele>
        <time>2014-08-17T08:02:10Z</time>
      </trkpt>
      <trkpt lat="41.619466471" lon="2.520361476">
        <ele>242.39</ele>
        <time>2014-08-17T08:02:19Z</time>
      </trkpt>
      <trkpt lat="41.619585830" lon="2.520347478">
        <ele>243.83</ele>
        <time>2014-08-17T08:02:27Z</time>
      </trkpt>
      <trkpt lat="41.619718515" lon="2.520298695">
        <ele>246.23</ele>
        <time>2014-08-17T08:02:37Z</time>
      </trkpt>
      <trkpt lat="41.619812728" lon="2.520265922">
        <ele>247.68</ele>
        <time>2014-08-17T08:02:45Z</time>
      </trkpt>
      <trkpt lat="41.619940300" lon="2.520192664">
        <ele>249.60</ele>
        <time>2014-08-17T08:02:55Z</time>
      </trkpt>
      <trkpt lat="41.620057731" lon="2.520144636">
        <ele>251.52</ele>
        <time>2014-08-17T08:03:04Z</time>
      </trkpt>
      <trkpt lat="41.620170467" lon="2.520106917">
        <ele>252.48</ele>
        <time>2014-08-17T08:03:12Z</time>
      </trkpt>
      <trkpt lat="41.620277169" lon="2.520125525">
        <ele>254.41</ele>
        <time>2014-08-17T08:03:21Z</time>
      </trkpt>
      <trkpt lat="41.620392001" lon="2.520143882">
        <ele>255.85</ele>
        <time>2014-08-17T08:03:30Z</time>
      </trkpt>
      <trkpt lat="41.620553018" lon="2.520181265">
        <ele>256.81</ele>
        <time>2014-08-17T08:03:42Z</time>
      </trkpt>
      <trkpt lat="41.620664329" lon="2.520193754">
        <ele>258.73</ele>
        <time>2014-08-17T08:03:50Z</time>
      </trkpt>
      <trkpt lat="41.620817802" lon="2.520221749">
        <ele>260.65</ele>
        <time>2014-08-17T08:04:01Z</time>
      </trkpt>
      <trkpt lat="41.620951409" lon="2.520250751">
        <ele>262.58</ele>
        <time>2014-08-17T08:04:11Z</time>
      </trkpt>
      <trkpt lat="41.621079317" lon="2.520268856">
        <ele>263.54</ele>
        <time>2014-08-17T08:04:20Z</time>
      </trkpt>
      <trkpt lat="41.621220217" lon="2.520289559">
        <ele>264.98</ele>
        <time>2014-08-17T08:04:29Z</time>
      </trkpt>
      <trkpt lat="41.621373606" lon="2.520308502">
        <ele>266.90</ele>
        <time>2014-08-17T08:04:39Z</time>
      </trkpt>
      <trkpt lat="41.621509057" lon="2.520352004">
        <ele>269.31</ele>
        <time>2014-08-17T08:04:49Z</time>
      </trkpt>
      <trkpt lat="41.621649454" lon="2.520403637">
        <ele>271.71</ele>
        <time>2014-08-17T08:04:59Z</time>
      </trkpt>
      <trkpt lat="41.621768645" lon="2.520430207">
        <ele>274.11</ele>
        <time>2014-08-17T08:05:08Z</time>
      </trkpt>
      <trkpt lat="41.621901750" lon="2.520447474">
        <ele>276.52</ele>
        <time>2014-08-17T08:05:18Z</time>
      </trkpt>
      <trkpt lat="41.622029071" lon="2.520455605">
        <ele>279.40</ele>
        <time>2014-08-17T08:05:28Z</time>
      </trkpt>
      <trkpt lat="41.622157230" lon="2.520426184">
        <ele>280.84</ele>
        <time>2014-08-17T08:05:38Z</time>
      </trkpt>
      <trkpt lat="41.622276337" lon="2.520390310">
        <ele>282.28</ele>
        <time>2014-08-17T08:05:47Z</time>
      </trkpt>
      <trkpt lat="41.622402401" lon="2.520373881">
        <ele>284.21</ele>
        <time>2014-08-17T08:05:58Z</time>
      </trkpt>
      <trkpt lat="41.622435509" lon="2.520382431">
        <ele>285.17</ele>
        <time>2014-08-17T08:06:01Z</time>
      </trkpt>
      <trkpt lat="41.622433581" lon="2.520479409">
        <ele>285.65</ele>
        <time>2014-08-17T08:06:08Z</time>
      </trkpt>
      <trkpt lat="41.622411285" lon="2.520502124">
        <ele>286.13</ele>
        <time>2014-08-17T08:06:10Z</time>
      </trkpt>
      <trkpt lat="41.622298297" lon="2.520551326">
        <ele>287.57</ele>
        <time>2014-08-17T08:06:19Z</time>
      </trkpt>
      <trkpt lat="41.622201570" lon="2.520650987">
        <ele>289.01</ele>
        <time>2014-08-17T08:06:28Z</time>
      </trkpt>
      <trkpt lat="41.622075590" lon="2.520749223">
        <ele>291.42</ele>
        <time>2014-08-17T08:06:39Z</time>
      </trkpt>
      <trkpt lat="41.622007529" lon="2.520797502">
        <ele>291.90</ele>
        <time>2014-08-17T08:06:45Z</time>
      </trkpt>
      <trkpt lat="41.621895547" lon="2.520885512">
        <ele>293.82</ele>
        <time>2014-08-17T08:06:55Z</time>
      </trkpt>
      <trkpt lat="41.621802675" lon="2.520977965">
        <ele>295.26</ele>
        <time>2014-08-17T08:07:04Z</time>
      </trkpt>
      <trkpt lat="41.621688514" lon="2.521035800">
        <ele>295.74</ele>
        <time>2014-08-17T08:07:13Z</time>
      </trkpt>
      <trkpt lat="41.621581561" lon="2.521031357">
        <ele>296.22</ele>
        <time>2014-08-17T08:07:21Z</time>
      </trkpt>
      <trkpt lat="41.621448456" lon="2.520982994">
        <ele>297.18</ele>
        <time>2014-08-17T08:07:30Z</time>
      </trkpt>
      <trkpt lat="41.621322225" lon="2.520973439">
        <ele>297.67</ele>
        <time>2014-08-17T08:07:39Z</time>
      </trkpt>
      <trkpt lat="41.621191216" lon="2.521015264">
        <ele>298.63</ele>
        <time>2014-08-17T08:07:48Z</time>
      </trkpt>
      <trkpt lat="41.621092896" lon="2.521069998">
        <ele>299.59</ele>
        <time>2014-08-17T08:07:57Z</time>
      </trkpt>
      <trkpt lat="41.621117706" lon="2.521115177">
        <ele>300.07</ele>
        <time>2014-08-17T08:08:01Z</time>
      </trkpt>
      <trkpt lat="41.621218457" lon="2.521110902">
        <ele>302.47</ele>
        <time>2014-08-17T08:08:11Z</time>
      </trkpt>
      <trkpt lat="41.621229437" lon="2.521113500">
        <ele>302.95</ele>
        <time>2014-08-17T08:08:12Z</time>
      </trkpt>
      <trkpt lat="41.621297666" lon="2.521163456">
        <ele>303.91</ele>
        <time>2014-08-17T08:08:19Z</time>
      </trkpt>
      <trkpt lat="41.621377881" lon="2.521271248">
        <ele>305.84</ele>
        <time>2014-08-17T08:08:28Z</time>
      </trkpt>
      <trkpt lat="41.621471087" lon="2.521410471">
        <ele>307.28</ele>
        <time>2014-08-17T08:08:38Z</time>
      </trkpt>
      <trkpt lat="41.621541328" lon="2.521536367">
        <ele>308.24</ele>
        <time>2014-08-17T08:08:46Z</time>
      </trkpt>
      <trkpt lat="41.621616262" lon="2.521636112">
        <ele>309.68</ele>
        <time>2014-08-17T08:08:54Z</time>
      </trkpt>
      <trkpt lat="41.621652304" lon="2.521697048">
        <ele>310.64</ele>
        <time>2014-08-17T08:08:59Z</time>
      </trkpt>
      <trkpt lat="41.621720114" lon="2.521823364">
        <ele>312.09</ele>
        <time>2014-08-17T08:09:08Z</time>
      </trkpt>
      <trkpt lat="41.621765041" lon="2.521930065">
        <ele>313.05</ele>
        <time>2014-08-17T08:09:16Z</time>
      </trkpt>
      <trkpt lat="41.621824804" lon="2.522095859">
        <ele>314.97</ele>
        <time>2014-08-17T08:09:25Z</time>
      </trkpt>
      <trkpt lat="41.621896469" lon="2.522249667">
        <ele>316.41</ele>
        <time>2014-08-17T08:09:34Z</time>
      </trkpt>
      <trkpt lat="41.621975929" lon="2.522226282">
        <ele>317.85</ele>
        <time>2014-08-17T08:09:42Z</time>
      </trkpt>
      <trkpt lat="41.621956316" lon="2.522059901">
        <ele>319.78</ele>
        <time>2014-08-17T08:09:52Z</time>
      </trkpt>
      <trkpt lat="41.621958244" lon="2.521971220">
        <ele>320.74</ele>
        <time>2014-08-17T08:09:58Z</time>
      </trkpt>
      <trkpt lat="41.621976600" lon="2.521897376">
        <ele>321.22</ele>
        <time>2014-08-17T08:10:03Z</time>
      </trkpt>
      <trkpt lat="41.622001662" lon="2.521732755">
        <ele>322.18</ele>
        <time>2014-08-17T08:10:12Z</time>
      </trkpt>
      <trkpt lat="41.622073076" lon="2.521605602">
        <ele>323.62</ele>
        <time>2014-08-17T08:10:21Z</time>
      </trkpt>
      <trkpt lat="41.622091348" lon="2.521582551">
        <ele>323.62</ele>
        <time>2014-08-17T08:10:23Z</time>
      </trkpt>
      <trkpt lat="41.622216574" lon="2.521549694">
        <ele>325.06</ele>
        <time>2014-08-17T08:10:33Z</time>
      </trkpt>
      <trkpt lat="41.622308104" lon="2.521610212">
        <ele>326.02</ele>
        <time>2014-08-17T08:10:42Z</time>
      </trkpt>
      <trkpt lat="41.622412291" lon="2.521692773">
        <ele>326.99</ele>
        <time>2014-08-17T08:10:51Z</time>
      </trkpt>
      <trkpt lat="41.622532320" lon="2.521772150">
        <ele>328.91</ele>
        <time>2014-08-17T08:11:00Z</time>
      </trkpt>
      <trkpt lat="41.622644554" lon="2.521841720">
        <ele>330.35</ele>
        <time>2014-08-17T08:11:09Z</time>
      </trkpt>
      <trkpt lat="41.622770450" lon="2.521858903">
        <ele>331.31</ele>
        <time>2014-08-17T08:11:18Z</time>
      </trkpt>
      <trkpt lat="41.622887964" lon="2.521853957">
        <ele>332.75</ele>
        <time>2014-08-17T08:11:26Z</time>
      </trkpt>
      <trkpt lat="41.623007742" lon="2.521832919">
        <ele>333.71</ele>
        <time>2014-08-17T08:11:35Z</time>
      </trkpt>
      <trkpt lat="41.623135063" lon="2.521795955">
        <ele>335.16</ele>
        <time>2014-08-17T08:11:44Z</time>
      </trkpt>
      <trkpt lat="41.623265737" lon="2.521871979">
        <ele>336.12</ele>
        <time>2014-08-17T08:11:54Z</time>
      </trkpt>
      <trkpt lat="41.623279148" lon="2.521882791">
        <ele>336.12</ele>
        <time>2014-08-17T08:11:55Z</time>
      </trkpt>
      <trkpt lat="41.623381994" lon="2.522044478">
        <ele>337.08</ele>
        <time>2014-08-17T08:12:05Z</time>
      </trkpt>
      <trkpt lat="41.623512668" lon="2.522186132">
        <ele>337.56</ele>
        <time>2014-08-17T08:12:16Z</time>
      </trkpt>
      <trkpt lat="41.623621046" lon="2.522272047">
        <ele>338.52</ele>
        <time>2014-08-17T08:12:25Z</time>
      </trkpt>
      <trkpt lat="41.623696315" lon="2.522335498">
        <ele>339.00</ele>
        <time>2014-08-17T08:12:31Z</time>
      </trkpt>
      <trkpt lat="41.623814165" lon="2.522429627">
        <ele>339.48</ele>
        <time>2014-08-17T08:12:40Z</time>
      </trkpt>
      <trkpt lat="41.623959088" lon="2.522573963">
        <ele>339.96</ele>
        <time>2014-08-17T08:12:50Z</time>
      </trkpt>
      <trkpt lat="41.624050115" lon="2.522748139">
        <ele>340.92</ele>
        <time>2014-08-17T08:12:59Z</time>
      </trkpt>
      <trkpt lat="41.624131671" lon="2.522930445">
        <ele>341.41</ele>
        <time>2014-08-17T08:13:07Z</time>
      </trkpt>
      <trkpt lat="41.624206941" lon="2.523160529">
        <ele>341.89</ele>
        <time>2014-08-17T08:13:16Z</time>
      </trkpt>
      <trkpt lat="41.624242731" lon="2.523284916">
        <ele>341.89</ele>
        <time>2014-08-17T08:13:21Z</time>
      </trkpt>
      <trkpt lat="41.624281623" lon="2.523434952">
        <ele>342.37</ele>
        <time>2014-08-17T08:13:27Z</time>
      </trkpt>
      <trkpt lat="41.624339961" lon="2.523624215">
        <ele>343.33</ele>
        <time>2014-08-17T08:13:36Z</time>
      </trkpt>
      <trkpt lat="41.624422272" lon="2.523814568">
        <ele>344.77</ele>
        <time>2014-08-17T08:13:45Z</time>
      </trkpt>
      <trkpt lat="41.624485974" lon="2.523944404">
        <ele>345.25</ele>
        <time>2014-08-17T08:13:51Z</time>
      </trkpt>
      <trkpt lat="41.624571972" lon="2.524135679">
        <ele>346.69</ele>
        <time>2014-08-17T08:14:00Z</time>
      </trkpt>
      <trkpt lat="41.624635340" lon="2.524324104">
        <ele>348.13</ele>
        <time>2014-08-17T08:14:08Z</time>
      </trkpt>
      <trkpt lat="41.624712369" lon="2.524544045">
        <ele>349.10</ele>
        <time>2014-08-17T08:14:17Z</time>
      </trkpt>
      <trkpt lat="41.624790573" lon="2.524752503">
        <ele>350.06</ele>
        <time>2014-08-17T08:14:26Z</time>
      </trkpt>
      <trkpt lat="41.624848240" lon="2.524915364">
        <ele>350.54</ele>
        <time>2014-08-17T08:14:33Z</time>
      </trkpt>
      <trkpt lat="41.624962821" lon="2.525134299">
        <ele>351.02</ele>
        <time>2014-08-17T08:14:43Z</time>
      </trkpt>
      <trkpt lat="41.625158957" lon="2.525381649">
        <ele>351.50</ele>
        <time>2014-08-17T08:14:54Z</time>
      </trkpt>
      <trkpt lat="41.625363224" lon="2.525635202">
        <ele>352.46</ele>
        <time>2014-08-17T08:15:05Z</time>
      </trkpt>
      <trkpt lat="41.625534215" lon="2.525919600">
        <ele>352.94</ele>
        <time>2014-08-17T08:15:16Z</time>
      </trkpt>
      <trkpt lat="41.625733956" lon="2.526141049">
        <ele>352.94</ele>
        <time>2014-08-17T08:15:25Z</time>
      </trkpt>
      <trkpt lat="41.625953394" lon="2.526273316">
        <ele>352.94</ele>
        <time>2014-08-17T08:15:33Z</time>
      </trkpt>
      <trkpt lat="41.626118015" lon="2.526442547">
        <ele>352.94</ele>
        <time>2014-08-17T08:15:41Z</time>
      </trkpt>
      <trkpt lat="41.626290346" lon="2.526730381">
        <ele>353.42</ele>
        <time>2014-08-17T08:15:52Z</time>
      </trkpt>
      <trkpt lat="41.626331837" lon="2.526928278">
        <ele>353.90</ele>
        <time>2014-08-17T08:16:00Z</time>
      </trkpt>
      <trkpt lat="41.626339548" lon="2.526955854">
        <ele>353.90</ele>
        <time>2014-08-17T08:16:01Z</time>
      </trkpt>
      <trkpt lat="41.626418506" lon="2.527021149">
        <ele>353.90</ele>
        <time>2014-08-17T08:16:06Z</time>
      </trkpt>
      <trkpt lat="41.626432671" lon="2.527135059">
        <ele>354.86</ele>
        <time>2014-08-17T08:16:12Z</time>
      </trkpt>
      <trkpt lat="41.626432336" lon="2.527242096">
        <ele>354.86</ele>
        <time>2014-08-17T08:16:16Z</time>
      </trkpt>
      <trkpt lat="41.626479191" lon="2.527331950">
        <ele>354.86</ele>
        <time>2014-08-17T08:16:20Z</time>
      </trkpt>
      <trkpt lat="41.626504588" lon="2.527346283">
        <ele>354.86</ele>
        <time>2014-08-17T08:16:22Z</time>
      </trkpt>
      <trkpt lat="41.626552700" lon="2.527373692">
        <ele>355.83</ele>
        <time>2014-08-17T08:16:28Z</time>
      </trkpt>
      <trkpt lat="41.626567787" lon="2.527359946">
        <ele>355.83</ele>
        <time>2014-08-17T08:16:38Z</time>
      </trkpt>
      <trkpt lat="41.626577427" lon="2.527366232">
        <ele>355.83</ele>
        <time>2014-08-17T08:16:47Z</time>
      </trkpt>
      <trkpt lat="41.626645739" lon="2.527352486">
        <ele>356.31</ele>
        <time>2014-08-17T08:16:53Z</time>
      </trkpt>
      <trkpt lat="41.626730648" lon="2.527323233">
        <ele>357.75</ele>
        <time>2014-08-17T08:17:00Z</time>
      </trkpt>
      <trkpt lat="41.626757721" lon="2.527326586">
        <ele>358.23</ele>
        <time>2014-08-17T08:17:02Z</time>
      </trkpt>
      <trkpt lat="41.626910775" lon="2.527366065">
        <ele>360.63</ele>
        <time>2014-08-17T08:17:12Z</time>
      </trkpt>
      <trkpt lat="41.627055949" lon="2.527433790">
        <ele>362.55</ele>
        <time>2014-08-17T08:17:22Z</time>
      </trkpt>
      <trkpt lat="41.627171787" lon="2.527493218">
        <ele>364.48</ele>
        <time>2014-08-17T08:17:30Z</time>
      </trkpt>
      <trkpt lat="41.627313609" lon="2.527566057">
        <ele>365.44</ele>
        <time>2014-08-17T08:17:39Z</time>
      </trkpt>
      <trkpt lat="41.627453336" lon="2.527651049">
        <ele>366.40</ele>
        <time>2014-08-17T08:17:49Z</time>
      </trkpt>
      <trkpt lat="41.627613346" lon="2.527739395">
        <ele>368.32</ele>
        <time>2014-08-17T08:18:00Z</time>
      </trkpt>
      <trkpt lat="41.627708816" lon="2.527789351">
        <ele>368.80</ele>
        <time>2014-08-17T08:18:07Z</time>
      </trkpt>
      <trkpt lat="41.627855080" lon="2.527870739">
        <ele>370.24</ele>
        <time>2014-08-17T08:18:16Z</time>
      </trkpt>
      <trkpt lat="41.627999333" lon="2.527980290">
        <ele>371.21</ele>
        <time>2014-08-17T08:18:25Z</time>
      </trkpt>
      <trkpt lat="41.628124223" lon="2.528066456">
        <ele>373.13</ele>
        <time>2014-08-17T08:18:33Z</time>
      </trkpt>
      <trkpt lat="41.628287335" lon="2.528204674">
        <ele>374.09</ele>
        <time>2014-08-17T08:18:44Z</time>
      </trkpt>
      <trkpt lat="41.628426391" lon="2.528349513">
        <ele>375.53</ele>
        <time>2014-08-17T08:18:54Z</time>
      </trkpt>
      <trkpt lat="41.628536361" lon="2.528497119">
        <ele>376.49</ele>
        <time>2014-08-17T08:19:03Z</time>
      </trkpt>
      <trkpt lat="41.628638201" lon="2.528680515">
        <ele>376.97</ele>
        <time>2014-08-17T08:19:12Z</time>
      </trkpt>
      <trkpt lat="41.628738868" lon="2.528877406">
        <ele>376.97</ele>
        <time>2014-08-17T08:19:20Z</time>
      </trkpt>
      <trkpt lat="41.628851353" lon="2.529168090">
        <ele>376.97</ele>
        <time>2014-08-17T08:19:30Z</time>
      </trkpt>
      <trkpt lat="41.629010945" lon="2.529432204">
        <ele>376.97</ele>
        <time>2014-08-17T08:19:38Z</time>
      </trkpt>
      <trkpt lat="41.629175649" lon="2.529756583">
        <ele>376.97</ele>
        <time>2014-08-17T08:19:47Z</time>
      </trkpt>
      <trkpt lat="41.629294840" lon="2.530088339">
        <ele>378.90</ele>
        <time>2014-08-17T08:19:57Z</time>
      </trkpt>
      <trkpt lat="41.629340605" lon="2.530297635">
        <ele>380.34</ele>
        <time>2014-08-17T08:20:04Z</time>
      </trkpt>
      <trkpt lat="41.629370109" lon="2.530664763">
        <ele>382.74</ele>
        <time>2014-08-17T08:20:16Z</time>
      </trkpt>
      <trkpt lat="41.629351334" lon="2.530981515">
        <ele>384.66</ele>
        <time>2014-08-17T08:20:27Z</time>
      </trkpt>
      <trkpt lat="41.629407660" lon="2.531170359">
        <ele>385.15</ele>
        <time>2014-08-17T08:20:34Z</time>
      </trkpt>
      <trkpt lat="41.629543447" lon="2.531302206">
        <ele>385.15</ele>
        <time>2014-08-17T08:20:41Z</time>
      </trkpt>
      <trkpt lat="41.629785852" lon="2.531442519">
        <ele>382.74</ele>
        <time>2014-08-17T08:20:47Z</time>
      </trkpt>
      <trkpt lat="41.630146944" lon="2.531589119">
        <ele>380.82</ele>
        <time>2014-08-17T08:20:53Z</time>
      </trkpt>
      <trkpt lat="41.630281809" lon="2.531629771">
        <ele>379.86</ele>
        <time>2014-08-17T08:20:55Z</time>
      </trkpt>
      <trkpt lat="41.630610715" lon="2.531564392">
        <ele>379.38</ele>
        <time>2014-08-17T08:21:00Z</time>
      </trkpt>
      <trkpt lat="41.630926461" lon="2.531438161">
        <ele>378.90</ele>
        <time>2014-08-17T08:21:05Z</time>
      </trkpt>
      <trkpt lat="41.631170793" lon="2.531469593">
        <ele>378.90</ele>
        <time>2014-08-17T08:21:09Z</time>
      </trkpt>
      <trkpt lat="41.631434488" lon="2.531436736">
        <ele>378.90</ele>
        <time>2014-08-17T08:21:15Z</time>
      </trkpt>
      <trkpt lat="41.631536747" lon="2.531295668">
        <ele>377.94</ele>
        <time>2014-08-17T08:21:18Z</time>
      </trkpt>
      <trkpt lat="41.631857690" lon="2.530768111">
        <ele>376.01</ele>
        <time>2014-08-17T08:21:27Z</time>
      </trkpt>
      <trkpt lat="41.632026083" lon="2.530533670">
        <ele>374.09</ele>
        <time>2014-08-17T08:21:32Z</time>
      </trkpt>
      <trkpt lat="41.632224985" lon="2.530691585">
        <ele>371.69</ele>
        <time>2014-08-17T08:21:38Z</time>
      </trkpt>
      <trkpt lat="41.632557495" lon="2.531014791">
        <ele>371.21</ele>
        <time>2014-08-17T08:21:45Z</time>
      </trkpt>
      <trkpt lat="41.632768719" lon="2.531256944">
        <ele>370.73</ele>
        <time>2014-08-17T08:21:50Z</time>
      </trkpt>
      <trkpt lat="41.633047837" lon="2.531689953">
        <ele>369.28</ele>
        <time>2014-08-17T08:21:57Z</time>
      </trkpt>
      <trkpt lat="41.633178511" lon="2.531955743">
        <ele>372.17</ele>
        <time>2014-08-17T08:22:04Z</time>
      </trkpt>
      <trkpt lat="41.633216313" lon="2.532188928">
        <ele>373.61</ele>
        <time>2014-08-17T08:22:11Z</time>
      </trkpt>
      <trkpt lat="41.633206841" lon="2.532414485">
        <ele>375.53</ele>
        <time>2014-08-17T08:22:18Z</time>
      </trkpt>
      <trkpt lat="41.633218241" lon="2.532629481">
        <ele>378.42</ele>
        <time>2014-08-17T08:22:26Z</time>
      </trkpt>
      <trkpt lat="41.633223019" lon="2.532713803">
        <ele>379.38</ele>
        <time>2014-08-17T08:22:29Z</time>
      </trkpt>
      <trkpt lat="41.633311364" lon="2.532806004">
        <ele>379.86</ele>
        <time>2014-08-17T08:22:35Z</time>
      </trkpt>
      <trkpt lat="41.633434829" lon="2.532974145">
        <ele>377.45</ele>
        <time>2014-08-17T08:22:40Z</time>
      </trkpt>
      <trkpt lat="41.633641359" lon="2.533276899">
        <ele>373.13</ele>
        <time>2014-08-17T08:22:45Z</time>
      </trkpt>
      <trkpt lat="41.633700368" lon="2.533358874">
        <ele>372.17</ele>
        <time>2014-08-17T08:22:46Z</time>
      </trkpt>
      <trkpt lat="41.633824839" lon="2.533497678">
        <ele>371.69</ele>
        <time>2014-08-17T08:22:48Z</time>
      </trkpt>
      <trkpt lat="41.633967332" lon="2.533584263">
        <ele>371.69</ele>
        <time>2014-08-17T08:22:51Z</time>
      </trkpt>
      <trkpt lat="41.634060035" lon="2.533566829">
        <ele>371.69</ele>
        <time>2014-08-17T08:22:54Z</time>
      </trkpt>
      <trkpt lat="41.634203785" lon="2.533537911">
        <ele>371.69</ele>
        <time>2014-08-17T08:22:57Z</time>
      </trkpt>
      <trkpt lat="41.634447363" lon="2.533499606">
        <ele>369.28</ele>
        <time>2014-08-17T08:23:02Z</time>
      </trkpt>
      <trkpt lat="41.634583318" lon="2.533515532">
        <ele>367.84</ele>
        <time>2014-08-17T08:23:05Z</time>
      </trkpt>
      <trkpt lat="41.634664957" lon="2.533344792">
        <ele>366.88</ele>
        <time>2014-08-17T08:23:08Z</time>
      </trkpt>
      <trkpt lat="41.634649954" lon="2.533128791">
        <ele>365.44</ele>
        <time>2014-08-17T08:23:11Z</time>
      </trkpt>
      <trkpt lat="41.634612403" lon="2.532718161">
        <ele>363.04</ele>
        <time>2014-08-17T08:23:16Z</time>
      </trkpt>
      <trkpt lat="41.634610307" lon="2.532566784">
        <ele>362.07</ele>
        <time>2014-08-17T08:23:18Z</time>
      </trkpt>
      <trkpt lat="41.634620869" lon="2.532397553">
        <ele>360.15</ele>
        <time>2014-08-17T08:23:21Z</time>
      </trkpt>
      <trkpt lat="41.634686918" lon="2.532159927">
        <ele>359.67</ele>
        <time>2014-08-17T08:23:27Z</time>
      </trkpt>
      <trkpt lat="41.634781298" lon="2.531998323">
        <ele>361.59</ele>
        <time>2014-08-17T08:23:33Z</time>
      </trkpt>
      <trkpt lat="41.634936280" lon="2.531844432">
        <ele>364.00</ele>
        <time>2014-08-17T08:23:40Z</time>
      </trkpt>
      <trkpt lat="41.635070641" lon="2.531882653">
        <ele>366.40</ele>
        <time>2014-08-17T08:23:45Z</time>
      </trkpt>
      <trkpt lat="41.635185138" lon="2.532006789">
        <ele>367.84</ele>
        <time>2014-08-17T08:23:50Z</time>
      </trkpt>
      <trkpt lat="41.635394434" lon="2.532187838">
        <ele>367.84</ele>
        <time>2014-08-17T08:23:59Z</time>
      </trkpt>
      <trkpt lat="41.635463585" lon="2.532170488">
        <ele>367.84</ele>
        <time>2014-08-17T08:24:01Z</time>
      </trkpt>
      <trkpt lat="41.635551595" lon="2.531990193">
        <ele>367.84</ele>
        <time>2014-08-17T08:24:05Z</time>
      </trkpt>
      <trkpt lat="41.635600629" lon="2.531650558">
        <ele>367.84</ele>
        <time>2014-08-17T08:24:12Z</time>
      </trkpt>
      <trkpt lat="41.635649412" lon="2.531411003">
        <ele>369.76</ele>
        <time>2014-08-17T08:24:19Z</time>
      </trkpt>
      <trkpt lat="41.635710097" lon="2.531155439">
        <ele>372.65</ele>
        <time>2014-08-17T08:24:28Z</time>
      </trkpt>
      <trkpt lat="41.635806489" lon="2.530978078">
        <ele>373.61</ele>
        <time>2014-08-17T08:24:35Z</time>
      </trkpt>
      <trkpt lat="41.635952837" lon="2.530928876">
        <ele>375.05</ele>
        <time>2014-08-17T08:24:42Z</time>
      </trkpt>
      <trkpt lat="41.636099436" lon="2.530890152">
        <ele>376.01</ele>
        <time>2014-08-17T08:24:49Z</time>
      </trkpt>
      <trkpt lat="41.636265901" lon="2.530896438">
        <ele>376.49</ele>
        <time>2014-08-17T08:24:57Z</time>
      </trkpt>
      <trkpt lat="41.636329100" lon="2.531049324">
        <ele>376.49</ele>
        <time>2014-08-17T08:25:03Z</time>
      </trkpt>
      <trkpt lat="41.636344272" lon="2.531280665">
        <ele>376.49</ele>
        <time>2014-08-17T08:25:10Z</time>
      </trkpt>
      <trkpt lat="41.636339326" lon="2.531495744">
        <ele>376.49</ele>
        <time>2014-08-17T08:25:18Z</time>
      </trkpt>
      <trkpt lat="41.636367992" lon="2.531729600">
        <ele>375.53</ele>
        <time>2014-08-17T08:25:24Z</time>
      </trkpt>
      <trkpt lat="41.636424067" lon="2.531925820">
        <ele>375.53</ele>
        <time>2014-08-17T08:25:30Z</time>
      </trkpt>
      <trkpt lat="41.636541163" lon="2.532177026">
        <ele>375.53</ele>
        <time>2014-08-17T08:25:39Z</time>
      </trkpt>
      <trkpt lat="41.636533954" lon="2.532359332">
        <ele>376.97</ele>
        <time>2014-08-17T08:25:45Z</time>
      </trkpt>
      <trkpt lat="41.636467486" lon="2.532581788">
        <ele>376.97</ele>
        <time>2014-08-17T08:25:52Z</time>
      </trkpt>
      <trkpt lat="41.636435886" lon="2.532697374">
        <ele>376.97</ele>
        <time>2014-08-17T08:25:55Z</time>
      </trkpt>
      <trkpt lat="41.636460110" lon="2.532828048">
        <ele>376.97</ele>
        <time>2014-08-17T08:25:59Z</time>
      </trkpt>
      <trkpt lat="41.636624060" lon="2.533007002">
        <ele>376.97</ele>
        <time>2014-08-17T08:26:07Z</time>
      </trkpt>
      <trkpt lat="41.636735707" lon="2.533257369">
        <ele>376.97</ele>
        <time>2014-08-17T08:26:15Z</time>
      </trkpt>
      <trkpt lat="41.636712489" lon="2.533494577">
        <ele>376.97</ele>
        <time>2014-08-17T08:26:22Z</time>
      </trkpt>
      <trkpt lat="41.636655324" lon="2.533714434">
        <ele>376.97</ele>
        <time>2014-08-17T08:26:29Z</time>
      </trkpt>
      <trkpt lat="41.636615175" lon="2.533828177">
        <ele>376.97</ele>
        <time>2014-08-17T08:26:33Z</time>
      </trkpt>
      <trkpt lat="41.636572427" lon="2.533973016">
        <ele>376.97</ele>
        <time>2014-08-17T08:26:38Z</time>
      </trkpt>
      <trkpt lat="41.636676446" lon="2.534109473">
        <ele>376.97</ele>
        <time>2014-08-17T08:26:45Z</time>
      </trkpt>
      <trkpt lat="41.636803851" lon="2.534159765">
        <ele>376.01</ele>
        <time>2014-08-17T08:26:50Z</time>
      </trkpt>
      <trkpt lat="41.637064361" lon="2.534338551">
        <ele>374.09</ele>
        <time>2014-08-17T08:26:59Z</time>
      </trkpt>
      <trkpt lat="41.637317327" lon="2.534519181">
        <ele>373.13</ele>
        <time>2014-08-17T08:27:08Z</time>
      </trkpt>
      <trkpt lat="41.637517487" lon="2.534587074">
        <ele>372.65</ele>
        <time>2014-08-17T08:27:15Z</time>
      </trkpt>
      <trkpt lat="41.637662745" lon="2.534717497">
        <ele>371.21</ele>
        <time>2014-08-17T08:27:22Z</time>
      </trkpt>
      <trkpt lat="41.637798616" lon="2.534896786">
        <ele>371.21</ele>
        <time>2014-08-17T08:27:29Z</time>
      </trkpt>
      <trkpt lat="41.637914034" lon="2.534926457">
        <ele>370.24</ele>
        <time>2014-08-17T08:27:35Z</time>
      </trkpt>
      <trkpt lat="41.638055102" lon="2.534806680">
        <ele>368.80</ele>
        <time>2014-08-17T08:27:40Z</time>
      </trkpt>
      <trkpt lat="41.638340757" lon="2.534609035">
        <ele>368.32</ele>
        <time>2014-08-17T08:27:49Z</time>
      </trkpt>
      <trkpt lat="41.638548209" lon="2.534658237">
        <ele>368.32</ele>
        <time>2014-08-17T08:27:55Z</time>
      </trkpt>
      <trkpt lat="41.638807713" lon="2.534798885">
        <ele>367.84</ele>
        <time>2014-08-17T08:28:03Z</time>
      </trkpt>
      <trkpt lat="41.639063613" lon="2.534931822">
        <ele>367.84</ele>
        <time>2014-08-17T08:28:12Z</time>
      </trkpt>
      <trkpt lat="41.639253044" lon="2.534919836">
        <ele>367.84</ele>
        <time>2014-08-17T08:28:20Z</time>
      </trkpt>
      <trkpt lat="41.639387322" lon="2.534963422">
        <ele>370.24</ele>
        <time>2014-08-17T08:28:26Z</time>
      </trkpt>
      <trkpt lat="41.639524617" lon="2.534966523">
        <ele>371.21</ele>
        <time>2014-08-17T08:28:33Z</time>
      </trkpt>
      <trkpt lat="41.639671384" lon="2.534992758">
        <ele>372.65</ele>
        <time>2014-08-17T08:28:40Z</time>
      </trkpt>
      <trkpt lat="41.639791413" lon="2.535018491">
        <ele>374.09</ele>
        <time>2014-08-17T08:28:47Z</time>
      </trkpt>
      <trkpt lat="41.639926781" lon="2.535061071">
        <ele>375.05</ele>
        <time>2014-08-17T08:28:54Z</time>
      </trkpt>
      <trkpt lat="41.640081595" lon="2.535166264">
        <ele>376.01</ele>
        <time>2014-08-17T08:29:02Z</time>
      </trkpt>
      <trkpt lat="41.640239091" lon="2.535241282">
        <ele>376.97</ele>
        <time>2014-08-17T08:29:10Z</time>
      </trkpt>
      <trkpt lat="41.640474371" lon="2.535196690">
        <ele>376.97</ele>
        <time>2014-08-17T08:29:20Z</time>
      </trkpt>
      <trkpt lat="41.640656593" lon="2.535179423">
        <ele>377.94</ele>
        <time>2014-08-17T08:29:28Z</time>
      </trkpt>
      <trkpt lat="41.640776035" lon="2.535214795">
        <ele>378.42</ele>
        <time>2014-08-17T08:29:34Z</time>
      </trkpt>
      <trkpt lat="41.640937303" lon="2.535360640">
        <ele>378.42</ele>
        <time>2014-08-17T08:29:42Z</time>
      </trkpt>
      <trkpt lat="41.641099074" lon="2.535604553">
        <ele>378.90</ele>
        <time>2014-08-17T08:29:51Z</time>
      </trkpt>
      <trkpt lat="41.641234274" lon="2.535951648">
        <ele>379.86</ele>
        <time>2014-08-17T08:30:02Z</time>
      </trkpt>
      <trkpt lat="41.641303173" lon="2.536193634">
        <ele>381.30</ele>
        <time>2014-08-17T08:30:10Z</time>
      </trkpt>
      <trkpt lat="41.641357823" lon="2.536393123">
        <ele>383.22</ele>
        <time>2014-08-17T08:30:17Z</time>
      </trkpt>
      <trkpt lat="41.641442732" lon="2.536661763">
        <ele>385.15</ele>
        <time>2014-08-17T08:30:26Z</time>
      </trkpt>
      <trkpt lat="41.641574412" lon="2.536833843">
        <ele>386.59</ele>
        <time>2014-08-17T08:30:34Z</time>
      </trkpt>
      <trkpt lat="41.641641383" lon="2.537066274">
        <ele>387.07</ele>
        <time>2014-08-17T08:30:42Z</time>
      </trkpt>
      <trkpt lat="41.641571478" lon="2.537331896">
        <ele>387.07</ele>
        <time>2014-08-17T08:30:48Z</time>
      </trkpt>
      <trkpt lat="41.641582039" lon="2.537601374">
        <ele>387.07</ele>
        <time>2014-08-17T08:30:55Z</time>
      </trkpt>
      <trkpt lat="41.641611208" lon="2.537899183">
        <ele>388.03</ele>
        <time>2014-08-17T08:31:04Z</time>
      </trkpt>
      <trkpt lat="41.641706678" lon="2.538172852">
        <ele>388.99</ele>
        <time>2014-08-17T08:31:13Z</time>
      </trkpt>
      <trkpt lat="41.641802399" lon="2.538316770">
        <ele>388.99</ele>
        <time>2014-08-17T08:31:17Z</time>
      </trkpt>
      <trkpt lat="41.641936677" lon="2.538443001">
        <ele>387.55</ele>
        <time>2014-08-17T08:31:21Z</time>
      </trkpt>
      <trkpt lat="41.642205150" lon="2.538531682">
        <ele>387.55</ele>
        <time>2014-08-17T08:31:29Z</time>
      </trkpt>
      <trkpt lat="41.642394665" lon="2.538541991">
        <ele>388.99</ele>
        <time>2014-08-17T08:31:36Z</time>
      </trkpt>
      <trkpt lat="41.642551155" lon="2.538649364">
        <ele>389.95</ele>
        <time>2014-08-17T08:31:43Z</time>
      </trkpt>
      <trkpt lat="41.642706471" lon="2.538804261">
        <ele>389.95</ele>
        <time>2014-08-17T08:31:49Z</time>
      </trkpt>
      <trkpt lat="41.642975279" lon="2.539008947">
        <ele>387.07</ele>
        <time>2014-08-17T08:31:57Z</time>
      </trkpt>
      <trkpt lat="41.643200249" lon="2.539123779">
        <ele>385.63</ele>
        <time>2014-08-17T08:32:03Z</time>
      </trkpt>
      <trkpt lat="41.643323380" lon="2.539299296">
        <ele>382.74</ele>
        <time>2014-08-17T08:32:07Z</time>
      </trkpt>
      <trkpt lat="41.643551535" lon="2.539504402">
        <ele>380.82</ele>
        <time>2014-08-17T08:32:12Z</time>
      </trkpt>
      <trkpt lat="41.643797795" lon="2.539640775">
        <ele>377.94</ele>
        <time>2014-08-17T08:32:16Z</time>
      </trkpt>
      <trkpt lat="41.644064004" lon="2.539922156">
        <ele>373.61</ele>
        <time>2014-08-17T08:32:21Z</time>
      </trkpt>
      <trkpt lat="41.644156708" lon="2.540043190">
        <ele>371.69</ele>
        <time>2014-08-17T08:32:23Z</time>
      </trkpt>
      <trkpt lat="41.644270618" lon="2.540407635">
        <ele>366.88</ele>
        <time>2014-08-17T08:32:29Z</time>
      </trkpt>
      <trkpt lat="41.644321413" lon="2.540474104">
        <ele>366.40</ele>
        <time>2014-08-17T08:32:31Z</time>
      </trkpt>
      <trkpt lat="41.644465330" lon="2.540414509">
        <ele>364.48</ele>
        <time>2014-08-17T08:32:34Z</time>
      </trkpt>
      <trkpt lat="41.644531799" lon="2.540197501">
        <ele>363.04</ele>
        <time>2014-08-17T08:32:37Z</time>
      </trkpt>
      <trkpt lat="41.644549568" lon="2.540105803">
        <ele>362.07</ele>
        <time>2014-08-17T08:32:38Z</time>
      </trkpt>
      <trkpt lat="41.644725672" lon="2.539862644">
        <ele>357.75</ele>
        <time>2014-08-17T08:32:43Z</time>
      </trkpt>
      <trkpt lat="41.644777137" lon="2.539887957">
        <ele>357.27</ele>
        <time>2014-08-17T08:32:44Z</time>
      </trkpt>
      <trkpt lat="41.645161196" lon="2.540107060">
        <ele>354.38</ele>
        <time>2014-08-17T08:32:50Z</time>
      </trkpt>
      <trkpt lat="41.645351465" lon="2.540164057">
        <ele>352.46</ele>
        <time>2014-08-17T08:32:53Z</time>
      </trkpt>
      <trkpt lat="41.645489263" lon="2.540181408">
        <ele>351.50</ele>
        <time>2014-08-17T08:32:55Z</time>
      </trkpt>
      <trkpt lat="41.645691267" lon="2.540258521">
        <ele>350.06</ele>
        <time>2014-08-17T08:32:58Z</time>
      </trkpt>
      <trkpt lat="41.645854798" lon="2.540350806">
        <ele>351.50</ele>
        <time>2014-08-17T08:33:02Z</time>
      </trkpt>
      <trkpt lat="41.645974324" lon="2.540502519">
        <ele>353.42</ele>
        <time>2014-08-17T08:33:09Z</time>
      </trkpt>
      <trkpt lat="41.646107680" lon="2.540659092">
        <ele>356.31</ele>
        <time>2014-08-17T08:33:18Z</time>
      </trkpt>
      <trkpt lat="41.646217902" lon="2.540698404">
        <ele>357.75</ele>
        <time>2014-08-17T08:33:25Z</time>
      </trkpt>
      <trkpt lat="41.646370285" lon="2.540761519">
        <ele>360.15</ele>
        <time>2014-08-17T08:33:35Z</time>
      </trkpt>
      <trkpt lat="41.646506072" lon="2.540808374">
        <ele>363.04</ele>
        <time>2014-08-17T08:33:44Z</time>
      </trkpt>
      <trkpt lat="41.646643954" lon="2.540849948">
        <ele>365.92</ele>
        <time>2014-08-17T08:33:53Z</time>
      </trkpt>
      <trkpt lat="41.646775634" lon="2.540821534">
        <ele>366.88</ele>
        <time>2014-08-17T08:34:01Z</time>
      </trkpt>
      <trkpt lat="41.646922820" lon="2.540794628">
        <ele>368.32</ele>
        <time>2014-08-17T08:34:09Z</time>
      </trkpt>
      <trkpt lat="41.647096829" lon="2.540783899">
        <ele>369.28</ele>
        <time>2014-08-17T08:34:18Z</time>
      </trkpt>
      <trkpt lat="41.647289948" lon="2.540789263">
        <ele>370.73</ele>
        <time>2014-08-17T08:34:28Z</time>
      </trkpt>
      <trkpt lat="41.647428836" lon="2.540830922">
        <ele>372.17</ele>
        <time>2014-08-17T08:34:36Z</time>
      </trkpt>
      <trkpt lat="41.647571831" lon="2.540936617">
        <ele>375.05</ele>
        <time>2014-08-17T08:34:46Z</time>
      </trkpt>
      <trkpt lat="41.647692782" lon="2.541049354">
        <ele>377.45</ele>
        <time>2014-08-17T08:34:55Z</time>
      </trkpt>
      <trkpt lat="41.647859833" lon="2.541203329">
        <ele>379.38</ele>
        <time>2014-08-17T08:35:06Z</time>
      </trkpt>
      <trkpt lat="41.648037446" lon="2.541278096">
        <ele>381.78</ele>
        <time>2014-08-17T08:35:16Z</time>
      </trkpt>
      <trkpt lat="41.648213214" lon="2.541316904">
        <ele>382.74</ele>
        <time>2014-08-17T08:35:25Z</time>
      </trkpt>
      <trkpt lat="41.648390240" lon="2.541375494">
        <ele>384.18</ele>
        <time>2014-08-17T08:35:35Z</time>
      </trkpt>
      <trkpt lat="41.648584113" lon="2.541403741">
        <ele>385.63</ele>
        <time>2014-08-17T08:35:46Z</time>
      </trkpt>
      <trkpt lat="41.648746387" lon="2.541460738">
        <ele>386.11</ele>
        <time>2014-08-17T08:35:54Z</time>
      </trkpt>
      <trkpt lat="41.648900949" lon="2.541564087">
        <ele>387.55</ele>
        <time>2014-08-17T08:36:02Z</time>
      </trkpt>
      <trkpt lat="41.649006813" lon="2.541753685">
        <ele>388.51</ele>
        <time>2014-08-17T08:36:11Z</time>
      </trkpt>
      <trkpt lat="41.649036652" lon="2.541995755">
        <ele>388.99</ele>
        <time>2014-08-17T08:36:20Z</time>
      </trkpt>
      <trkpt lat="41.649020391" lon="2.542233633">
        <ele>389.95</ele>
        <time>2014-08-17T08:36:29Z</time>
      </trkpt>
      <trkpt lat="41.649080322" lon="2.542539992">
        <ele>390.91</ele>
        <time>2014-08-17T08:36:40Z</time>
      </trkpt>
      <trkpt lat="41.649167494" lon="2.542781558">
        <ele>391.87</ele>
        <time>2014-08-17T08:36:49Z</time>
      </trkpt>
      <trkpt lat="41.649269837" lon="2.543030165">
        <ele>392.84</ele>
        <time>2014-08-17T08:36:59Z</time>
      </trkpt>
      <trkpt lat="41.649324487" lon="2.543236444">
        <ele>393.32</ele>
        <time>2014-08-17T08:37:07Z</time>
      </trkpt>
      <trkpt lat="41.649375784" lon="2.543500055">
        <ele>395.24</ele>
        <time>2014-08-17T08:37:17Z</time>
      </trkpt>
      <trkpt lat="41.649415179" lon="2.543722091">
        <ele>396.20</ele>
        <time>2014-08-17T08:37:26Z</time>
      </trkpt>
      <trkpt lat="41.649431272" lon="2.543906577">
        <ele>397.16</ele>
        <time>2014-08-17T08:37:33Z</time>
      </trkpt>
      <trkpt lat="41.649447282" lon="2.544223497">
        <ele>398.60</ele>
        <time>2014-08-17T08:37:44Z</time>
      </trkpt>
      <trkpt lat="41.649529927" lon="2.544430781">
        <ele>399.08</ele>
        <time>2014-08-17T08:37:51Z</time>
      </trkpt>
      <trkpt lat="41.649667391" lon="2.544643095">
        <ele>400.53</ele>
        <time>2014-08-17T08:38:01Z</time>
      </trkpt>
      <trkpt lat="41.649812314" lon="2.544753987">
        <ele>401.49</ele>
        <time>2014-08-17T08:38:09Z</time>
      </trkpt>
      <trkpt lat="41.649979449" lon="2.544724399">
        <ele>402.45</ele>
        <time>2014-08-17T08:38:17Z</time>
      </trkpt>
      <trkpt lat="41.650155217" lon="2.544646280">
        <ele>404.37</ele>
        <time>2014-08-17T08:38:27Z</time>
      </trkpt>
      <trkpt lat="41.650316234" lon="2.544647286">
        <ele>405.81</ele>
        <time>2014-08-17T08:38:35Z</time>
      </trkpt>
      <trkpt lat="41.650530308" lon="2.544711910">
        <ele>407.26</ele>
        <time>2014-08-17T08:38:46Z</time>
      </trkpt>
      <trkpt lat="41.650690737" lon="2.544819953">
        <ele>408.70</ele>
        <time>2014-08-17T08:38:55Z</time>
      </trkpt>
      <trkpt lat="41.650873798" lon="2.545015922">
        <ele>411.10</ele>
        <time>2014-08-17T08:39:07Z</time>
      </trkpt>
      <trkpt lat="41.651019056" lon="2.545073338">
        <ele>412.54</ele>
        <time>2014-08-17T08:39:14Z</time>
      </trkpt>
      <trkpt lat="41.651168170" lon="2.545008630">
        <ele>413.98</ele>
        <time>2014-08-17T08:39:22Z</time>
      </trkpt>
      <trkpt lat="41.651342346" lon="2.544923637">
        <ele>415.43</ele>
        <time>2014-08-17T08:39:32Z</time>
      </trkpt>
      <trkpt lat="41.651382244" lon="2.544926068">
        <ele>415.91</ele>
        <time>2014-08-17T08:39:34Z</time>
      </trkpt>
      <trkpt lat="41.651556252" lon="2.544966301">
        <ele>418.31</ele>
        <time>2014-08-17T08:39:43Z</time>
      </trkpt>
      <trkpt lat="41.651693464" lon="2.544910561">
        <ele>419.75</ele>
        <time>2014-08-17T08:39:51Z</time>
      </trkpt>
      <trkpt lat="41.651807710" lon="2.544783911">
        <ele>421.68</ele>
        <time>2014-08-17T08:40:00Z</time>
      </trkpt>
      <trkpt lat="41.651933773" lon="2.544665055">
        <ele>424.56</ele>
        <time>2014-08-17T08:40:10Z</time>
      </trkpt>
      <trkpt lat="41.652050198" lon="2.544573190">
        <ele>426.48</ele>
        <time>2014-08-17T08:40:19Z</time>
      </trkpt>
      <trkpt lat="41.652186320" lon="2.544512421">
        <ele>427.92</ele>
        <time>2014-08-17T08:40:28Z</time>
      </trkpt>
      <trkpt lat="41.652322610" lon="2.544463303">
        <ele>428.89</ele>
        <time>2014-08-17T08:40:36Z</time>
      </trkpt>
      <trkpt lat="41.652434927" lon="2.544437906">
        <ele>429.37</ele>
        <time>2014-08-17T08:40:44Z</time>
      </trkpt>
      <trkpt lat="41.652573899" lon="2.544424579">
        <ele>429.85</ele>
        <time>2014-08-17T08:40:53Z</time>
      </trkpt>
      <trkpt lat="41.652717230" lon="2.544416113">
        <ele>431.29</ele>
        <time>2014-08-17T08:41:02Z</time>
      </trkpt>
      <trkpt lat="41.652883108" lon="2.544425082">
        <ele>433.21</ele>
        <time>2014-08-17T08:41:12Z</time>
      </trkpt>
      <trkpt lat="41.653042112" lon="2.544403372">
        <ele>434.65</ele>
        <time>2014-08-17T08:41:21Z</time>
      </trkpt>
      <trkpt lat="41.653227939" lon="2.544350734">
        <ele>437.06</ele>
        <time>2014-08-17T08:41:32Z</time>
      </trkpt>
      <trkpt lat="41.653350483" lon="2.544367330">
        <ele>439.46</ele>
        <time>2014-08-17T08:41:40Z</time>
      </trkpt>
      <trkpt lat="41.653378562" lon="2.544377472">
        <ele>439.94</ele>
        <time>2014-08-17T08:41:42Z</time>
      </trkpt>
      <trkpt lat="41.653426674" lon="2.544430697">
        <ele>440.42</ele>
        <time>2014-08-17T08:41:46Z</time>
      </trkpt>
      <trkpt lat="41.653531616" lon="2.544502279">
        <ele>442.34</ele>
        <time>2014-08-17T08:41:55Z</time>
      </trkpt>
      <trkpt lat="41.653622308" lon="2.544582075">
        <ele>443.31</ele>
        <time>2014-08-17T08:42:03Z</time>
      </trkpt>
      <trkpt lat="41.653692045" lon="2.544616021">
        <ele>444.27</ele>
        <time>2014-08-17T08:42:09Z</time>
      </trkpt>
      <trkpt lat="41.653720460" lon="2.544553828">
        <ele>445.23</ele>
        <time>2014-08-17T08:42:14Z</time>
      </trkpt>
      <trkpt lat="41.653736721" lon="2.544419633">
        <ele>447.15</ele>
        <time>2014-08-17T08:42:22Z</time>
      </trkpt>
      <trkpt lat="41.653797406" lon="2.544298347">
        <ele>447.63</ele>
        <time>2014-08-17T08:42:31Z</time>
      </trkpt>
      <trkpt lat="41.653793550" lon="2.544272447">
        <ele>447.63</ele>
        <time>2014-08-17T08:42:42Z</time>
      </trkpt>
      <trkpt lat="41.653823138" lon="2.544216121">
        <ele>447.63</ele>
        <time>2014-08-17T08:42:51Z</time>
      </trkpt>
      <trkpt lat="41.653901760" lon="2.544051333">
        <ele>447.63</ele>
        <time>2014-08-17T08:42:58Z</time>
      </trkpt>
      <trkpt lat="41.654019107" lon="2.543869529">
        <ele>447.63</ele>
        <time>2014-08-17T08:43:06Z</time>
      </trkpt>
      <trkpt lat="41.654026986" lon="2.543858046">
        <ele>447.63</ele>
        <time>2014-08-17T08:43:07Z</time>
      </trkpt>
      <trkpt lat="41.654054898" lon="2.543833487">
        <ele>447.63</ele>
        <time>2014-08-17T08:43:13Z</time>
      </trkpt>
      <trkpt lat="41.654051880" lon="2.543826111">
        <ele>447.63</ele>
        <time>2014-08-17T08:43:24Z</time>
      </trkpt>
      <trkpt lat="41.654070153" lon="2.543837845">
        <ele>447.63</ele>
        <time>2014-08-17T08:43:47Z</time>
      </trkpt>
      <trkpt lat="41.654071410" lon="2.543825189">
        <ele>447.63</ele>
        <time>2014-08-17T08:43:53Z</time>
      </trkpt>
      <trkpt lat="41.654149194" lon="2.543808509">
        <ele>447.63</ele>
        <time>2014-08-17T08:43:58Z</time>
      </trkpt>
      <trkpt lat="41.654322029" lon="2.543778334">
        <ele>447.63</ele>
        <time>2014-08-17T08:44:04Z</time>
      </trkpt>
      <trkpt lat="41.654500396" lon="2.543717984">
        <ele>446.67</ele>
        <time>2014-08-17T08:44:09Z</time>
      </trkpt>
      <trkpt lat="41.654645738" lon="2.543629555">
        <ele>446.67</ele>
        <time>2014-08-17T08:44:14Z</time>
      </trkpt>
      <trkpt lat="41.654802647" lon="2.543540036">
        <ele>447.63</ele>
        <time>2014-08-17T08:44:20Z</time>
      </trkpt>
      <trkpt lat="41.654835253" lon="2.543514053">
        <ele>447.63</ele>
        <time>2014-08-17T08:44:21Z</time>
      </trkpt>
      <trkpt lat="41.655014626" lon="2.543346834">
        <ele>446.19</ele>
        <time>2014-08-17T08:44:25Z</time>
      </trkpt>
      <trkpt lat="41.655223335" lon="2.543107279">
        <ele>447.15</ele>
        <time>2014-08-17T08:44:31Z</time>
      </trkpt>
      <trkpt lat="41.655377478" lon="2.542835202">
        <ele>447.63</ele>
        <time>2014-08-17T08:44:39Z</time>
      </trkpt>
      <trkpt lat="41.655550565" lon="2.542856157">
        <ele>445.71</ele>
        <time>2014-08-17T08:44:44Z</time>
      </trkpt>
      <trkpt lat="41.655598425" lon="2.542872753">
        <ele>444.75</ele>
        <time>2014-08-17T08:44:45Z</time>
      </trkpt>
      <trkpt lat="41.655774697" lon="2.542924637">
        <ele>441.86</ele>
        <time>2014-08-17T08:44:49Z</time>
      </trkpt>
      <trkpt lat="41.655955075" lon="2.543004852">
        <ele>438.98</ele>
        <time>2014-08-17T08:44:53Z</time>
      </trkpt>
      <trkpt lat="41.656182728" lon="2.543094874">
        <ele>436.10</ele>
        <time>2014-08-17T08:44:58Z</time>
      </trkpt>
      <trkpt lat="41.656272833" lon="2.543071907">
        <ele>435.61</ele>
        <time>2014-08-17T08:45:01Z</time>
      </trkpt>
      <trkpt lat="41.656414404" lon="2.542864120">
        <ele>435.61</ele>
        <time>2014-08-17T08:45:07Z</time>
      </trkpt>
      <trkpt lat="41.656477435" lon="2.542689106">
        <ele>437.54</ele>
        <time>2014-08-17T08:45:11Z</time>
      </trkpt>
      <trkpt lat="41.656522027" lon="2.542366319">
        <ele>435.61</ele>
        <time>2014-08-17T08:45:16Z</time>
      </trkpt>
      <trkpt lat="41.656561674" lon="2.542174792">
        <ele>432.73</ele>
        <time>2014-08-17T08:45:20Z</time>
      </trkpt>
      <trkpt lat="41.656518674" lon="2.542046297">
        <ele>429.85</ele>
        <time>2014-08-17T08:45:23Z</time>
      </trkpt>
      <trkpt lat="41.656583131" lon="2.541939931">
        <ele>427.44</ele>
        <time>2014-08-17T08:45:27Z</time>
      </trkpt>
      <trkpt lat="41.656658652" lon="2.542005394">
        <ele>426.48</ele>
        <time>2014-08-17T08:45:29Z</time>
      </trkpt>
      <trkpt lat="41.656798127" lon="2.542106899">
        <ele>425.52</ele>
        <time>2014-08-17T08:45:32Z</time>
      </trkpt>
      <trkpt lat="41.656929304" lon="2.542380903">
        <ele>425.04</ele>
        <time>2014-08-17T08:45:37Z</time>
      </trkpt>
      <trkpt lat="41.657022930" lon="2.542686759">
        <ele>423.12</ele>
        <time>2014-08-17T08:45:43Z</time>
      </trkpt>
      <trkpt lat="41.657049584" lon="2.542723723">
        <ele>422.64</ele>
        <time>2014-08-17T08:45:46Z</time>
      </trkpt>
      <trkpt lat="41.657147569" lon="2.542815253">
        <ele>421.19</ele>
        <time>2014-08-17T08:45:52Z</time>
      </trkpt>
      <trkpt lat="41.657262484" lon="2.542952549">
        <ele>418.79</ele>
        <time>2014-08-17T08:45:57Z</time>
      </trkpt>
      <trkpt lat="41.657367677" lon="2.542859929">
        <ele>420.23</ele>
        <time>2014-08-17T08:46:02Z</time>
      </trkpt>
      <trkpt lat="41.657372204" lon="2.542787844">
        <ele>421.19</ele>
        <time>2014-08-17T08:46:04Z</time>
      </trkpt>
      <trkpt lat="41.657449485" lon="2.542441085">
        <ele>423.60</ele>
        <time>2014-08-17T08:46:13Z</time>
      </trkpt>
      <trkpt lat="41.657533807" lon="2.542222234">
        <ele>424.56</ele>
        <time>2014-08-17T08:46:20Z</time>
      </trkpt>
      <trkpt lat="41.657534813" lon="2.541978739">
        <ele>424.08</ele>
        <time>2014-08-17T08:46:26Z</time>
      </trkpt>
      <trkpt lat="41.657589211" lon="2.541751925">
        <ele>425.52</ele>
        <time>2014-08-17T08:46:33Z</time>
      </trkpt>
      <trkpt lat="41.657650148" lon="2.541573977">
        <ele>426.48</ele>
        <time>2014-08-17T08:46:39Z</time>
      </trkpt>
      <trkpt lat="41.657675126" lon="2.541477250">
        <ele>426.96</ele>
        <time>2014-08-17T08:46:42Z</time>
      </trkpt>
      <trkpt lat="41.657778139" lon="2.541460905">
        <ele>428.40</ele>
        <time>2014-08-17T08:46:48Z</time>
      </trkpt>
      <trkpt lat="41.657795993" lon="2.541463755">
        <ele>427.92</ele>
        <time>2014-08-17T08:46:49Z</time>
      </trkpt>
      <trkpt lat="41.657927253" lon="2.541511197">
        <ele>426.00</ele>
        <time>2014-08-17T08:46:52Z</time>
      </trkpt>
      <trkpt lat="41.658060777" lon="2.541578923">
        <ele>425.04</ele>
        <time>2014-08-17T08:46:55Z</time>
      </trkpt>
      <trkpt lat="41.658230594" lon="2.541715799">
        <ele>422.16</ele>
        <time>2014-08-17T08:46:58Z</time>
      </trkpt>
      <trkpt lat="41.658501246" lon="2.541947056">
        <ele>420.23</ele>
        <time>2014-08-17T08:47:03Z</time>
      </trkpt>
      <trkpt lat="41.658705513" lon="2.542120226">
        <ele>416.87</ele>
        <time>2014-08-17T08:47:08Z</time>
      </trkpt>
      <trkpt lat="41.658784387" lon="2.542036826">
        <ele>414.47</ele>
        <time>2014-08-17T08:47:11Z</time>
      </trkpt>
      <trkpt lat="41.658776508" lon="2.541894417">
        <ele>414.47</ele>
        <time>2014-08-17T08:47:14Z</time>
      </trkpt>
      <trkpt lat="41.658663855" lon="2.541528212">
        <ele>416.87</ele>
        <time>2014-08-17T08:47:23Z</time>
      </trkpt>
      <trkpt lat="41.658717248" lon="2.541322688">
        <ele>416.87</ele>
        <time>2014-08-17T08:47:28Z</time>
      </trkpt>
      <trkpt lat="41.658797882" lon="2.541122360">
        <ele>417.35</ele>
        <time>2014-08-17T08:47:34Z</time>
      </trkpt>
      <trkpt lat="41.658713308" lon="2.540929241">
        <ele>418.79</ele>
        <time>2014-08-17T08:47:40Z</time>
      </trkpt>
      <trkpt lat="41.658603002" lon="2.540723382">
        <ele>421.19</ele>
        <time>2014-08-17T08:47:48Z</time>
      </trkpt>
      <trkpt lat="41.658480124" lon="2.540521378">
        <ele>424.08</ele>
        <time>2014-08-17T08:47:56Z</time>
      </trkpt>
      <trkpt lat="41.658482890" lon="2.540345693">
        <ele>425.52</ele>
        <time>2014-08-17T08:48:02Z</time>
      </trkpt>
      <trkpt lat="41.658592441" lon="2.540207978">
        <ele>427.44</ele>
        <time>2014-08-17T08:48:09Z</time>
      </trkpt>
      <trkpt lat="41.658722361" lon="2.540068923">
        <ele>429.37</ele>
        <time>2014-08-17T08:48:17Z</time>
      </trkpt>
      <trkpt lat="41.658871139" lon="2.539876893">
        <ele>431.29</ele>
        <time>2014-08-17T08:48:26Z</time>
      </trkpt>
      <trkpt lat="41.658871894" lon="2.539716296">
        <ele>432.73</ele>
        <time>2014-08-17T08:48:32Z</time>
      </trkpt>
      <trkpt lat="41.658756391" lon="2.539667094">
        <ele>433.69</ele>
        <time>2014-08-17T08:48:38Z</time>
      </trkpt>
      <trkpt lat="41.658592441" lon="2.539658545">
        <ele>433.69</ele>
        <time>2014-08-17T08:48:43Z</time>
      </trkpt>
      <trkpt lat="41.658472831" lon="2.539513454">
        <ele>433.69</ele>
        <time>2014-08-17T08:48:48Z</time>
      </trkpt>
      <trkpt lat="41.658295051" lon="2.539472718">
        <ele>433.69</ele>
        <time>2014-08-17T08:48:54Z</time>
      </trkpt>
      <trkpt lat="41.658088186" lon="2.539373895">
        <ele>434.65</ele>
        <time>2014-08-17T08:49:02Z</time>
      </trkpt>
      <trkpt lat="41.658040409" lon="2.539332740">
        <ele>434.65</ele>
        <time>2014-08-17T08:49:04Z</time>
      </trkpt>
      <trkpt lat="41.658022136" lon="2.539164599">
        <ele>435.13</ele>
        <time>2014-08-17T08:49:09Z</time>
      </trkpt>
      <trkpt lat="41.658158175" lon="2.538940719">
        <ele>437.06</ele>
        <time>2014-08-17T08:49:18Z</time>
      </trkpt>
      <trkpt lat="41.658246520" lon="2.538822618">
        <ele>438.50</ele>
        <time>2014-08-17T08:49:24Z</time>
      </trkpt>
      <trkpt lat="41.658267559" lon="2.538590606">
        <ele>440.42</ele>
        <time>2014-08-17T08:49:32Z</time>
      </trkpt>
      <trkpt lat="41.658206035" lon="2.538346609">
        <ele>442.34</ele>
        <time>2014-08-17T08:49:40Z</time>
      </trkpt>
      <trkpt lat="41.658172340" lon="2.538138989">
        <ele>443.79</ele>
        <time>2014-08-17T08:49:47Z</time>
      </trkpt>
      <trkpt lat="41.658204108" lon="2.537882336">
        <ele>443.31</ele>
        <time>2014-08-17T08:49:54Z</time>
      </trkpt>
      <trkpt lat="41.658289603" lon="2.537631717">
        <ele>443.31</ele>
        <time>2014-08-17T08:50:02Z</time>
      </trkpt>
      <trkpt lat="41.658249286" lon="2.537432563">
        <ele>443.79</ele>
        <time>2014-08-17T08:50:09Z</time>
      </trkpt>
      <trkpt lat="41.658177537" lon="2.537213879">
        <ele>445.71</ele>
        <time>2014-08-17T08:50:17Z</time>
      </trkpt>
      <trkpt lat="41.658125821" lon="2.536994692">
        <ele>448.11</ele>
        <time>2014-08-17T08:50:25Z</time>
      </trkpt>
      <trkpt lat="41.658096316" lon="2.536752036">
        <ele>451.00</ele>
        <time>2014-08-17T08:50:33Z</time>
      </trkpt>
      <trkpt lat="41.658099837" lon="2.536550535">
        <ele>452.44</ele>
        <time>2014-08-17T08:50:41Z</time>
      </trkpt>
      <trkpt lat="41.658176615" lon="2.536412904">
        <ele>452.92</ele>
        <time>2014-08-17T08:50:48Z</time>
      </trkpt>
      <trkpt lat="41.658202431" lon="2.536384070">
        <ele>452.92</ele>
        <time>2014-08-17T08:50:49Z</time>
      </trkpt>
      <trkpt lat="41.658283316" lon="2.536193214">
        <ele>452.92</ele>
        <time>2014-08-17T08:50:53Z</time>
      </trkpt>
      <trkpt lat="41.658309971" lon="2.535902446">
        <ele>451.00</ele>
        <time>2014-08-17T08:51:00Z</time>
      </trkpt>
      <trkpt lat="41.658322544" lon="2.535875624">
        <ele>451.00</ele>
        <time>2014-08-17T08:51:05Z</time>
      </trkpt>
      <trkpt lat="41.658341738" lon="2.535876462">
        <ele>451.00</ele>
        <time>2014-08-17T08:51:16Z</time>
      </trkpt>
      <trkpt lat="41.658402172" lon="2.535936058">
        <ele>451.00</ele>
        <time>2014-08-17T08:51:21Z</time>
      </trkpt>
      <trkpt lat="41.658515076" lon="2.536002442">
        <ele>452.44</ele>
        <time>2014-08-17T08:51:26Z</time>
      </trkpt>
      <trkpt lat="41.658679278" lon="2.536080394">
        <ele>454.36</ele>
        <time>2014-08-17T08:51:34Z</time>
      </trkpt>
      <trkpt lat="41.658774999" lon="2.536125992">
        <ele>454.84</ele>
        <time>2014-08-17T08:51:40Z</time>
      </trkpt>
      <trkpt lat="41.658932746" lon="2.536181061">
        <ele>454.84</ele>
        <time>2014-08-17T08:51:47Z</time>
      </trkpt>
      <trkpt lat="41.659026875" lon="2.536254067">
        <ele>451.96</ele>
        <time>2014-08-17T08:51:50Z</time>
      </trkpt>
      <trkpt lat="41.659234160" lon="2.536443079">
        <ele>448.11</ele>
        <time>2014-08-17T08:51:56Z</time>
      </trkpt>
      <trkpt lat="41.659318398" lon="2.536593953">
        <ele>447.15</ele>
        <time>2014-08-17T08:51:59Z</time>
      </trkpt>
      <trkpt lat="41.659472206" lon="2.536720101">
        <ele>444.75</ele>
        <time>2014-08-17T08:52:03Z</time>
      </trkpt>
      <trkpt lat="41.659572202" lon="2.536767710">
        <ele>443.31</ele>
        <time>2014-08-17T08:52:06Z</time>
      </trkpt>
      <trkpt lat="41.659675634" lon="2.536946161">
        <ele>438.98</ele>
        <time>2014-08-17T08:52:13Z</time>
      </trkpt>
      <trkpt lat="41.659689213" lon="2.536993100">
        <ele>438.02</ele>
        <time>2014-08-17T08:52:14Z</time>
      </trkpt>
      <trkpt lat="41.659820558" lon="2.537121762">
        <ele>434.17</ele>
        <time>2014-08-17T08:52:19Z</time>
      </trkpt>
      <trkpt lat="41.659870430" lon="2.537152439">
        <ele>433.21</ele>
        <time>2014-08-17T08:52:21Z</time>
      </trkpt>
      <trkpt lat="41.659905215" lon="2.537164426">
        <ele>432.25</ele>
        <time>2014-08-17T08:52:22Z</time>
      </trkpt>
      <trkpt lat="41.660103698" lon="2.537296524">
        <ele>428.40</ele>
        <time>2014-08-17T08:52:27Z</time>
      </trkpt>
      <trkpt lat="41.660168658" lon="2.537352096">
        <ele>427.92</ele>
        <time>2014-08-17T08:52:29Z</time>
      </trkpt>
      <trkpt lat="41.660259685" lon="2.537354443">
        <ele>425.04</ele>
        <time>2014-08-17T08:52:33Z</time>
      </trkpt>
      <trkpt lat="41.660346522" lon="2.537369698">
        <ele>424.08</ele>
        <time>2014-08-17T08:52:39Z</time>
      </trkpt>
      <trkpt lat="41.660392455" lon="2.537389480">
        <ele>423.60</ele>
        <time>2014-08-17T08:52:46Z</time>
      </trkpt>
      <trkpt lat="41.660417265" lon="2.537438514">
        <ele>422.64</ele>
        <time>2014-08-17T08:52:54Z</time>
      </trkpt>
      <trkpt lat="41.660423971" lon="2.537451506">
        <ele>422.64</ele>
        <time>2014-08-17T08:52:56Z</time>
      </trkpt>
      <trkpt lat="41.660462108" lon="2.537531469">
        <ele>420.23</ele>
        <time>2014-08-17T08:53:00Z</time>
      </trkpt>
      <trkpt lat="41.660471496" lon="2.537537001">
        <ele>419.75</ele>
        <time>2014-08-17T08:53:01Z</time>
      </trkpt>
      <trkpt lat="41.660507203" lon="2.537520154">
        <ele>419.27</ele>
        <time>2014-08-17T08:53:04Z</time>
      </trkpt>
      <trkpt lat="41.660570319" lon="2.537499618">
        <ele>417.35</ele>
        <time>2014-08-17T08:53:11Z</time>
      </trkpt>
      <trkpt lat="41.660650617" lon="2.537383445">
        <ele>413.98</ele>
        <time>2014-08-17T08:53:18Z</time>
      </trkpt>
      <trkpt lat="41.660685989" lon="2.537271043">
        <ele>411.58</ele>
        <time>2014-08-17T08:53:23Z</time>
      </trkpt>
      <trkpt lat="41.660710213" lon="2.537045403">
        <ele>408.70</ele>
        <time>2014-08-17T08:53:29Z</time>
      </trkpt>
      <trkpt lat="41.660784057" lon="2.536965607">
        <ele>408.70</ele>
        <time>2014-08-17T08:53:37Z</time>
      </trkpt>
      <trkpt lat="41.660790260" lon="2.536951861">
        <ele>408.70</ele>
        <time>2014-08-17T08:53:41Z</time>
      </trkpt>
      <trkpt lat="41.660861758" lon="2.536839459">
        <ele>406.77</ele>
        <time>2014-08-17T08:53:46Z</time>
      </trkpt>
      <trkpt lat="41.660972147" lon="2.536649944">
        <ele>403.89</ele>
        <time>2014-08-17T08:53:50Z</time>
      </trkpt>
      <trkpt lat="41.661166943" lon="2.536439559">
        <ele>401.01</ele>
        <time>2014-08-17T08:53:55Z</time>
      </trkpt>
      <trkpt lat="41.661343466" lon="2.536469985">
        <ele>399.57</ele>
        <time>2014-08-17T08:53:59Z</time>
      </trkpt>
      <trkpt lat="41.661391913" lon="2.536357751">
        <ele>399.08</ele>
        <time>2014-08-17T08:54:02Z</time>
      </trkpt>
      <trkpt lat="41.661383363" lon="2.536042676">
        <ele>398.12</ele>
        <time>2014-08-17T08:54:08Z</time>
      </trkpt>
      <trkpt lat="41.661393422" lon="2.535712429">
        <ele>395.24</ele>
        <time>2014-08-17T08:54:13Z</time>
      </trkpt>
      <trkpt lat="41.661588636" lon="2.535301464">
        <ele>395.72</ele>
        <time>2014-08-17T08:54:22Z</time>
      </trkpt>
      <trkpt lat="41.661638089" lon="2.535229296">
        <ele>397.16</ele>
        <time>2014-08-17T08:54:25Z</time>
      </trkpt>
      <trkpt lat="41.661741522" lon="2.535196690">
        <ele>397.64</ele>
        <time>2014-08-17T08:54:29Z</time>
      </trkpt>
      <trkpt lat="41.661914189" lon="2.535404980">
        <ele>396.68</ele>
        <time>2014-08-17T08:54:37Z</time>
      </trkpt>
      <trkpt lat="41.662035224" lon="2.535496595">
        <ele>396.68</ele>
        <time>2014-08-17T08:54:44Z</time>
      </trkpt>
      <trkpt lat="41.662105883" lon="2.535535403">
        <ele>396.68</ele>
        <time>2014-08-17T08:54:48Z</time>
      </trkpt>
      <trkpt lat="41.662200934" lon="2.535434568">
        <ele>396.68</ele>
        <time>2014-08-17T08:54:54Z</time>
      </trkpt>
      <trkpt lat="41.662311994" lon="2.535185877">
        <ele>397.64</ele>
        <time>2014-08-17T08:55:02Z</time>
      </trkpt>
      <trkpt lat="41.662428922" lon="2.535107255">
        <ele>399.08</ele>
        <time>2014-08-17T08:55:07Z</time>
      </trkpt>
      <trkpt lat="41.662597734" lon="2.535122175">
        <ele>401.97</ele>
        <time>2014-08-17T08:55:15Z</time>
      </trkpt>
      <trkpt lat="41.662735700" lon="2.535100382">
        <ele>404.37</ele>
        <time>2014-08-17T08:55:22Z</time>
      </trkpt>
      <trkpt lat="41.662885568" lon="2.535234409">
        <ele>404.37</ele>
        <time>2014-08-17T08:55:29Z</time>
      </trkpt>
      <trkpt lat="41.663009117" lon="2.535396431">
        <ele>404.37</ele>
        <time>2014-08-17T08:55:36Z</time>
      </trkpt>
      <trkpt lat="41.663106012" lon="2.535552334">
        <ele>404.85</ele>
        <time>2014-08-17T08:55:44Z</time>
      </trkpt>
      <trkpt lat="41.663157142" lon="2.535599357">
        <ele>404.85</ele>
        <time>2014-08-17T08:55:52Z</time>
      </trkpt>
      <trkpt lat="41.663163177" lon="2.535598938">
        <ele>405.33</ele>
        <time>2014-08-17T08:56:06Z</time>
      </trkpt>
      <trkpt lat="41.663156304" lon="2.535603883">
        <ele>405.33</ele>
        <time>2014-08-17T08:56:14Z</time>
      </trkpt>
      <trkpt lat="41.663148676" lon="2.535586532">
        <ele>405.33</ele>
        <time>2014-08-17T08:56:17Z</time>
      </trkpt>
      <trkpt lat="41.663041891" lon="2.535421660">
        <ele>405.33</ele>
        <time>2014-08-17T08:56:25Z</time>
      </trkpt>
      <trkpt lat="41.662920940" lon="2.535210772">
        <ele>405.33</ele>
        <time>2014-08-17T08:56:32Z</time>
      </trkpt>
      <trkpt lat="41.662831086" lon="2.535092503">
        <ele>405.33</ele>
        <time>2014-08-17T08:56:38Z</time>
      </trkpt>
      <trkpt lat="41.662818597" lon="2.535096526">
        <ele>405.33</ele>
        <time>2014-08-17T08:56:45Z</time>
      </trkpt>
      <trkpt lat="41.662830331" lon="2.535107674">
        <ele>405.33</ele>
        <time>2014-08-17T08:56:47Z</time>
      </trkpt>
      <trkpt lat="41.662913396" lon="2.535208592">
        <ele>405.33</ele>
        <time>2014-08-17T08:56:53Z</time>
      </trkpt>
      <trkpt lat="41.663027809" lon="2.535412273">
        <ele>405.33</ele>
        <time>2014-08-17T08:57:03Z</time>
      </trkpt>
      <trkpt lat="41.663169715" lon="2.535636488">
        <ele>405.33</ele>
        <time>2014-08-17T08:57:12Z</time>
      </trkpt>
      <trkpt lat="41.663306423" lon="2.535835307">
        <ele>406.29</ele>
        <time>2014-08-17T08:57:20Z</time>
      </trkpt>
      <trkpt lat="41.663426201" lon="2.536022727">
        <ele>408.22</ele>
        <time>2014-08-17T08:57:29Z</time>
      </trkpt>
      <trkpt lat="41.663483784" lon="2.536191035">
        <ele>409.66</ele>
        <time>2014-08-17T08:57:36Z</time>
      </trkpt>
      <trkpt lat="41.663633988" lon="2.536451126">
        <ele>411.10</ele>
        <time>2014-08-17T08:57:46Z</time>
      </trkpt>
      <trkpt lat="41.663754771" lon="2.536622033">
        <ele>412.06</ele>
        <time>2014-08-17T08:57:53Z</time>
      </trkpt>
      <trkpt lat="41.663889720" lon="2.536544249">
        <ele>413.02</ele>
        <time>2014-08-17T08:57:59Z</time>
      </trkpt>
      <trkpt lat="41.663981334" lon="2.536432015">
        <ele>414.95</ele>
        <time>2014-08-17T08:58:04Z</time>
      </trkpt>
      <trkpt lat="41.664097843" lon="2.536510386">
        <ele>415.91</ele>
        <time>2014-08-17T08:58:09Z</time>
      </trkpt>
      <trkpt lat="41.664277635" lon="2.536780451">
        <ele>415.91</ele>
        <time>2014-08-17T08:58:17Z</time>
      </trkpt>
      <trkpt lat="41.664305965" lon="2.537018161">
        <ele>415.91</ele>
        <time>2014-08-17T08:58:22Z</time>
      </trkpt>
      <trkpt lat="41.664416858" lon="2.537440274">
        <ele>413.98</ele>
        <time>2014-08-17T08:58:30Z</time>
      </trkpt>
      <trkpt lat="41.664518111" lon="2.537795248">
        <ele>413.50</ele>
        <time>2014-08-17T08:58:36Z</time>
      </trkpt>
      <trkpt lat="41.664578042" lon="2.538036898">
        <ele>413.50</ele>
        <time>2014-08-17T08:58:40Z</time>
      </trkpt>
      <trkpt lat="41.664626657" lon="2.538146785">
        <ele>413.02</ele>
        <time>2014-08-17T08:58:42Z</time>
      </trkpt>
      <trkpt lat="41.664667812" lon="2.538256588">
        <ele>412.54</ele>
        <time>2014-08-17T08:58:44Z</time>
      </trkpt>
      <trkpt lat="41.664671584" lon="2.538568813">
        <ele>412.54</ele>
        <time>2014-08-17T08:58:50Z</time>
      </trkpt>
      <trkpt lat="41.664718942" lon="2.538624050">
        <ele>412.54</ele>
        <time>2014-08-17T08:58:52Z</time>
      </trkpt>
      <trkpt lat="41.664882137" lon="2.538800741">
        <ele>412.54</ele>
        <time>2014-08-17T08:58:58Z</time>
      </trkpt>
      <trkpt lat="41.664906780" lon="2.538978856">
        <ele>412.06</ele>
        <time>2014-08-17T08:59:01Z</time>
      </trkpt>
      <trkpt lat="41.664890184" lon="2.539280856">
        <ele>411.58</ele>
        <time>2014-08-17T08:59:06Z</time>
      </trkpt>
      <trkpt lat="41.665051200" lon="2.539430222">
        <ele>411.10</ele>
        <time>2014-08-17T08:59:11Z</time>
      </trkpt>
      <trkpt lat="41.665168212" lon="2.539459810">
        <ele>409.66</ele>
        <time>2014-08-17T08:59:13Z</time>
      </trkpt>
      <trkpt lat="41.665303831" lon="2.539508006">
        <ele>409.18</ele>
        <time>2014-08-17T08:59:15Z</time>
      </trkpt>
      <trkpt lat="41.665626367" lon="2.539466599">
        <ele>407.26</ele>
        <time>2014-08-17T08:59:20Z</time>
      </trkpt>
      <trkpt lat="41.665871453" lon="2.539296782">
        <ele>405.33</ele>
        <time>2014-08-17T08:59:26Z</time>
      </trkpt>
      <trkpt lat="41.666083935" lon="2.539361909">
        <ele>403.41</ele>
        <time>2014-08-17T08:59:31Z</time>
      </trkpt>
      <trkpt lat="41.666229361" lon="2.539405411">
        <ele>401.01</ele>
        <time>2014-08-17T08:59:35Z</time>
      </trkpt>
      <trkpt lat="41.666367075" lon="2.539370375">
        <ele>400.53</ele>
        <time>2014-08-17T08:59:40Z</time>
      </trkpt>
      <trkpt lat="41.666433041" lon="2.539357551">
        <ele>401.97</ele>
        <time>2014-08-17T08:59:43Z</time>
      </trkpt>
      <trkpt lat="41.666595398" lon="2.539394431">
        <ele>404.37</ele>
        <time>2014-08-17T08:59:50Z</time>
      </trkpt>
      <trkpt lat="41.666677038" lon="2.539434161">
        <ele>405.81</ele>
        <time>2014-08-17T08:59:55Z</time>
      </trkpt>
      <trkpt lat="41.666819698" lon="2.539399125">
        <ele>406.77</ele>
        <time>2014-08-17T09:00:02Z</time>
      </trkpt>
      <trkpt lat="41.666928831" lon="2.539305415">
        <ele>407.26</ele>
        <time>2014-08-17T09:00:08Z</time>
      </trkpt>
      <trkpt lat="41.667063109" lon="2.539217405">
        <ele>408.70</ele>
        <time>2014-08-17T09:00:15Z</time>
      </trkpt>
      <trkpt lat="41.667206942" lon="2.539117241">
        <ele>410.14</ele>
        <time>2014-08-17T09:00:22Z</time>
      </trkpt>
      <trkpt lat="41.667332754" lon="2.538978018">
        <ele>411.58</ele>
        <time>2014-08-17T09:00:29Z</time>
      </trkpt>
      <trkpt lat="41.667407018" lon="2.538838375">
        <ele>412.06</ele>
        <time>2014-08-17T09:00:35Z</time>
      </trkpt>
      <trkpt lat="41.667520761" lon="2.538743157">
        <ele>413.50</ele>
        <time>2014-08-17T09:00:42Z</time>
      </trkpt>
      <trkpt lat="41.667648752" lon="2.538672246">
        <ele>414.47</ele>
        <time>2014-08-17T09:00:48Z</time>
      </trkpt>
      <trkpt lat="41.667776157" lon="2.538586583">
        <ele>416.39</ele>
        <time>2014-08-17T09:00:55Z</time>
      </trkpt>
      <trkpt lat="41.667925690" lon="2.538501758">
        <ele>418.31</ele>
        <time>2014-08-17T09:01:03Z</time>
      </trkpt>
      <trkpt lat="41.668089556" lon="2.538440906">
        <ele>420.23</ele>
        <time>2014-08-17T09:01:11Z</time>
      </trkpt>
      <trkpt lat="41.668257530" lon="2.538415508">
        <ele>421.68</ele>
        <time>2014-08-17T09:01:20Z</time>
      </trkpt>
      <trkpt lat="41.668389210" lon="2.538423974">
        <ele>422.64</ele>
        <time>2014-08-17T09:01:27Z</time>
      </trkpt>
      <trkpt lat="41.668498258" lon="2.538414503">
        <ele>423.12</ele>
        <time>2014-08-17T09:01:33Z</time>
      </trkpt>
      <trkpt lat="41.668639409" lon="2.538424393">
        <ele>423.12</ele>
        <time>2014-08-17T09:01:39Z</time>
      </trkpt>
      <trkpt lat="41.668710572" lon="2.538436966">
        <ele>421.68</ele>
        <time>2014-08-17T09:01:42Z</time>
      </trkpt>
      <trkpt lat="41.668895225" lon="2.538375275">
        <ele>420.23</ele>
        <time>2014-08-17T09:01:47Z</time>
      </trkpt>
      <trkpt lat="41.668983403" lon="2.538405283">
        <ele>419.75</ele>
        <time>2014-08-17T09:01:49Z</time>
      </trkpt>
      <trkpt lat="41.669196890" lon="2.538572585">
        <ele>419.75</ele>
        <time>2014-08-17T09:01:56Z</time>
      </trkpt>
      <trkpt lat="41.669345333" lon="2.538798981">
        <ele>419.27</ele>
        <time>2014-08-17T09:02:04Z</time>
      </trkpt>
      <trkpt lat="41.669310716" lon="2.539026382">
        <ele>417.83</ele>
        <time>2014-08-17T09:02:09Z</time>
      </trkpt>
      <trkpt lat="41.669324043" lon="2.539156888">
        <ele>416.87</ele>
        <time>2014-08-17T09:02:12Z</time>
      </trkpt>
      <trkpt lat="41.669493944" lon="2.539258309">
        <ele>415.43</ele>
        <time>2014-08-17T09:02:17Z</time>
      </trkpt>
      <trkpt lat="41.669711287" lon="2.539468527">
        <ele>412.06</ele>
        <time>2014-08-17T09:02:23Z</time>
      </trkpt>
      <trkpt lat="41.669837854" lon="2.539472215">
        <ele>410.62</ele>
        <time>2014-08-17T09:02:27Z</time>
      </trkpt>
      <trkpt lat="41.669864508" lon="2.539437514">
        <ele>410.14</ele>
        <time>2014-08-17T09:02:28Z</time>
      </trkpt>
      <trkpt lat="41.669922092" lon="2.539351516">
        <ele>409.66</ele>
        <time>2014-08-17T09:02:30Z</time>
      </trkpt>
      <trkpt lat="41.669976910" lon="2.539267361">
        <ele>408.22</ele>
        <time>2014-08-17T09:02:32Z</time>
      </trkpt>
      <trkpt lat="41.670054945" lon="2.539209778">
        <ele>407.30</ele>
        <time>2014-08-17T09:02:34Z</time>
      </trkpt>
      <trkpt lat="41.670127532" lon="2.539169880">
        <ele>405.80</ele>
        <time>2014-08-17T09:02:36Z</time>
      </trkpt>
      <trkpt lat="41.670231636" lon="2.539153535">
        <ele>405.30</ele>
        <time>2014-08-17T09:02:38Z</time>
      </trkpt>
      <trkpt lat="41.670345127" lon="2.539232493">
        <ele>405.30</ele>
        <time>2014-08-17T09:02:41Z</time>
      </trkpt>
      <trkpt lat="41.670441686" lon="2.539388061">
        <ele>408.70</ele>
        <time>2014-08-17T09:02:48Z</time>
      </trkpt>
      <trkpt lat="41.670522991" lon="2.539499289">
        <ele>412.10</ele>
        <time>2014-08-17T09:02:54Z</time>
      </trkpt>
      <trkpt lat="41.670593063" lon="2.539624849">
        <ele>414.50</ele>
        <time>2014-08-17T09:03:01Z</time>
      </trkpt>
      <trkpt lat="41.670656682" lon="2.539786955">
        <ele>416.90</ele>
        <time>2014-08-17T09:03:09Z</time>
      </trkpt>
      <trkpt lat="41.670755169" lon="2.539888796">
        <ele>417.40</ele>
        <time>2014-08-17T09:03:16Z</time>
      </trkpt>
      <trkpt lat="41.670934877" lon="2.539931795">
        <ele>417.40</ele>
        <time>2014-08-17T09:03:24Z</time>
      </trkpt>
      <trkpt lat="41.671179880" lon="2.539945038">
        <ele>415.00</ele>
        <time>2014-08-17T09:03:32Z</time>
      </trkpt>
      <trkpt lat="41.671282642" lon="2.539896088">
        <ele>414.00</ele>
        <time>2014-08-17T09:03:35Z</time>
      </trkpt>
      <trkpt lat="41.671521191" lon="2.539734233">
        <ele>413.00</ele>
        <time>2014-08-17T09:03:42Z</time>
      </trkpt>
      <trkpt lat="41.671563101" lon="2.539729372">
        <ele>414.00</ele>
        <time>2014-08-17T09:03:44Z</time>
      </trkpt>
      <trkpt lat="41.671740211" lon="2.539821070">
        <ele>415.00</ele>
        <time>2014-08-17T09:03:51Z</time>
      </trkpt>
      <trkpt lat="41.671972641" lon="2.540024415">
        <ele>415.40</ele>
        <time>2014-08-17T09:04:01Z</time>
      </trkpt>
      <trkpt lat="41.672200042" lon="2.540109659">
        <ele>416.40</ele>
        <time>2014-08-17T09:04:10Z</time>
      </trkpt>
      <trkpt lat="41.672388970" lon="2.540070934">
        <ele>416.90</ele>
        <time>2014-08-17T09:04:18Z</time>
      </trkpt>
      <trkpt lat="41.672641936" lon="2.540042017">
        <ele>416.90</ele>
        <time>2014-08-17T09:04:25Z</time>
      </trkpt>
      <trkpt lat="41.672725168" lon="2.539977392">
        <ele>415.40</ele>
        <time>2014-08-17T09:04:28Z</time>
      </trkpt>
      <trkpt lat="41.672885262" lon="2.539717386">
        <ele>412.50</ele>
        <time>2014-08-17T09:04:36Z</time>
      </trkpt>
      <trkpt lat="41.672916862" lon="2.539554693">
        <ele>411.60</ele>
        <time>2014-08-17T09:04:39Z</time>
      </trkpt>
      <trkpt lat="41.672899512" lon="2.539355287">
        <ele>410.10</ele>
        <time>2014-08-17T09:04:43Z</time>
      </trkpt>
      <trkpt lat="41.672813346" lon="2.539111123">
        <ele>408.20</ele>
        <time>2014-08-17T09:04:48Z</time>
      </trkpt>
      <trkpt lat="41.672757187" lon="2.538979191">
        <ele>406.80</ele>
        <time>2014-08-17T09:04:51Z</time>
      </trkpt>
      <trkpt lat="41.672739585" lon="2.538934684">
        <ele>405.80</ele>
        <time>2014-08-17T09:04:52Z</time>
      </trkpt>
      <trkpt lat="41.672734388" lon="2.538659087">
        <ele>402.90</ele>
        <time>2014-08-17T09:04:57Z</time>
      </trkpt>
      <trkpt lat="41.672732125" lon="2.538613238">
        <ele>402.90</ele>
        <time>2014-08-17T09:04:58Z</time>
      </trkpt>
      <trkpt lat="41.672697592" lon="2.538491616">
        <ele>401.50</ele>
        <time>2014-08-17T09:05:01Z</time>
      </trkpt>
      <trkpt lat="41.672762635" lon="2.538314674">
        <ele>400.50</ele>
        <time>2014-08-17T09:05:05Z</time>
      </trkpt>
      <trkpt lat="41.672874114" lon="2.538247032">
        <ele>400.50</ele>
        <time>2014-08-17T09:05:08Z</time>
      </trkpt>
      <trkpt lat="41.673185251" lon="2.538032623">
        <ele>399.60</ele>
        <time>2014-08-17T09:05:16Z</time>
      </trkpt>
      <trkpt lat="41.673216096" lon="2.537876468">
        <ele>399.60</ele>
        <time>2014-08-17T09:05:20Z</time>
      </trkpt>
      <trkpt lat="41.673147532" lon="2.537717799">
        <ele>399.60</ele>
        <time>2014-08-17T09:05:25Z</time>
      </trkpt>
      <trkpt lat="41.673211486" lon="2.537629370">
        <ele>399.10</ele>
        <time>2014-08-17T09:05:29Z</time>
      </trkpt>
      <trkpt lat="41.673424722" lon="2.537449997">
        <ele>398.10</ele>
        <time>2014-08-17T09:05:36Z</time>
      </trkpt>
      <trkpt lat="41.673404102" lon="2.537284957">
        <ele>398.10</ele>
        <time>2014-08-17T09:05:41Z</time>
      </trkpt>
      <trkpt lat="41.673277703" lon="2.537033584">
        <ele>398.10</ele>
        <time>2014-08-17T09:05:49Z</time>
      </trkpt>
      <trkpt lat="41.673241493" lon="2.536823869">
        <ele>398.10</ele>
        <time>2014-08-17T09:05:55Z</time>
      </trkpt>
      <trkpt lat="41.673374766" lon="2.536675509">
        <ele>399.60</ele>
        <time>2014-08-17T09:06:02Z</time>
      </trkpt>
      <trkpt lat="41.673485658" lon="2.536520947">
        <ele>400.10</ele>
        <time>2014-08-17T09:06:08Z</time>
      </trkpt>
      <trkpt lat="41.673639298" lon="2.536414664">
        <ele>401.50</ele>
        <time>2014-08-17T09:06:15Z</time>
      </trkpt>
      <trkpt lat="41.673772152" lon="2.536218025">
        <ele>402.90</ele>
        <time>2014-08-17T09:06:23Z</time>
      </trkpt>
      <trkpt lat="41.673794364" lon="2.536161447">
        <ele>403.40</ele>
        <time>2014-08-17T09:06:25Z</time>
      </trkpt>
      <trkpt lat="41.673781036" lon="2.535882330">
        <ele>403.40</ele>
        <time>2014-08-17T09:06:33Z</time>
      </trkpt>
      <trkpt lat="41.673750694" lon="2.535732126">
        <ele>403.90</ele>
        <time>2014-08-17T09:06:38Z</time>
      </trkpt>
      <trkpt lat="41.673697888" lon="2.535556022">
        <ele>403.90</ele>
        <time>2014-08-17T09:06:44Z</time>
      </trkpt>
      <trkpt lat="41.673766787" lon="2.535503300">
        <ele>403.90</ele>
        <time>2014-08-17T09:06:48Z</time>
      </trkpt>
      <trkpt lat="41.674003324" lon="2.535512185">
        <ele>404.90</ele>
        <time>2014-08-17T09:06:57Z</time>
      </trkpt>
      <trkpt lat="41.674269785" lon="2.535621150">
        <ele>405.30</ele>
        <time>2014-08-17T09:07:06Z</time>
      </trkpt>
      <trkpt lat="41.674443123" lon="2.535642272">
        <ele>406.30</ele>
        <time>2014-08-17T09:07:13Z</time>
      </trkpt>
      <trkpt lat="41.674579832" lon="2.535421828">
        <ele>404.90</ele>
        <time>2014-08-17T09:07:19Z</time>
      </trkpt>
      <trkpt lat="41.674664573" lon="2.535135670">
        <ele>402.50</ele>
        <time>2014-08-17T09:07:25Z</time>
      </trkpt>
      <trkpt lat="41.674658705" lon="2.535088731">
        <ele>402.00</ele>
        <time>2014-08-17T09:07:26Z</time>
      </trkpt>
      <trkpt lat="41.674594584" lon="2.534863761">
        <ele>400.50</ele>
        <time>2014-08-17T09:07:30Z</time>
      </trkpt>
      <trkpt lat="41.674588297" lon="2.534572490">
        <ele>399.10</ele>
        <time>2014-08-17T09:07:35Z</time>
      </trkpt>
      <trkpt lat="41.674680247" lon="2.534314243">
        <ele>396.70</ele>
        <time>2014-08-17T09:07:39Z</time>
      </trkpt>
      <trkpt lat="41.674728527" lon="2.534163620">
        <ele>395.70</ele>
        <time>2014-08-17T09:07:41Z</time>
      </trkpt>
      <trkpt lat="41.674896835" lon="2.533823734">
        <ele>391.90</ele>
        <time>2014-08-17T09:07:46Z</time>
      </trkpt>
      <trkpt lat="41.674989120" lon="2.533568505">
        <ele>389.00</ele>
        <time>2014-08-17T09:07:51Z</time>
      </trkpt>
      <trkpt lat="41.674913599" lon="2.533309169">
        <ele>387.10</ele>
        <time>2014-08-17T09:07:56Z</time>
      </trkpt>
      <trkpt lat="41.674736909" lon="2.532919327">
        <ele>384.20</ele>
        <time>2014-08-17T09:08:02Z</time>
      </trkpt>
      <trkpt lat="41.674660382" lon="2.532746576">
        <ele>382.70</ele>
        <time>2014-08-17T09:08:05Z</time>
      </trkpt>
      <trkpt lat="41.674624591" lon="2.532662086">
        <ele>380.80</ele>
        <time>2014-08-17T09:08:07Z</time>
      </trkpt>
      <trkpt lat="41.674427449" lon="2.532520181">
        <ele>380.30</ele>
        <time>2014-08-17T09:08:12Z</time>
      </trkpt>
      <trkpt lat="41.674259140" lon="2.532355979">
        <ele>380.30</ele>
        <time>2014-08-17T09:08:18Z</time>
      </trkpt>
      <trkpt lat="41.674284453" lon="2.532115754">
        <ele>379.40</ele>
        <time>2014-08-17T09:08:23Z</time>
      </trkpt>
      <trkpt lat="41.674511268" lon="2.531960772">
        <ele>378.40</ele>
        <time>2014-08-17T09:08:28Z</time>
      </trkpt>
      <trkpt lat="41.674552926" lon="2.531905703">
        <ele>377.90</ele>
        <time>2014-08-17T09:08:29Z</time>
      </trkpt>
      <trkpt lat="41.674676307" lon="2.531739909">
        <ele>377.90</ele>
        <time>2014-08-17T09:08:32Z</time>
      </trkpt>
      <trkpt lat="41.674927597" lon="2.531619461">
        <ele>377.50</ele>
        <time>2014-08-17T09:08:37Z</time>
      </trkpt>
      <trkpt lat="41.675015188" lon="2.531549975">
        <ele>377.50</ele>
        <time>2014-08-17T09:08:39Z</time>
      </trkpt>
      <trkpt lat="41.675240158" lon="2.531410165">
        <ele>375.50</ele>
        <time>2014-08-17T09:08:44Z</time>
      </trkpt>
      <trkpt lat="41.675338310" lon="2.531396922">
        <ele>375.10</ele>
        <time>2014-08-17T09:08:46Z</time>
      </trkpt>
      <trkpt lat="41.675482144" lon="2.531347888">
        <ele>373.60</ele>
        <time>2014-08-17T09:08:49Z</time>
      </trkpt>
      <trkpt lat="41.675573339" lon="2.531263314">
        <ele>371.70</ele>
        <time>2014-08-17T09:08:51Z</time>
      </trkpt>
      <trkpt lat="41.675787413" lon="2.531114703">
        <ele>369.30</ele>
        <time>2014-08-17T09:08:56Z</time>
      </trkpt>
      <trkpt lat="41.675941723" lon="2.530969445">
        <ele>366.40</ele>
        <time>2014-08-17T09:09:00Z</time>
      </trkpt>
      <trkpt lat="41.676030907" lon="2.530802393">
        <ele>364.50</ele>
        <time>2014-08-17T09:09:03Z</time>
      </trkpt>
      <trkpt lat="41.676150349" lon="2.530556301">
        <ele>363.00</ele>
        <time>2014-08-17T09:09:08Z</time>
      </trkpt>
      <trkpt lat="41.676263756" lon="2.530660404">
        <ele>363.00</ele>
        <time>2014-08-17T09:09:12Z</time>
      </trkpt>
      <trkpt lat="41.676404321" lon="2.530876741">
        <ele>363.50</ele>
        <time>2014-08-17T09:09:17Z</time>
      </trkpt>
      <trkpt lat="41.676567516" lon="2.531048905">
        <ele>362.10</ele>
        <time>2014-08-17T09:09:21Z</time>
      </trkpt>
      <trkpt lat="41.676654353" lon="2.531310002">
        <ele>361.60</ele>
        <time>2014-08-17T09:09:25Z</time>
      </trkpt>
      <trkpt lat="41.676785278" lon="2.531431371">
        <ele>361.60</ele>
        <time>2014-08-17T09:09:29Z</time>
      </trkpt>
      <trkpt lat="41.676854932" lon="2.531405723">
        <ele>361.60</ele>
        <time>2014-08-17T09:09:31Z</time>
      </trkpt>
      <trkpt lat="41.676969764" lon="2.531331208">
        <ele>361.60</ele>
        <time>2014-08-17T09:09:34Z</time>
      </trkpt>
      <trkpt lat="41.677174366" lon="2.531411255">
        <ele>361.60</ele>
        <time>2014-08-17T09:09:39Z</time>
      </trkpt>
      <trkpt lat="41.677323899" lon="2.531529188">
        <ele>363.50</ele>
        <time>2014-08-17T09:09:44Z</time>
      </trkpt>
      <trkpt lat="41.677437474" lon="2.531527344">
        <ele>360.60</ele>
        <time>2014-08-17T09:09:48Z</time>
      </trkpt>
      <trkpt lat="41.677499165" lon="2.531454673">
        <ele>358.70</ele>
        <time>2014-08-17T09:09:51Z</time>
      </trkpt>
      <trkpt lat="41.677613242" lon="2.531204976">
        <ele>354.40</ele>
        <time>2014-08-17T09:09:57Z</time>
      </trkpt>
      <trkpt lat="41.677775768" lon="2.531006241">
        <ele>350.10</ele>
        <time>2014-08-17T09:10:01Z</time>
      </trkpt>
      <trkpt lat="41.677826897" lon="2.530962069">
        <ele>349.60</ele>
        <time>2014-08-17T09:10:02Z</time>
      </trkpt>
      <trkpt lat="41.677960086" lon="2.530843130">
        <ele>347.20</ele>
        <time>2014-08-17T09:10:05Z</time>
      </trkpt>
      <trkpt lat="41.678166867" lon="2.530794598">
        <ele>346.70</ele>
        <time>2014-08-17T09:10:10Z</time>
      </trkpt>
      <trkpt lat="41.678308773" lon="2.530615728">
        <ele>345.30</ele>
        <time>2014-08-17T09:10:15Z</time>
      </trkpt>
      <trkpt lat="41.678312545" lon="2.530569628">
        <ele>345.30</ele>
        <time>2014-08-17T09:10:16Z</time>
      </trkpt>
      <trkpt lat="41.678303911" lon="2.530235022">
        <ele>345.30</ele>
        <time>2014-08-17T09:10:24Z</time>
      </trkpt>
      <trkpt lat="41.678246747" lon="2.530114574">
        <ele>346.70</ele>
        <time>2014-08-17T09:10:28Z</time>
      </trkpt>
      <trkpt lat="41.678088915" lon="2.529974261">
        <ele>348.60</ele>
        <time>2014-08-17T09:10:35Z</time>
      </trkpt>
      <trkpt lat="41.677973916" lon="2.529841408">
        <ele>350.10</ele>
        <time>2014-08-17T09:10:40Z</time>
      </trkpt>
      <trkpt lat="41.677755902" lon="2.529556256">
        <ele>350.50</ele>
        <time>2014-08-17T09:10:49Z</time>
      </trkpt>
      <trkpt lat="41.677646854" lon="2.529433042">
        <ele>350.50</ele>
        <time>2014-08-17T09:10:53Z</time>
      </trkpt>
      <trkpt lat="41.677477791" lon="2.529297339">
        <ele>350.50</ele>
        <time>2014-08-17T09:10:58Z</time>
      </trkpt>
      <trkpt lat="41.677318451" lon="2.529037500">
        <ele>350.50</ele>
        <time>2014-08-17T09:11:04Z</time>
      </trkpt>
      <trkpt lat="41.677296658" lon="2.529007744">
        <ele>350.50</ele>
        <time>2014-08-17T09:11:05Z</time>
      </trkpt>
      <trkpt lat="41.677125835" lon="2.528779002">
        <ele>351.00</ele>
        <time>2014-08-17T09:11:12Z</time>
      </trkpt>
      <trkpt lat="41.677218287" lon="2.528600468">
        <ele>351.00</ele>
        <time>2014-08-17T09:11:17Z</time>
      </trkpt>
      <trkpt lat="41.677279391" lon="2.528503405">
        <ele>351.50</ele>
        <time>2014-08-17T09:11:20Z</time>
      </trkpt>
      <trkpt lat="41.677319457" lon="2.528424867">
        <ele>351.50</ele>
        <time>2014-08-17T09:11:22Z</time>
      </trkpt>
      <trkpt lat="41.677527412" lon="2.528370636">
        <ele>351.50</ele>
        <time>2014-08-17T09:11:27Z</time>
      </trkpt>
      <trkpt lat="41.677588013" lon="2.528383376">
        <ele>349.60</ele>
        <time>2014-08-17T09:11:28Z</time>
      </trkpt>
      <trkpt lat="41.677759842" lon="2.528430650">
        <ele>347.70</ele>
        <time>2014-08-17T09:11:31Z</time>
      </trkpt>
      <trkpt lat="41.677870315" lon="2.528450515">
        <ele>347.20</ele>
        <time>2014-08-17T09:11:33Z</time>
      </trkpt>
      <trkpt lat="41.678049688" lon="2.528400811">
        <ele>344.80</ele>
        <time>2014-08-17T09:11:36Z</time>
      </trkpt>
      <trkpt lat="41.678171896" lon="2.528342137">
        <ele>344.30</ele>
        <time>2014-08-17T09:11:38Z</time>
      </trkpt>
      <trkpt lat="41.678300559" lon="2.528248763">
        <ele>342.90</ele>
        <time>2014-08-17T09:11:40Z</time>
      </trkpt>
      <trkpt lat="41.678481021" lon="2.527952211">
        <ele>341.40</ele>
        <time>2014-08-17T09:11:44Z</time>
      </trkpt>
      <trkpt lat="41.678519075" lon="2.527873924">
        <ele>341.40</ele>
        <time>2014-08-17T09:11:45Z</time>
      </trkpt>
      <trkpt lat="41.678576994" lon="2.527511407">
        <ele>339.00</ele>
        <time>2014-08-17T09:11:50Z</time>
      </trkpt>
      <trkpt lat="41.678540281" lon="2.527388696">
        <ele>339.50</ele>
        <time>2014-08-17T09:11:52Z</time>
      </trkpt>
      <trkpt lat="41.678338780" lon="2.527001536">
        <ele>339.00</ele>
        <time>2014-08-17T09:12:00Z</time>
      </trkpt>
      <trkpt lat="41.678186397" lon="2.526729794">
        <ele>339.00</ele>
        <time>2014-08-17T09:12:05Z</time>
      </trkpt>
      <trkpt lat="41.678048934" lon="2.526488144">
        <ele>339.00</ele>
        <time>2014-08-17T09:12:09Z</time>
      </trkpt>
      <trkpt lat="41.678037870" lon="2.526244063">
        <ele>338.50</ele>
        <time>2014-08-17T09:12:13Z</time>
      </trkpt>
      <trkpt lat="41.678055472" lon="2.526176505">
        <ele>338.50</ele>
        <time>2014-08-17T09:12:15Z</time>
      </trkpt>
      <trkpt lat="41.678070811" lon="2.526116993">
        <ele>339.50</ele>
        <time>2014-08-17T09:12:21Z</time>
      </trkpt>
      <trkpt lat="41.678075504" lon="2.526122274">
        <ele>339.50</ele>
        <time>2014-08-17T09:12:32Z</time>
      </trkpt>
      <trkpt lat="41.678067542" lon="2.526105007">
        <ele>339.50</ele>
        <time>2014-08-17T09:12:43Z</time>
      </trkpt>
      <trkpt lat="41.678050862" lon="2.526106684">
        <ele>340.00</ele>
        <time>2014-08-17T09:12:54Z</time>
      </trkpt>
      <trkpt lat="41.678044408" lon="2.526111210">
        <ele>340.00</ele>
        <time>2014-08-17T09:13:02Z</time>
      </trkpt>
      <trkpt lat="41.678033595" lon="2.526113054">
        <ele>340.00</ele>
        <time>2014-08-17T09:13:29Z</time>
      </trkpt>
      <trkpt lat="41.678022531" lon="2.526130153">
        <ele>340.00</ele>
        <time>2014-08-17T09:13:49Z</time>
      </trkpt>
      <trkpt lat="41.678014233" lon="2.526131159">
        <ele>340.00</ele>
        <time>2014-08-17T09:14:03Z</time>
      </trkpt>
      <trkpt lat="41.678017334" lon="2.526120011">
        <ele>340.00</ele>
        <time>2014-08-17T09:14:16Z</time>
      </trkpt>
      <trkpt lat="41.678034685" lon="2.526111797">
        <ele>339.50</ele>
        <time>2014-08-17T09:14:35Z</time>
      </trkpt>
      <trkpt lat="41.678030494" lon="2.526127219">
        <ele>339.50</ele>
        <time>2014-08-17T09:14:47Z</time>
      </trkpt>
      <trkpt lat="41.678027644" lon="2.526133338">
        <ele>339.50</ele>
        <time>2014-08-17T09:15:02Z</time>
      </trkpt>
      <trkpt lat="41.678030410" lon="2.526120681">
        <ele>339.50</ele>
        <time>2014-08-17T09:15:13Z</time>
      </trkpt>
      <trkpt lat="41.678029153" lon="2.526133338">
        <ele>339.50</ele>
        <time>2014-08-17T09:15:33Z</time>
      </trkpt>
      <trkpt lat="41.678035774" lon="2.526132416">
        <ele>339.50</ele>
        <time>2014-08-17T09:15:50Z</time>
      </trkpt>
      <trkpt lat="41.678048096" lon="2.526124956">
        <ele>339.50</ele>
        <time>2014-08-17T09:16:07Z</time>
      </trkpt>
      <trkpt lat="41.678047425" lon="2.526127219">
        <ele>339.50</ele>
        <time>2014-08-17T09:16:16Z</time>
      </trkpt>
      <trkpt lat="41.678056980" lon="2.526115485">
        <ele>339.50</ele>
        <time>2014-08-17T09:16:25Z</time>
      </trkpt>
      <trkpt lat="41.678056729" lon="2.526107689">
        <ele>339.50</ele>
        <time>2014-08-17T09:16:40Z</time>
      </trkpt>
      <trkpt lat="41.678048096" lon="2.526110372">
        <ele>339.50</ele>
        <time>2014-08-17T09:16:53Z</time>
      </trkpt>
      <trkpt lat="41.678053041" lon="2.526103918">
        <ele>339.50</ele>
        <time>2014-08-17T09:17:04Z</time>
      </trkpt>
      <trkpt lat="41.678053711" lon="2.526100816">
        <ele>339.00</ele>
        <time>2014-08-17T09:17:15Z</time>
      </trkpt>
      <trkpt lat="41.678046084" lon="2.526103079">
        <ele>339.00</ele>
        <time>2014-08-17T09:17:25Z</time>
      </trkpt>
      <trkpt lat="41.678034768" lon="2.526121268">
        <ele>339.00</ele>
        <time>2014-08-17T09:17:43Z</time>
      </trkpt>
      <trkpt lat="41.678048850" lon="2.526119089">
        <ele>339.00</ele>
        <time>2014-08-17T09:17:59Z</time>
      </trkpt>
      <trkpt lat="41.678027560" lon="2.526120346">
        <ele>339.00</ele>
        <time>2014-08-17T09:18:18Z</time>
      </trkpt>
      <trkpt lat="41.678024459" lon="2.526139289">
        <ele>339.00</ele>
        <time>2014-08-17T09:18:36Z</time>
      </trkpt>
      <trkpt lat="41.678035607" lon="2.526130740">
        <ele>339.00</ele>
        <time>2014-08-17T09:18:50Z</time>
      </trkpt>
      <trkpt lat="41.678046671" lon="2.526105678">
        <ele>339.00</ele>
        <time>2014-08-17T09:18:58Z</time>
      </trkpt>
      <trkpt lat="41.678032505" lon="2.526091848">
        <ele>339.00</ele>
        <time>2014-08-17T09:19:06Z</time>
      </trkpt>
      <trkpt lat="41.677956817" lon="2.525978524">
        <ele>339.00</ele>
        <time>2014-08-17T09:19:11Z</time>
      </trkpt>
      <trkpt lat="41.677933264" lon="2.525854724">
        <ele>337.60</ele>
        <time>2014-08-17T09:19:13Z</time>
      </trkpt>
      <trkpt lat="41.677928821" lon="2.525642326">
        <ele>336.10</ele>
        <time>2014-08-17T09:19:16Z</time>
      </trkpt>
      <trkpt lat="41.677991685" lon="2.525159277">
        <ele>333.20</ele>
        <time>2014-08-17T09:19:22Z</time>
      </trkpt>
      <trkpt lat="41.678001325" lon="2.524895582">
        <ele>329.40</ele>
        <time>2014-08-17T09:19:26Z</time>
      </trkpt>
      <trkpt lat="41.678156893" lon="2.524577405">
        <ele>327.00</ele>
        <time>2014-08-17T09:19:30Z</time>
      </trkpt>
      <trkpt lat="41.678332661" lon="2.524415467">
        <ele>323.60</ele>
        <time>2014-08-17T09:19:34Z</time>
      </trkpt>
      <trkpt lat="41.678336098" lon="2.524265515">
        <ele>321.70</ele>
        <time>2014-08-17T09:19:37Z</time>
      </trkpt>
      <trkpt lat="41.678302403" lon="2.524171889">
        <ele>321.20</ele>
        <time>2014-08-17T09:19:39Z</time>
      </trkpt>
      <trkpt lat="41.678257056" lon="2.524047921">
        <ele>321.20</ele>
        <time>2014-08-17T09:19:41Z</time>
      </trkpt>
      <trkpt lat="41.678176925" lon="2.523877181">
        <ele>320.30</ele>
        <time>2014-08-17T09:19:43Z</time>
      </trkpt>
      <trkpt lat="41.678106685" lon="2.523401173">
        <ele>315.50</ele>
        <time>2014-08-17T09:19:49Z</time>
      </trkpt>
      <trkpt lat="41.678176171" lon="2.523103112">
        <ele>313.10</ele>
        <time>2014-08-17T09:19:53Z</time>
      </trkpt>
      <trkpt lat="41.678288656" lon="2.523137311">
        <ele>312.10</ele>
        <time>2014-08-17T09:19:56Z</time>
      </trkpt>
      <trkpt lat="41.678471549" lon="2.523134880">
        <ele>311.10</ele>
        <time>2014-08-17T09:20:01Z</time>
      </trkpt>
      <trkpt lat="41.678432993" lon="2.522997668">
        <ele>309.70</ele>
        <time>2014-08-17T09:20:04Z</time>
      </trkpt>
      <trkpt lat="41.678316568" lon="2.522885351">
        <ele>308.70</ele>
        <time>2014-08-17T09:20:07Z</time>
      </trkpt>
      <trkpt lat="41.678091179" lon="2.522653926">
        <ele>305.40</ele>
        <time>2014-08-17T09:20:11Z</time>
      </trkpt>
      <trkpt lat="41.677993529" lon="2.522560468">
        <ele>303.90</ele>
        <time>2014-08-17T09:20:13Z</time>
      </trkpt>
      <trkpt lat="41.677841230" lon="2.522347149">
        <ele>301.00</ele>
        <time>2014-08-17T09:20:17Z</time>
      </trkpt>
      <trkpt lat="41.677680465" lon="2.522268526">
        <ele>299.60</ele>
        <time>2014-08-17T09:20:21Z</time>
      </trkpt>
      <trkpt lat="41.677616595" lon="2.522156293">
        <ele>299.60</ele>
        <time>2014-08-17T09:20:23Z</time>
      </trkpt>
      <trkpt lat="41.677518946" lon="2.521999300">
        <ele>299.10</ele>
        <time>2014-08-17T09:20:26Z</time>
      </trkpt>
      <trkpt lat="41.677253156" lon="2.521864016">
        <ele>298.60</ele>
        <time>2014-08-17T09:20:31Z</time>
      </trkpt>
      <trkpt lat="41.677068754" lon="2.521777179">
        <ele>297.70</ele>
        <time>2014-08-17T09:20:34Z</time>
      </trkpt>
      <trkpt lat="41.676957442" lon="2.521694115">
        <ele>296.70</ele>
        <time>2014-08-17T09:20:36Z</time>
      </trkpt>
      <trkpt lat="41.676778489" lon="2.521582551">
        <ele>296.20</ele>
        <time>2014-08-17T09:20:39Z</time>
      </trkpt>
      <trkpt lat="41.676475231" lon="2.521184914">
        <ele>293.30</ele>
        <time>2014-08-17T09:20:45Z</time>
      </trkpt>
      <trkpt lat="41.676377582" lon="2.520990873">
        <ele>292.90</ele>
        <time>2014-08-17T09:20:47Z</time>
      </trkpt>
      <trkpt lat="41.676116067" lon="2.520596169">
        <ele>289.50</ele>
        <time>2014-08-17T09:20:52Z</time>
      </trkpt>
      <trkpt lat="41.675811888" lon="2.520200124">
        <ele>285.20</ele>
        <time>2014-08-17T09:20:57Z</time>
      </trkpt>
      <trkpt lat="41.675767883" lon="2.520144133">
        <ele>284.20</ele>
        <time>2014-08-17T09:20:58Z</time>
      </trkpt>
      <trkpt lat="41.675607956" lon="2.519734761">
        <ele>280.80</ele>
        <time>2014-08-17T09:21:03Z</time>
      </trkpt>
      <trkpt lat="41.675417771" lon="2.519475760">
        <ele>278.90</ele>
        <time>2014-08-17T09:21:07Z</time>
      </trkpt>
      <trkpt lat="41.675354822" lon="2.519434437">
        <ele>277.50</ele>
        <time>2014-08-17T09:21:08Z</time>
      </trkpt>
      <trkpt lat="41.675152902" lon="2.519192536">
        <ele>273.60</ele>
        <time>2014-08-17T09:21:13Z</time>
      </trkpt>
      <trkpt lat="41.675137312" lon="2.519120703">
        <ele>273.20</ele>
        <time>2014-08-17T09:21:14Z</time>
      </trkpt>
      <trkpt lat="41.675103365" lon="2.518934457">
        <ele>271.70</ele>
        <time>2014-08-17T09:21:16Z</time>
      </trkpt>
      <trkpt lat="41.675023570" lon="2.518712588">
        <ele>270.30</ele>
        <time>2014-08-17T09:21:19Z</time>
      </trkpt>
      <trkpt lat="41.674970177" lon="2.518395417">
        <ele>268.80</ele>
        <time>2014-08-17T09:21:23Z</time>
      </trkpt>
      <trkpt lat="41.674862050" lon="2.518100290">
        <ele>267.90</ele>
        <time>2014-08-17T09:21:27Z</time>
      </trkpt>
      <trkpt lat="41.674770855" lon="2.517971460">
        <ele>266.90</ele>
        <time>2014-08-17T09:21:29Z</time>
      </trkpt>
      <trkpt lat="41.674462988" lon="2.517349523">
        <ele>264.50</ele>
        <time>2014-08-17T09:21:37Z</time>
      </trkpt>
      <trkpt lat="41.674391490" lon="2.517188590">
        <ele>263.50</ele>
        <time>2014-08-17T09:21:39Z</time>
      </trkpt>
      <trkpt lat="41.674168113" lon="2.516908299">
        <ele>261.60</ele>
        <time>2014-08-17T09:21:43Z</time>
      </trkpt>
      <trkpt lat="41.674077337" lon="2.516841747">
        <ele>260.70</ele>
        <time>2014-08-17T09:21:45Z</time>
      </trkpt>
      <trkpt lat="41.673887403" lon="2.516757844">
        <ele>259.20</ele>
        <time>2014-08-17T09:21:50Z</time>
      </trkpt>
      <trkpt lat="41.673614488" lon="2.516604288">
        <ele>257.80</ele>
        <time>2014-08-17T09:21:56Z</time>
      </trkpt>
      <trkpt lat="41.673295976" lon="2.516414018">
        <ele>255.90</ele>
        <time>2014-08-17T09:22:02Z</time>
      </trkpt>
      <trkpt lat="41.673236632" lon="2.516378228">
        <ele>255.40</ele>
        <time>2014-08-17T09:22:03Z</time>
      </trkpt>
      <trkpt lat="41.672997748" lon="2.516089220">
        <ele>253.00</ele>
        <time>2014-08-17T09:22:08Z</time>
      </trkpt>
      <trkpt lat="41.672961705" lon="2.515897358">
        <ele>251.00</ele>
        <time>2014-08-17T09:22:12Z</time>
      </trkpt>
      <trkpt lat="41.672962124" lon="2.515868189">
        <ele>251.50</ele>
        <time>2014-08-17T09:22:17Z</time>
      </trkpt>
      <trkpt lat="41.672947959" lon="2.515814964">
        <ele>251.00</ele>
        <time>2014-08-17T09:22:30Z</time>
      </trkpt>
      <trkpt lat="41.673010488" lon="2.515743969">
        <ele>251.50</ele>
        <time>2014-08-17T09:22:36Z</time>
      </trkpt>
      <trkpt lat="41.673044686" lon="2.515691415">
        <ele>252.50</ele>
        <time>2014-08-17T09:22:39Z</time>
      </trkpt>
      <trkpt lat="41.673155160" lon="2.515539870">
        <ele>253.90</ele>
        <time>2014-08-17T09:22:48Z</time>
      </trkpt>
      <trkpt lat="41.673213079" lon="2.515441969">
        <ele>255.40</ele>
        <time>2014-08-17T09:22:53Z</time>
      </trkpt>
      <trkpt lat="41.673298406" lon="2.515326718">
        <ele>256.80</ele>
        <time>2014-08-17T09:23:00Z</time>
      </trkpt>
      <trkpt lat="41.673445760" lon="2.515228734">
        <ele>257.80</ele>
        <time>2014-08-17T09:23:09Z</time>
      </trkpt>
      <trkpt lat="41.673535698" lon="2.515181376">
        <ele>258.70</ele>
        <time>2014-08-17T09:23:15Z</time>
      </trkpt>
      <trkpt lat="41.673629743" lon="2.515151955">
        <ele>259.20</ele>
        <time>2014-08-17T09:23:22Z</time>
      </trkpt>
      <trkpt lat="41.673788664" lon="2.515099149">
        <ele>260.70</ele>
        <time>2014-08-17T09:23:30Z</time>
      </trkpt>
      <trkpt lat="41.673923361" lon="2.515037961">
        <ele>261.10</ele>
        <time>2014-08-17T09:23:37Z</time>
      </trkpt>
      <trkpt lat="41.673999133" lon="2.515035112">
        <ele>261.10</ele>
        <time>2014-08-17T09:23:41Z</time>
      </trkpt>
      <trkpt lat="41.674035092" lon="2.514931763">
        <ele>261.10</ele>
        <time>2014-08-17T09:23:46Z</time>
      </trkpt>
      <trkpt lat="41.674005252" lon="2.514915418">
        <ele>261.10</ele>
        <time>2014-08-17T09:23:48Z</time>
      </trkpt>
      <trkpt lat="41.673899305" lon="2.514920615">
        <ele>259.70</ele>
        <time>2014-08-17T09:23:52Z</time>
      </trkpt>
      <trkpt lat="41.673863011" lon="2.514923548">
        <ele>259.70</ele>
        <time>2014-08-17T09:23:53Z</time>
      </trkpt>
      <trkpt lat="41.673663019" lon="2.514807878">
        <ele>258.70</ele>
        <time>2014-08-17T09:23:59Z</time>
      </trkpt>
      <trkpt lat="41.673567298" lon="2.514572347">
        <ele>259.20</ele>
        <time>2014-08-17T09:24:06Z</time>
      </trkpt>
      <trkpt lat="41.673628653" lon="2.514363889">
        <ele>259.70</ele>
        <time>2014-08-17T09:24:14Z</time>
      </trkpt>
      <trkpt lat="41.673711299" lon="2.514226509">
        <ele>261.60</ele>
        <time>2014-08-17T09:24:21Z</time>
      </trkpt>
      <trkpt lat="41.673784305" lon="2.514149983">
        <ele>262.60</ele>
        <time>2014-08-17T09:24:27Z</time>
      </trkpt>
      <trkpt lat="41.673916739" lon="2.514026350">
        <ele>264.50</ele>
        <time>2014-08-17T09:24:36Z</time>
      </trkpt>
      <trkpt lat="41.673998798" lon="2.513938926">
        <ele>265.90</ele>
        <time>2014-08-17T09:24:42Z</time>
      </trkpt>
      <trkpt lat="41.674091167" lon="2.513838763">
        <ele>267.90</ele>
        <time>2014-08-17T09:24:49Z</time>
      </trkpt>
      <trkpt lat="41.674177584" lon="2.513719237">
        <ele>270.30</ele>
        <time>2014-08-17T09:24:57Z</time>
      </trkpt>
      <trkpt lat="41.674242712" lon="2.513569955">
        <ele>272.70</ele>
        <time>2014-08-17T09:25:06Z</time>
      </trkpt>
      <trkpt lat="41.674307336" lon="2.513448334">
        <ele>276.00</ele>
        <time>2014-08-17T09:25:15Z</time>
      </trkpt>
      <trkpt lat="41.674342037" lon="2.513418410">
        <ele>277.00</ele>
        <time>2014-08-17T09:25:19Z</time>
      </trkpt>
      <trkpt lat="41.674427533" lon="2.513472473">
        <ele>278.00</ele>
        <time>2014-08-17T09:25:27Z</time>
      </trkpt>
      <trkpt lat="41.674432226" lon="2.513483286">
        <ele>278.40</ele>
        <time>2014-08-17T09:25:28Z</time>
      </trkpt>
      <trkpt lat="41.674446727" lon="2.513643129">
        <ele>280.80</ele>
        <time>2014-08-17T09:25:38Z</time>
      </trkpt>
      <trkpt lat="41.674444715" lon="2.513764583">
        <ele>282.80</ele>
        <time>2014-08-17T09:25:46Z</time>
      </trkpt>
      <trkpt lat="41.674434322" lon="2.513908835">
        <ele>285.20</ele>
        <time>2014-08-17T09:25:55Z</time>
      </trkpt>
      <trkpt lat="41.674426443" lon="2.513955020">
        <ele>285.70</ele>
        <time>2014-08-17T09:25:58Z</time>
      </trkpt>
      <trkpt lat="41.674437088" lon="2.514016040">
        <ele>286.10</ele>
        <time>2014-08-17T09:26:02Z</time>
      </trkpt>
      <trkpt lat="41.674464832" lon="2.514037665">
        <ele>286.60</ele>
        <time>2014-08-17T09:26:06Z</time>
      </trkpt>
      <trkpt lat="41.674556362" lon="2.513934316">
        <ele>289.50</ele>
        <time>2014-08-17T09:26:17Z</time>
      </trkpt>
      <trkpt lat="41.674570612" lon="2.513916966">
        <ele>289.50</ele>
        <time>2014-08-17T09:26:19Z</time>
      </trkpt>
      <trkpt lat="41.674659627" lon="2.513824849">
        <ele>291.90</ele>
        <time>2014-08-17T09:26:29Z</time>
      </trkpt>
      <trkpt lat="41.674749817" lon="2.513720997">
        <ele>295.30</ele>
        <time>2014-08-17T09:26:39Z</time>
      </trkpt>
      <trkpt lat="41.674821231" lon="2.513659557">
        <ele>296.70</ele>
        <time>2014-08-17T09:26:48Z</time>
      </trkpt>
      <trkpt lat="41.674840341" lon="2.513661318">
        <ele>297.70</ele>
        <time>2014-08-17T09:26:50Z</time>
      </trkpt>
      <trkpt lat="41.674889124" lon="2.513662994">
        <ele>298.60</ele>
        <time>2014-08-17T09:26:57Z</time>
      </trkpt>
      <trkpt lat="41.674901194" lon="2.513663413">
        <ele>298.60</ele>
        <time>2014-08-17T09:27:00Z</time>
      </trkpt>
      <trkpt lat="41.674954084" lon="2.513661066">
        <ele>299.60</ele>
        <time>2014-08-17T09:27:07Z</time>
      </trkpt>
      <trkpt lat="41.674993479" lon="2.513667604">
        <ele>300.60</ele>
        <time>2014-08-17T09:27:13Z</time>
      </trkpt>
      <trkpt lat="41.675024911" lon="2.513671292">
        <ele>300.60</ele>
        <time>2014-08-17T09:27:20Z</time>
      </trkpt>
      <trkpt lat="41.675121554" lon="2.513682943">
        <ele>302.00</ele>
        <time>2014-08-17T09:27:29Z</time>
      </trkpt>
      <trkpt lat="41.675230519" lon="2.513676908">
        <ele>302.50</ele>
        <time>2014-08-17T09:27:37Z</time>
      </trkpt>
      <trkpt lat="41.675291204" lon="2.513681602">
        <ele>303.90</ele>
        <time>2014-08-17T09:27:42Z</time>
      </trkpt>
      <trkpt lat="41.675408467" lon="2.513737174">
        <ele>305.80</ele>
        <time>2014-08-17T09:27:51Z</time>
      </trkpt>
      <trkpt lat="41.675529837" lon="2.513800876">
        <ele>306.80</ele>
        <time>2014-08-17T09:27:59Z</time>
      </trkpt>
      <trkpt lat="41.675729745" lon="2.513758212">
        <ele>306.80</ele>
        <time>2014-08-17T09:28:05Z</time>
      </trkpt>
      <trkpt lat="41.675801243" lon="2.513725355">
        <ele>306.80</ele>
        <time>2014-08-17T09:28:08Z</time>
      </trkpt>
      <trkpt lat="41.675816665" lon="2.513658133">
        <ele>306.80</ele>
        <time>2014-08-17T09:28:14Z</time>
      </trkpt>
      <trkpt lat="41.675818845" lon="2.513649164">
        <ele>306.80</ele>
        <time>2014-08-17T09:28:28Z</time>
      </trkpt>
      <trkpt lat="41.675810966" lon="2.513604907">
        <ele>306.80</ele>
        <time>2014-08-17T09:28:44Z</time>
      </trkpt>
      <trkpt lat="41.675819850" lon="2.513597196">
        <ele>306.80</ele>
        <time>2014-08-17T09:28:56Z</time>
      </trkpt>
      <trkpt lat="41.675831082" lon="2.513630472">
        <ele>306.80</ele>
        <time>2014-08-17T09:29:12Z</time>
      </trkpt>
      <trkpt lat="41.675817001" lon="2.513574481">
        <ele>306.80</ele>
        <time>2014-08-17T09:29:18Z</time>
      </trkpt>
      <trkpt lat="41.675779869" lon="2.513443472">
        <ele>308.20</ele>
        <time>2014-08-17T09:29:25Z</time>
      </trkpt>
      <trkpt lat="41.675759249" lon="2.513271643">
        <ele>309.70</ele>
        <time>2014-08-17T09:29:33Z</time>
      </trkpt>
      <trkpt lat="41.675748940" lon="2.513101909">
        <ele>311.10</ele>
        <time>2014-08-17T09:29:41Z</time>
      </trkpt>
      <trkpt lat="41.675700827" lon="2.512871407">
        <ele>312.60</ele>
        <time>2014-08-17T09:29:51Z</time>
      </trkpt>
      <trkpt lat="41.675676604" lon="2.512802256">
        <ele>313.10</ele>
        <time>2014-08-17T09:29:54Z</time>
      </trkpt>
      <trkpt lat="41.675617679" lon="2.512709636">
        <ele>314.00</ele>
        <time>2014-08-17T09:30:00Z</time>
      </trkpt>
      <trkpt lat="41.675527406" lon="2.512586171">
        <ele>315.00</ele>
        <time>2014-08-17T09:30:09Z</time>
      </trkpt>
      <trkpt lat="41.675459512" lon="2.512483493">
        <ele>315.50</ele>
        <time>2014-08-17T09:30:17Z</time>
      </trkpt>
      <trkpt lat="41.675316350" lon="2.512431106">
        <ele>313.50</ele>
        <time>2014-08-17T09:30:22Z</time>
      </trkpt>
      <trkpt lat="41.675209313" lon="2.512383580">
        <ele>312.10</ele>
        <time>2014-08-17T09:30:25Z</time>
      </trkpt>
      <trkpt lat="41.675079393" lon="2.512278471">
        <ele>311.60</ele>
        <time>2014-08-17T09:30:31Z</time>
      </trkpt>
      <trkpt lat="41.675045446" lon="2.512276879">
        <ele>311.60</ele>
        <time>2014-08-17T09:30:33Z</time>
      </trkpt>
      <trkpt lat="41.674953832" lon="2.512255840">
        <ele>313.10</ele>
        <time>2014-08-17T09:30:39Z</time>
      </trkpt>
      <trkpt lat="41.674868672" lon="2.512231281">
        <ele>314.50</ele>
        <time>2014-08-17T09:30:45Z</time>
      </trkpt>
      <trkpt lat="41.674773286" lon="2.512207141">
        <ele>316.40</ele>
        <time>2014-08-17T09:30:51Z</time>
      </trkpt>
      <trkpt lat="41.674683767" lon="2.512177134">
        <ele>317.90</ele>
        <time>2014-08-17T09:30:57Z</time>
      </trkpt>
      <trkpt lat="41.674668931" lon="2.512173781">
        <ele>317.90</ele>
        <time>2014-08-17T09:30:58Z</time>
      </trkpt>
      <trkpt lat="41.674602044" lon="2.512139583">
        <ele>319.30</ele>
        <time>2014-08-17T09:31:03Z</time>
      </trkpt>
      <trkpt lat="41.674535240" lon="2.512074707">
        <ele>319.30</ele>
        <time>2014-08-17T09:31:07Z</time>
      </trkpt>
      <trkpt lat="41.674362908" lon="2.511866752">
        <ele>315.90</ele>
        <time>2014-08-17T09:31:12Z</time>
      </trkpt>
      <trkpt lat="41.674249333" lon="2.511660054">
        <ele>313.10</ele>
        <time>2014-08-17T09:31:15Z</time>
      </trkpt>
      <trkpt lat="41.674105332" lon="2.511341123">
        <ele>311.10</ele>
        <time>2014-08-17T09:31:19Z</time>
      </trkpt>
      <trkpt lat="41.673941801" lon="2.511050439">
        <ele>310.60</ele>
        <time>2014-08-17T09:31:25Z</time>
      </trkpt>
      <trkpt lat="41.673859575" lon="2.510953963">
        <ele>312.60</ele>
        <time>2014-08-17T09:31:32Z</time>
      </trkpt>
      <trkpt lat="41.673753376" lon="2.510832593">
        <ele>314.00</ele>
        <time>2014-08-17T09:31:39Z</time>
      </trkpt>
      <trkpt lat="41.673639382" lon="2.510648862">
        <ele>316.90</ele>
        <time>2014-08-17T09:31:48Z</time>
      </trkpt>
      <trkpt lat="41.673552546" lon="2.510463454">
        <ele>318.80</ele>
        <time>2014-08-17T09:31:57Z</time>
      </trkpt>
      <trkpt lat="41.673502254" lon="2.510296822">
        <ele>321.20</ele>
        <time>2014-08-17T09:32:05Z</time>
      </trkpt>
      <trkpt lat="41.673469146" lon="2.510212500">
        <ele>322.70</ele>
        <time>2014-08-17T09:32:09Z</time>
      </trkpt>
      <trkpt lat="41.673473169" lon="2.510041844">
        <ele>323.10</ele>
        <time>2014-08-17T09:32:17Z</time>
      </trkpt>
      <trkpt lat="41.673490184" lon="2.509846211">
        <ele>323.10</ele>
        <time>2014-08-17T09:32:24Z</time>
      </trkpt>
      <trkpt lat="41.673498231" lon="2.509551419">
        <ele>323.10</ele>
        <time>2014-08-17T09:32:34Z</time>
      </trkpt>
      <trkpt lat="41.673499237" lon="2.509279594">
        <ele>324.60</ele>
        <time>2014-08-17T09:32:44Z</time>
      </trkpt>
      <trkpt lat="41.673477695" lon="2.509140706">
        <ele>326.50</ele>
        <time>2014-08-17T09:32:51Z</time>
      </trkpt>
      <trkpt lat="41.673482557" lon="2.509013469">
        <ele>328.00</ele>
        <time>2014-08-17T09:32:58Z</time>
      </trkpt>
      <trkpt lat="41.673558413" lon="2.508936271">
        <ele>328.40</ele>
        <time>2014-08-17T09:33:05Z</time>
      </trkpt>
      <trkpt lat="41.673677855" lon="2.508850273">
        <ele>328.40</ele>
        <time>2014-08-17T09:33:12Z</time>
      </trkpt>
      <trkpt lat="41.673779360" lon="2.508701578">
        <ele>328.40</ele>
        <time>2014-08-17T09:33:18Z</time>
      </trkpt>
      <trkpt lat="41.673878686" lon="2.508560594">
        <ele>328.90</ele>
        <time>2014-08-17T09:33:24Z</time>
      </trkpt>
      <trkpt lat="41.673971306" lon="2.508441739">
        <ele>328.90</ele>
        <time>2014-08-17T09:33:29Z</time>
      </trkpt>
      <trkpt lat="41.674062668" lon="2.508367056">
        <ele>327.50</ele>
        <time>2014-08-17T09:33:32Z</time>
      </trkpt>
      <trkpt lat="41.674149672" lon="2.508183828">
        <ele>327.00</ele>
        <time>2014-08-17T09:33:37Z</time>
      </trkpt>
      <trkpt lat="41.674224607" lon="2.507933796">
        <ele>326.00</ele>
        <time>2014-08-17T09:33:43Z</time>
      </trkpt>
      <trkpt lat="41.674350587" lon="2.507661216">
        <ele>326.00</ele>
        <time>2014-08-17T09:33:52Z</time>
      </trkpt>
      <trkpt lat="41.674451002" lon="2.507565998">
        <ele>325.10</ele>
        <time>2014-08-17T09:33:56Z</time>
      </trkpt>
      <trkpt lat="41.674527780" lon="2.507488297">
        <ele>323.10</ele>
        <time>2014-08-17T09:33:59Z</time>
      </trkpt>
      <trkpt lat="41.674614198" lon="2.507414453">
        <ele>321.20</ele>
        <time>2014-08-17T09:34:02Z</time>
      </trkpt>
      <trkpt lat="41.674640517" lon="2.507349325">
        <ele>320.30</ele>
        <time>2014-08-17T09:34:04Z</time>
      </trkpt>
      <trkpt lat="41.674703800" lon="2.507185962">
        <ele>316.40</ele>
        <time>2014-08-17T09:34:09Z</time>
      </trkpt>
      <trkpt lat="41.674728862" lon="2.507033244">
        <ele>313.50</ele>
        <time>2014-08-17T09:34:13Z</time>
      </trkpt>
      <trkpt lat="41.674744285" lon="2.506908773">
        <ele>309.70</ele>
        <time>2014-08-17T09:34:17Z</time>
      </trkpt>
      <trkpt lat="41.674756774" lon="2.506746499">
        <ele>307.80</ele>
        <time>2014-08-17T09:34:21Z</time>
      </trkpt>
      <trkpt lat="41.674782422" lon="2.506518511">
        <ele>307.30</ele>
        <time>2014-08-17T09:34:27Z</time>
      </trkpt>
      <trkpt lat="41.674870013" lon="2.506303599">
        <ele>307.30</ele>
        <time>2014-08-17T09:34:33Z</time>
      </trkpt>
      <trkpt lat="41.674924999" lon="2.506200669">
        <ele>308.70</ele>
        <time>2014-08-17T09:34:38Z</time>
      </trkpt>
      <trkpt lat="41.674957185" lon="2.506026996">
        <ele>309.70</ele>
        <time>2014-08-17T09:34:44Z</time>
      </trkpt>
      <trkpt lat="41.674955257" lon="2.505934795">
        <ele>309.20</ele>
        <time>2014-08-17T09:34:47Z</time>
      </trkpt>
      <trkpt lat="41.674877054" lon="2.505677974">
        <ele>309.70</ele>
        <time>2014-08-17T09:34:54Z</time>
      </trkpt>
      <trkpt lat="41.674851154" lon="2.505583342">
        <ele>308.20</ele>
        <time>2014-08-17T09:34:57Z</time>
      </trkpt>
      <trkpt lat="41.674851070" lon="2.505513102">
        <ele>307.80</ele>
        <time>2014-08-17T09:35:04Z</time>
      </trkpt>
      <trkpt lat="41.674858027" lon="2.505459290">
        <ele>307.80</ele>
        <time>2014-08-17T09:35:14Z</time>
      </trkpt>
      <trkpt lat="41.674843862" lon="2.505426936">
        <ele>307.80</ele>
        <time>2014-08-17T09:35:21Z</time>
      </trkpt>
      <trkpt lat="41.674840677" lon="2.505401623">
        <ele>307.80</ele>
        <time>2014-08-17T09:35:30Z</time>
      </trkpt>
      <trkpt lat="41.674849729" lon="2.505368849">
        <ele>307.80</ele>
        <time>2014-08-17T09:35:38Z</time>
      </trkpt>
      <trkpt lat="41.674846544" lon="2.505310428">
        <ele>307.80</ele>
        <time>2014-08-17T09:35:42Z</time>
      </trkpt>
      <trkpt lat="41.674877557" lon="2.505180759">
        <ele>307.80</ele>
        <time>2014-08-17T09:35:46Z</time>
      </trkpt>
      <trkpt lat="41.674890717" lon="2.504848417">
        <ele>305.40</ele>
        <time>2014-08-17T09:35:53Z</time>
      </trkpt>
      <trkpt lat="41.674857357" lon="2.504639540">
        <ele>302.00</ele>
        <time>2014-08-17T09:35:58Z</time>
      </trkpt>
      <trkpt lat="41.674846209" lon="2.504605845">
        <ele>302.00</ele>
        <time>2014-08-17T09:35:59Z</time>
      </trkpt>
      <trkpt lat="41.674780327" lon="2.504399482">
        <ele>298.20</ele>
        <time>2014-08-17T09:36:04Z</time>
      </trkpt>
      <trkpt lat="41.674729281" lon="2.504204435">
        <ele>294.30</ele>
        <time>2014-08-17T09:36:10Z</time>
      </trkpt>
      <trkpt lat="41.674689048" lon="2.504023302">
        <ele>290.50</ele>
        <time>2014-08-17T09:36:16Z</time>
      </trkpt>
      <trkpt lat="41.674649234" lon="2.503900340">
        <ele>288.10</ele>
        <time>2014-08-17T09:36:21Z</time>
      </trkpt>
      <trkpt lat="41.674628279" lon="2.503813084">
        <ele>286.60</ele>
        <time>2014-08-17T09:36:24Z</time>
      </trkpt>
      <trkpt lat="41.674626603" lon="2.503664808">
        <ele>285.70</ele>
        <time>2014-08-17T09:36:29Z</time>
      </trkpt>
      <trkpt lat="41.674608246" lon="2.503386278">
        <ele>280.80</ele>
        <time>2014-08-17T09:36:35Z</time>
      </trkpt>
      <trkpt lat="41.674579916" lon="2.503178993">
        <ele>278.40</ele>
        <time>2014-08-17T09:36:41Z</time>
      </trkpt>
      <trkpt lat="41.674524511" lon="2.502980426">
        <ele>276.00</ele>
        <time>2014-08-17T09:36:46Z</time>
      </trkpt>
      <trkpt lat="41.674508083" lon="2.502911359">
        <ele>275.10</ele>
        <time>2014-08-17T09:36:48Z</time>
      </trkpt>
      <trkpt lat="41.674484278" lon="2.502850507">
        <ele>274.10</ele>
        <time>2014-08-17T09:36:50Z</time>
      </trkpt>
      <trkpt lat="41.674393502" lon="2.502681695">
        <ele>271.20</ele>
        <time>2014-08-17T09:36:56Z</time>
      </trkpt>
      <trkpt lat="41.674305073" lon="2.502498802">
        <ele>270.80</ele>
        <time>2014-08-17T09:37:02Z</time>
      </trkpt>
      <trkpt lat="41.674158138" lon="2.502526965">
        <ele>270.80</ele>
        <time>2014-08-17T09:37:08Z</time>
      </trkpt>
      <trkpt lat="41.674090329" lon="2.502581112">
        <ele>269.80</ele>
        <time>2014-08-17T09:37:10Z</time>
      </trkpt>
      <trkpt lat="41.673845326" lon="2.502698878">
        <ele>268.40</ele>
        <time>2014-08-17T09:37:17Z</time>
      </trkpt>
      <trkpt lat="41.673723285" lon="2.502651017">
        <ele>266.90</ele>
        <time>2014-08-17T09:37:21Z</time>
      </trkpt>
      <trkpt lat="41.673658577" lon="2.502603827">
        <ele>266.40</ele>
        <time>2014-08-17T09:37:23Z</time>
      </trkpt>
      <trkpt lat="41.673556318" lon="2.502452199">
        <ele>264.50</ele>
        <time>2014-08-17T09:37:28Z</time>
      </trkpt>
      <trkpt lat="41.673460848" lon="2.502313059">
        <ele>262.60</ele>
        <time>2014-08-17T09:37:34Z</time>
      </trkpt>
      <trkpt lat="41.673436624" lon="2.502283890">
        <ele>262.60</ele>
        <time>2014-08-17T09:37:50Z</time>
      </trkpt>
      <trkpt lat="41.673371245" lon="2.502209123">
        <ele>262.10</ele>
        <time>2014-08-17T09:37:59Z</time>
      </trkpt>
      <trkpt lat="41.673265130" lon="2.502059255">
        <ele>260.70</ele>
        <time>2014-08-17T09:38:05Z</time>
      </trkpt>
      <trkpt lat="41.673252641" lon="2.502046347">
        <ele>259.70</ele>
        <time>2014-08-17T09:38:11Z</time>
      </trkpt>
      <trkpt lat="41.673183910" lon="2.501885666">
        <ele>259.20</ele>
        <time>2014-08-17T09:38:20Z</time>
      </trkpt>
      <trkpt lat="41.673054577" lon="2.501649296">
        <ele>257.30</ele>
        <time>2014-08-17T09:38:26Z</time>
      </trkpt>
      <trkpt lat="41.672980229" lon="2.501476545">
        <ele>254.90</ele>
        <time>2014-08-17T09:38:31Z</time>
      </trkpt>
      <trkpt lat="41.672863637" lon="2.501226513">
        <ele>252.50</ele>
        <time>2014-08-17T09:38:36Z</time>
      </trkpt>
      <trkpt lat="41.672705135" lon="2.501021743">
        <ele>248.20</ele>
        <time>2014-08-17T09:38:40Z</time>
      </trkpt>
      <trkpt lat="41.672613270" lon="2.500803646">
        <ele>244.80</ele>
        <time>2014-08-17T09:38:44Z</time>
      </trkpt>
      <trkpt lat="41.672595919" lon="2.500728125">
        <ele>244.80</ele>
        <time>2014-08-17T09:38:45Z</time>
      </trkpt>
      <trkpt lat="41.672569768" lon="2.500643216">
        <ele>243.80</ele>
        <time>2014-08-17T09:38:46Z</time>
      </trkpt>
      <trkpt lat="41.672520566" lon="2.500491336">
        <ele>242.40</ele>
        <time>2014-08-17T09:38:48Z</time>
      </trkpt>
      <trkpt lat="41.672496929" lon="2.500137620">
        <ele>240.50</ele>
        <time>2014-08-17T09:38:53Z</time>
      </trkpt>
      <trkpt lat="41.672551160" lon="2.500034522">
        <ele>240.50</ele>
        <time>2014-08-17T09:38:56Z</time>
      </trkpt>
      <trkpt lat="41.672672278" lon="2.499683153">
        <ele>236.10</ele>
        <time>2014-08-17T09:39:02Z</time>
      </trkpt>
      <trkpt lat="41.672683762" lon="2.499408813">
        <ele>234.70</ele>
        <time>2014-08-17T09:39:06Z</time>
      </trkpt>
      <trkpt lat="41.672697173" lon="2.499184514">
        <ele>233.30</ele>
        <time>2014-08-17T09:39:09Z</time>
      </trkpt>
      <trkpt lat="41.672631794" lon="2.498856614">
        <ele>231.80</ele>
        <time>2014-08-17T09:39:14Z</time>
      </trkpt>
      <trkpt lat="41.672610671" lon="2.498710601">
        <ele>230.90</ele>
        <time>2014-08-17T09:39:16Z</time>
      </trkpt>
      <trkpt lat="41.672602792" lon="2.498448666">
        <ele>228.90</ele>
        <time>2014-08-17T09:39:19Z</time>
      </trkpt>
      <trkpt lat="41.672595919" lon="2.498313466">
        <ele>228.50</ele>
        <time>2014-08-17T09:39:21Z</time>
      </trkpt>
      <trkpt lat="41.672667165" lon="2.498103500">
        <ele>225.60</ele>
        <time>2014-08-17T09:39:25Z</time>
      </trkpt>
      <trkpt lat="41.672726509" lon="2.497973748">
        <ele>224.60</ele>
        <time>2014-08-17T09:39:27Z</time>
      </trkpt>
      <trkpt lat="41.672794906" lon="2.497781970">
        <ele>222.20</ele>
        <time>2014-08-17T09:39:30Z</time>
      </trkpt>
      <trkpt lat="41.672840755" lon="2.497722877">
        <ele>221.70</ele>
        <time>2014-08-17T09:39:32Z</time>
      </trkpt>
      <trkpt lat="41.672882999" lon="2.497661857">
        <ele>220.80</ele>
        <time>2014-08-17T09:39:35Z</time>
      </trkpt>
      <trkpt lat="41.672885849" lon="2.497544930">
        <ele>218.80</ele>
        <time>2014-08-17T09:39:43Z</time>
      </trkpt>
      <trkpt lat="41.672877635" lon="2.497523053">
        <ele>218.40</ele>
        <time>2014-08-17T09:39:46Z</time>
      </trkpt>
      <trkpt lat="41.672717960" lon="2.497528669">
        <ele>215.50</ele>
        <time>2014-08-17T09:39:53Z</time>
      </trkpt>
      <trkpt lat="41.672613773" lon="2.497559179">
        <ele>212.10</ele>
        <time>2014-08-17T09:39:56Z</time>
      </trkpt>
      <trkpt lat="41.672540263" lon="2.497581894">
        <ele>210.70</ele>
        <time>2014-08-17T09:39:58Z</time>
      </trkpt>
      <trkpt lat="41.672492906" lon="2.497550126">
        <ele>209.70</ele>
        <time>2014-08-17T09:40:00Z</time>
      </trkpt>
      <trkpt lat="41.672503634" lon="2.497421464">
        <ele>208.70</ele>
        <time>2014-08-17T09:40:05Z</time>
      </trkpt>
      <trkpt lat="41.672659873" lon="2.497173611">
        <ele>207.30</ele>
        <time>2014-08-17T09:40:13Z</time>
      </trkpt>
      <trkpt lat="41.672756433" lon="2.496966327">
        <ele>206.80</ele>
        <time>2014-08-17T09:40:18Z</time>
      </trkpt>
      <trkpt lat="41.672905128" lon="2.496791648">
        <ele>205.40</ele>
        <time>2014-08-17T09:40:22Z</time>
      </trkpt>
      <trkpt lat="41.673002693" lon="2.496709589">
        <ele>203.90</ele>
        <time>2014-08-17T09:40:24Z</time>
      </trkpt>
      <trkpt lat="41.673202937" lon="2.496513033">
        <ele>200.60</ele>
        <time>2014-08-17T09:40:28Z</time>
      </trkpt>
      <trkpt lat="41.673491693" lon="2.496390658">
        <ele>196.30</ele>
        <time>2014-08-17T09:40:35Z</time>
      </trkpt>
      <trkpt lat="41.673528238" lon="2.496378169">
        <ele>195.80</ele>
        <time>2014-08-17T09:40:36Z</time>
      </trkpt>
      <trkpt lat="41.673648602" lon="2.496325027">
        <ele>193.80</ele>
        <time>2014-08-17T09:40:39Z</time>
      </trkpt>
      <trkpt lat="41.673736193" lon="2.496295188">
        <ele>193.40</ele>
        <time>2014-08-17T09:40:41Z</time>
      </trkpt>
      <trkpt lat="41.674151433" lon="2.496208016">
        <ele>191.90</ele>
        <time>2014-08-17T09:40:48Z</time>
      </trkpt>
      <trkpt lat="41.674307504" lon="2.496105338">
        <ele>191.00</ele>
        <time>2014-08-17T09:40:52Z</time>
      </trkpt>
      <trkpt lat="41.674304905" lon="2.496031912">
        <ele>191.00</ele>
        <time>2014-08-17T09:40:56Z</time>
      </trkpt>
      <trkpt lat="41.674290824" lon="2.496011209">
        <ele>191.00</ele>
        <time>2014-08-17T09:41:09Z</time>
      </trkpt>
      <trkpt lat="41.674314964" lon="2.495991008">
        <ele>191.00</ele>
        <time>2014-08-17T09:41:21Z</time>
      </trkpt>
      <trkpt lat="41.674324519" lon="2.495946501">
        <ele>191.00</ele>
        <time>2014-08-17T09:41:30Z</time>
      </trkpt>
      <trkpt lat="41.674309432" lon="2.495899730">
        <ele>191.00</ele>
        <time>2014-08-17T09:41:35Z</time>
      </trkpt>
      <trkpt lat="41.674245394" lon="2.495764110">
        <ele>191.00</ele>
        <time>2014-08-17T09:41:40Z</time>
      </trkpt>
      <trkpt lat="41.674090245" lon="2.495632095">
        <ele>191.00</ele>
        <time>2014-08-17T09:41:47Z</time>
      </trkpt>
      <trkpt lat="41.673876255" lon="2.495432690">
        <ele>191.00</ele>
        <time>2014-08-17T09:41:56Z</time>
      </trkpt>
      <trkpt lat="41.673681711" lon="2.495270165">
        <ele>191.00</ele>
        <time>2014-08-17T09:42:03Z</time>
      </trkpt>
      <trkpt lat="41.673507535" lon="2.495131780">
        <ele>192.40</ele>
        <time>2014-08-17T09:42:10Z</time>
      </trkpt>
      <trkpt lat="41.673490436" lon="2.495115770">
        <ele>192.40</ele>
        <time>2014-08-17T09:42:11Z</time>
      </trkpt>
      <trkpt lat="41.673426985" lon="2.495063216">
        <ele>192.90</ele>
        <time>2014-08-17T09:42:14Z</time>
      </trkpt>
      <trkpt lat="41.673383734" lon="2.495045865">
        <ele>193.80</ele>
        <time>2014-08-17T09:42:16Z</time>
      </trkpt>
      <trkpt lat="41.673222215" lon="2.495166648">
        <ele>193.80</ele>
        <time>2014-08-17T09:42:22Z</time>
      </trkpt>
      <trkpt lat="41.672998334" lon="2.495452304">
        <ele>193.40</ele>
        <time>2014-08-17T09:42:30Z</time>
      </trkpt>
      <trkpt lat="41.672764395" lon="2.495750448">
        <ele>193.40</ele>
        <time>2014-08-17T09:42:38Z</time>
      </trkpt>
      <trkpt lat="41.672567924" lon="2.496013556">
        <ele>193.40</ele>
        <time>2014-08-17T09:42:45Z</time>
      </trkpt>
      <trkpt lat="41.672427443" lon="2.496062338">
        <ele>193.40</ele>
        <time>2014-08-17T09:42:49Z</time>
      </trkpt>
      <trkpt lat="41.672163245" lon="2.496161915">
        <ele>193.40</ele>
        <time>2014-08-17T09:42:56Z</time>
      </trkpt>
      <trkpt lat="41.672012287" lon="2.496242214">
        <ele>192.90</ele>
        <time>2014-08-17T09:43:01Z</time>
      </trkpt>
      <trkpt lat="41.671996697" lon="2.496259648">
        <ele>192.90</ele>
        <time>2014-08-17T09:43:02Z</time>
      </trkpt>
      <trkpt lat="41.671898377" lon="2.496319495">
        <ele>192.90</ele>
        <time>2014-08-17T09:43:09Z</time>
      </trkpt>
      <trkpt lat="41.671762171" lon="2.496385461">
        <ele>193.40</ele>
        <time>2014-08-17T09:43:15Z</time>
      </trkpt>
      <trkpt lat="41.671618757" lon="2.496488726">
        <ele>193.40</ele>
        <time>2014-08-17T09:43:21Z</time>
      </trkpt>
      <trkpt lat="41.671479031" lon="2.496599283">
        <ele>193.40</ele>
        <time>2014-08-17T09:43:27Z</time>
      </trkpt>
      <trkpt lat="41.671354392" lon="2.496694585">
        <ele>194.30</ele>
        <time>2014-08-17T09:43:32Z</time>
      </trkpt>
      <trkpt lat="41.671193962" lon="2.496906061">
        <ele>194.80</ele>
        <time>2014-08-17T09:43:38Z</time>
      </trkpt>
      <trkpt lat="41.671066138" lon="2.497119967">
        <ele>195.30</ele>
        <time>2014-08-17T09:43:44Z</time>
      </trkpt>
      <trkpt lat="41.670930351" lon="2.497448621">
        <ele>195.30</ele>
        <time>2014-08-17T09:43:52Z</time>
      </trkpt>
      <trkpt lat="41.670816357" lon="2.497680716">
        <ele>195.80</ele>
        <time>2014-08-17T09:43:58Z</time>
      </trkpt>
      <trkpt lat="41.670668584" lon="2.497917002">
        <ele>195.30</ele>
        <time>2014-08-17T09:44:04Z</time>
      </trkpt>
      <trkpt lat="41.670582335" lon="2.498066284">
        <ele>195.30</ele>
        <time>2014-08-17T09:44:08Z</time>
      </trkpt>
      <trkpt lat="41.670466580" lon="2.498170806">
        <ele>197.20</ele>
        <time>2014-08-17T09:44:14Z</time>
      </trkpt>
      <trkpt lat="41.670273294" lon="2.498274658">
        <ele>196.70</ele>
        <time>2014-08-17T09:44:21Z</time>
      </trkpt>
      <trkpt lat="41.670127365" lon="2.498366691">
        <ele>196.70</ele>
        <time>2014-08-17T09:44:26Z</time>
      </trkpt>
      <trkpt lat="41.670063746" lon="2.498416983">
        <ele>196.70</ele>
        <time>2014-08-17T09:44:28Z</time>
      </trkpt>
      <trkpt lat="41.669881356" lon="2.498476746">
        <ele>196.73</ele>
        <time>2014-08-17T09:44:34Z</time>
      </trkpt>
      <trkpt lat="41.669854869" lon="2.498477584">
        <ele>196.25</ele>
        <time>2014-08-17T09:44:35Z</time>
      </trkpt>
      <trkpt lat="41.669640879" lon="2.498480434">
        <ele>197.21</ele>
        <time>2014-08-17T09:44:42Z</time>
      </trkpt>
      <trkpt lat="41.669465027" lon="2.498490324">
        <ele>197.21</ele>
        <time>2014-08-17T09:44:48Z</time>
      </trkpt>
      <trkpt lat="41.669155483" lon="2.498569952">
        <ele>196.73</ele>
        <time>2014-08-17T09:44:57Z</time>
      </trkpt>
      <trkpt lat="41.668921209" lon="2.498679169">
        <ele>197.21</ele>
        <time>2014-08-17T09:45:04Z</time>
      </trkpt>
      <trkpt lat="41.668846862" lon="2.498729125">
        <ele>197.21</ele>
        <time>2014-08-17T09:45:07Z</time>
      </trkpt>
      <trkpt lat="41.668706129" lon="2.498770280">
        <ele>198.17</ele>
        <time>2014-08-17T09:45:13Z</time>
      </trkpt>
      <trkpt lat="41.668606301" lon="2.498816800">
        <ele>198.17</ele>
        <time>2014-08-17T09:45:16Z</time>
      </trkpt>
      <trkpt lat="41.668452744" lon="2.498944624">
        <ele>198.65</ele>
        <time>2014-08-17T09:45:22Z</time>
      </trkpt>
      <trkpt lat="41.668337912" lon="2.499033388">
        <ele>198.65</ele>
        <time>2014-08-17T09:45:27Z</time>
      </trkpt>
      <trkpt lat="41.668272785" lon="2.499184178">
        <ele>198.65</ele>
        <time>2014-08-17T09:45:32Z</time>
      </trkpt>
      <trkpt lat="41.668260966" lon="2.499268668">
        <ele>198.17</ele>
        <time>2014-08-17T09:45:34Z</time>
      </trkpt>
      <trkpt lat="41.668245544" lon="2.499415016">
        <ele>197.21</ele>
        <time>2014-08-17T09:45:37Z</time>
      </trkpt>
      <trkpt lat="41.668194833" lon="2.499564801">
        <ele>198.17</ele>
        <time>2014-08-17T09:45:42Z</time>
      </trkpt>
      <trkpt lat="41.668183853" lon="2.499854982">
        <ele>198.65</ele>
        <time>2014-08-17T09:45:49Z</time>
      </trkpt>
      <trkpt lat="41.668213022" lon="2.500215572">
        <ele>199.13</ele>
        <time>2014-08-17T09:45:57Z</time>
      </trkpt>
      <trkpt lat="41.668198521" lon="2.500501814">
        <ele>199.13</ele>
        <time>2014-08-17T09:46:03Z</time>
      </trkpt>
      <trkpt lat="41.668225511" lon="2.500700297">
        <ele>199.61</ele>
        <time>2014-08-17T09:46:09Z</time>
      </trkpt>
      <trkpt lat="41.668274461" lon="2.500965836">
        <ele>200.09</ele>
        <time>2014-08-17T09:46:16Z</time>
      </trkpt>
      <trkpt lat="41.668314946" lon="2.501223160">
        <ele>199.61</ele>
        <time>2014-08-17T09:46:23Z</time>
      </trkpt>
      <trkpt lat="41.668374206" lon="2.501507726">
        <ele>200.09</ele>
        <time>2014-08-17T09:46:31Z</time>
      </trkpt>
      <trkpt lat="41.668466239" lon="2.501813078">
        <ele>200.57</ele>
        <time>2014-08-17T09:46:39Z</time>
      </trkpt>
      <trkpt lat="41.668512507" lon="2.502148019">
        <ele>200.57</ele>
        <time>2014-08-17T09:46:47Z</time>
      </trkpt>
      <trkpt lat="41.668621304" lon="2.502452869">
        <ele>200.57</ele>
        <time>2014-08-17T09:46:55Z</time>
      </trkpt>
      <trkpt lat="41.668668746" lon="2.502748583">
        <ele>201.05</ele>
        <time>2014-08-17T09:47:02Z</time>
      </trkpt>
      <trkpt lat="41.668754158" lon="2.503100455">
        <ele>201.53</ele>
        <time>2014-08-17T09:47:11Z</time>
      </trkpt>
      <trkpt lat="41.668876785" lon="2.503537906">
        <ele>202.01</ele>
        <time>2014-08-17T09:47:21Z</time>
      </trkpt>
      <trkpt lat="41.668894303" lon="2.503825154">
        <ele>202.01</ele>
        <time>2014-08-17T09:47:26Z</time>
      </trkpt>
      <trkpt lat="41.668793972" lon="2.504218098">
        <ele>202.01</ele>
        <time>2014-08-17T09:47:34Z</time>
      </trkpt>
      <trkpt lat="41.668716858" lon="2.504608946">
        <ele>204.42</ele>
        <time>2014-08-17T09:47:41Z</time>
      </trkpt>
      <trkpt lat="41.668769413" lon="2.504944725">
        <ele>208.26</ele>
        <time>2014-08-17T09:47:48Z</time>
      </trkpt>
      <trkpt lat="41.668777292" lon="2.504978169">
        <ele>208.26</ele>
        <time>2014-08-17T09:47:49Z</time>
      </trkpt>
      <trkpt lat="41.668798079" lon="2.505045308">
        <ele>209.22</ele>
        <time>2014-08-17T09:47:51Z</time>
      </trkpt>
      <trkpt lat="41.668786260" lon="2.505231805">
        <ele>211.15</ele>
        <time>2014-08-17T09:47:56Z</time>
      </trkpt>
      <trkpt lat="41.668767401" lon="2.505523160">
        <ele>213.07</ele>
        <time>2014-08-17T09:48:04Z</time>
      </trkpt>
      <trkpt lat="41.668806880" lon="2.505779814">
        <ele>214.51</ele>
        <time>2014-08-17T09:48:12Z</time>
      </trkpt>
      <trkpt lat="41.668846526" lon="2.506080892">
        <ele>215.95</ele>
        <time>2014-08-17T09:48:22Z</time>
      </trkpt>
      <trkpt lat="41.668859937" lon="2.506223552">
        <ele>216.91</ele>
        <time>2014-08-17T09:48:27Z</time>
      </trkpt>
      <trkpt lat="41.668844431" lon="2.506409798">
        <ele>217.88</ele>
        <time>2014-08-17T09:48:35Z</time>
      </trkpt>
      <trkpt lat="41.668822051" lon="2.506448606">
        <ele>218.36</ele>
        <time>2014-08-17T09:48:37Z</time>
      </trkpt>
      <trkpt lat="41.668772346" lon="2.506694531">
        <ele>216.43</ele>
        <time>2014-08-17T09:48:42Z</time>
      </trkpt>
      <trkpt lat="41.668791289" lon="2.506758317">
        <ele>216.43</ele>
        <time>2014-08-17T09:48:43Z</time>
      </trkpt>
      <trkpt lat="41.668854573" lon="2.506857392">
        <ele>215.95</ele>
        <time>2014-08-17T09:48:45Z</time>
      </trkpt>
      <trkpt lat="41.669005698" lon="2.507084122">
        <ele>215.95</ele>
        <time>2014-08-17T09:48:51Z</time>
      </trkpt>
      <trkpt lat="41.669064539" lon="2.507245138">
        <ele>215.95</ele>
        <time>2014-08-17T09:48:55Z</time>
      </trkpt>
      <trkpt lat="41.669044674" lon="2.507542361">
        <ele>214.51</ele>
        <time>2014-08-17T09:48:59Z</time>
      </trkpt>
      <trkpt lat="41.668977787" lon="2.507806139">
        <ele>214.03</ele>
        <time>2014-08-17T09:49:02Z</time>
      </trkpt>
      <trkpt lat="41.668967812" lon="2.508186510">
        <ele>213.07</ele>
        <time>2014-08-17T09:49:07Z</time>
      </trkpt>
      <trkpt lat="41.669034113" lon="2.508310730">
        <ele>212.59</ele>
        <time>2014-08-17T09:49:09Z</time>
      </trkpt>
      <trkpt lat="41.669118435" lon="2.508679114">
        <ele>212.11</ele>
        <time>2014-08-17T09:49:15Z</time>
      </trkpt>
      <trkpt lat="41.669154645" lon="2.508952364">
        <ele>212.11</ele>
        <time>2014-08-17T09:49:20Z</time>
      </trkpt>
      <trkpt lat="41.669116675" lon="2.509302477">
        <ele>211.63</ele>
        <time>2014-08-17T09:49:26Z</time>
      </trkpt>
      <trkpt lat="41.669067892" lon="2.509472881">
        <ele>214.03</ele>
        <time>2014-08-17T09:49:30Z</time>
      </trkpt>
      <trkpt lat="41.669081555" lon="2.509758284">
        <ele>214.51</ele>
        <time>2014-08-17T09:49:36Z</time>
      </trkpt>
      <trkpt lat="41.669072418" lon="2.509894071">
        <ele>215.47</ele>
        <time>2014-08-17T09:49:41Z</time>
      </trkpt>
      <trkpt lat="41.669055822" lon="2.509976801">
        <ele>215.95</ele>
        <time>2014-08-17T09:49:45Z</time>
      </trkpt>
      <trkpt lat="41.669126146" lon="2.510011083">
        <ele>215.95</ele>
        <time>2014-08-17T09:49:51Z</time>
      </trkpt>
      <trkpt lat="41.669276350" lon="2.509959199">
        <ele>215.95</ele>
        <time>2014-08-17T09:49:59Z</time>
      </trkpt>
      <trkpt lat="41.669427895" lon="2.509869680">
        <ele>215.95</ele>
        <time>2014-08-17T09:50:06Z</time>
      </trkpt>
      <trkpt lat="41.669472068" lon="2.509990882">
        <ele>216.43</ele>
        <time>2014-08-17T09:50:12Z</time>
      </trkpt>
      <trkpt lat="41.669458908" lon="2.510254661">
        <ele>217.40</ele>
        <time>2014-08-17T09:50:21Z</time>
      </trkpt>
      <trkpt lat="41.669456477" lon="2.510421209">
        <ele>218.36</ele>
        <time>2014-08-17T09:50:27Z</time>
      </trkpt>
      <trkpt lat="41.669472319" lon="2.510621956">
        <ele>219.32</ele>
        <time>2014-08-17T09:50:34Z</time>
      </trkpt>
      <trkpt lat="41.669493609" lon="2.510880202">
        <ele>220.28</ele>
        <time>2014-08-17T09:50:42Z</time>
      </trkpt>
      <trkpt lat="41.669486401" lon="2.511173150">
        <ele>221.24</ele>
        <time>2014-08-17T09:50:50Z</time>
      </trkpt>
      <trkpt lat="41.669598634" lon="2.511528542">
        <ele>222.20</ele>
        <time>2014-08-17T09:51:00Z</time>
      </trkpt>
      <trkpt lat="41.669686728" lon="2.511755692">
        <ele>222.68</ele>
        <time>2014-08-17T09:51:07Z</time>
      </trkpt>
      <trkpt lat="41.669710365" lon="2.512163974">
        <ele>223.64</ele>
        <time>2014-08-17T09:51:18Z</time>
      </trkpt>
      <trkpt lat="41.669713802" lon="2.512379389">
        <ele>224.12</ele>
        <time>2014-08-17T09:51:25Z</time>
      </trkpt>
      <trkpt lat="41.669714472" lon="2.512428926">
        <ele>224.61</ele>
        <time>2014-08-17T09:51:27Z</time>
      </trkpt>
      <trkpt lat="41.669593857" lon="2.512626739">
        <ele>224.61</ele>
        <time>2014-08-17T09:51:34Z</time>
      </trkpt>
      <trkpt lat="41.669537614" lon="2.512712067">
        <ele>223.64</ele>
        <time>2014-08-17T09:51:37Z</time>
      </trkpt>
      <trkpt lat="41.669448934" lon="2.512810471">
        <ele>223.16</ele>
        <time>2014-08-17T09:51:42Z</time>
      </trkpt>
      <trkpt lat="41.669424123" lon="2.512846010">
        <ele>222.68</ele>
        <time>2014-08-17T09:51:49Z</time>
      </trkpt>
      <trkpt lat="41.669425464" lon="2.512850285">
        <ele>222.68</ele>
        <time>2014-08-17T09:52:01Z</time>
      </trkpt>
      <trkpt lat="41.669444156" lon="2.512861097">
        <ele>222.68</ele>
        <time>2014-08-17T09:52:18Z</time>
      </trkpt>
      <trkpt lat="41.669422028" lon="2.512846178">
        <ele>222.68</ele>
        <time>2014-08-17T09:52:35Z</time>
      </trkpt>
      <trkpt lat="41.669417501" lon="2.512837041">
        <ele>222.68</ele>
        <time>2014-08-17T09:52:52Z</time>
      </trkpt>
      <trkpt lat="41.669393529" lon="2.512870653">
        <ele>222.68</ele>
        <time>2014-08-17T09:53:17Z</time>
      </trkpt>
      <trkpt lat="41.669369138" lon="2.512864702">
        <ele>222.68</ele>
        <time>2014-08-17T09:53:32Z</time>
      </trkpt>
      <trkpt lat="41.669344327" lon="2.512874005">
        <ele>223.16</ele>
        <time>2014-08-17T09:53:51Z</time>
      </trkpt>
      <trkpt lat="41.669326139" lon="2.512855230">
        <ele>223.16</ele>
        <time>2014-08-17T09:54:11Z</time>
      </trkpt>
      <trkpt lat="41.669354637" lon="2.512871323">
        <ele>223.16</ele>
        <time>2014-08-17T09:54:33Z</time>
      </trkpt>
      <trkpt lat="41.669348602" lon="2.512871826">
        <ele>223.64</ele>
        <time>2014-08-17T09:54:51Z</time>
      </trkpt>
      <trkpt lat="41.669323373" lon="2.512861516">
        <ele>223.64</ele>
        <time>2014-08-17T09:55:11Z</time>
      </trkpt>
      <trkpt lat="41.669312728" lon="2.512862941">
        <ele>223.64</ele>
        <time>2014-08-17T09:55:31Z</time>
      </trkpt>
      <trkpt lat="41.669313650" lon="2.512870317">
        <ele>223.64</ele>
        <time>2014-08-17T09:55:51Z</time>
      </trkpt>
      <trkpt lat="41.669319517" lon="2.512851542">
        <ele>223.16</ele>
        <time>2014-08-17T09:56:11Z</time>
      </trkpt>
      <trkpt lat="41.669337287" lon="2.512851123">
        <ele>223.64</ele>
        <time>2014-08-17T09:56:36Z</time>
      </trkpt>
      <trkpt lat="41.669376765" lon="2.512884651">
        <ele>223.64</ele>
        <time>2014-08-17T09:56:59Z</time>
      </trkpt>
      <trkpt lat="41.669364444" lon="2.512894960">
        <ele>223.64</ele>
        <time>2014-08-17T09:57:25Z</time>
      </trkpt>
      <trkpt lat="41.669351117" lon="2.512895966">
        <ele>223.64</ele>
        <time>2014-08-17T09:57:48Z</time>
      </trkpt>
      <trkpt lat="41.669326893" lon="2.512891524">
        <ele>223.64</ele>
        <time>2014-08-17T09:58:12Z</time>
      </trkpt>
      <trkpt lat="41.669312308" lon="2.512874089">
        <ele>224.12</ele>
        <time>2014-08-17T09:58:33Z</time>
      </trkpt>
      <trkpt lat="41.669340136" lon="2.512841819">
        <ele>224.12</ele>
        <time>2014-08-17T09:58:59Z</time>
      </trkpt>
      <trkpt lat="41.669355727" lon="2.512832264">
        <ele>224.12</ele>
        <time>2014-08-17T09:59:16Z</time>
      </trkpt>
      <trkpt lat="41.669344495" lon="2.512833521">
        <ele>223.64</ele>
        <time>2014-08-17T09:59:38Z</time>
      </trkpt>
      <trkpt lat="41.669335023" lon="2.512874089">
        <ele>224.12</ele>
        <time>2014-08-17T09:59:58Z</time>
      </trkpt>
      <trkpt lat="41.669342483" lon="2.512891524">
        <ele>224.12</ele>
        <time>2014-08-17T10:00:18Z</time>
      </trkpt>
      <trkpt lat="41.669312979" lon="2.512923123">
        <ele>224.12</ele>
        <time>2014-08-17T10:00:42Z</time>
      </trkpt>
      <trkpt lat="41.669318763" lon="2.512866043">
        <ele>224.61</ele>
        <time>2014-08-17T10:01:06Z</time>
      </trkpt>
      <trkpt lat="41.669340220" lon="2.512894709">
        <ele>224.61</ele>
        <time>2014-08-17T10:01:33Z</time>
      </trkpt>
      <trkpt lat="41.669338879" lon="2.512925303">
        <ele>224.61</ele>
        <time>2014-08-17T10:01:54Z</time>
      </trkpt>
      <trkpt lat="41.669316164" lon="2.512918346">
        <ele>224.61</ele>
        <time>2014-08-17T10:02:18Z</time>
      </trkpt>
      <trkpt lat="41.669310548" lon="2.512881549">
        <ele>225.09</ele>
        <time>2014-08-17T10:02:45Z</time>
      </trkpt>
      <trkpt lat="41.669320607" lon="2.512853386">
        <ele>225.09</ele>
        <time>2014-08-17T10:03:11Z</time>
      </trkpt>
      <trkpt lat="41.669329743" lon="2.512868222">
        <ele>225.09</ele>
        <time>2014-08-17T10:03:36Z</time>
      </trkpt>
      <trkpt lat="41.669369473" lon="2.512896804">
        <ele>225.09</ele>
        <time>2014-08-17T10:04:02Z</time>
      </trkpt>
      <trkpt lat="41.669390679" lon="2.512879202">
        <ele>225.09</ele>
        <time>2014-08-17T10:04:25Z</time>
      </trkpt>
      <trkpt lat="41.669382465" lon="2.512901666">
        <ele>225.09</ele>
        <time>2014-08-17T10:04:53Z</time>
      </trkpt>
      <trkpt lat="41.669361091" lon="2.512912478">
        <ele>225.09</ele>
        <time>2014-08-17T10:05:12Z</time>
      </trkpt>
      <trkpt lat="41.669349357" lon="2.512928907">
        <ele>225.09</ele>
        <time>2014-08-17T10:05:26Z</time>
      </trkpt>
      <trkpt lat="41.669408700" lon="2.512929242">
        <ele>225.09</ele>
        <time>2014-08-17T10:05:51Z</time>
      </trkpt>
      <trkpt lat="41.669392188" lon="2.512899906">
        <ele>225.09</ele>
        <time>2014-08-17T10:06:12Z</time>
      </trkpt>
      <trkpt lat="41.669387578" lon="2.512905605">
        <ele>225.09</ele>
        <time>2014-08-17T10:06:34Z</time>
      </trkpt>
      <trkpt lat="41.669393445" lon="2.512880124">
        <ele>225.57</ele>
        <time>2014-08-17T10:06:48Z</time>
      </trkpt>
      <trkpt lat="41.669381878" lon="2.512899067">
        <ele>225.57</ele>
        <time>2014-08-17T10:07:08Z</time>
      </trkpt>
      <trkpt lat="41.669352625" lon="2.512905605">
        <ele>225.57</ele>
        <time>2014-08-17T10:07:25Z</time>
      </trkpt>
      <trkpt lat="41.669357990" lon="2.512889596">
        <ele>225.57</ele>
        <time>2014-08-17T10:07:38Z</time>
      </trkpt>
      <trkpt lat="41.669352542" lon="2.512881130">
        <ele>225.57</ele>
        <time>2014-08-17T10:07:48Z</time>
      </trkpt>
      <trkpt lat="41.669360169" lon="2.512857409">
        <ele>225.57</ele>
        <time>2014-08-17T10:07:58Z</time>
      </trkpt>
      <trkpt lat="41.669489418" lon="2.512751630">
        <ele>225.57</ele>
        <time>2014-08-17T10:08:09Z</time>
      </trkpt>
      <trkpt lat="41.669556641" lon="2.512681054">
        <ele>227.01</ele>
        <time>2014-08-17T10:08:14Z</time>
      </trkpt>
      <trkpt lat="41.669581535" lon="2.512655825">
        <ele>227.01</ele>
        <time>2014-08-17T10:08:16Z</time>
      </trkpt>
      <trkpt lat="41.669653033" lon="2.512535041">
        <ele>227.97</ele>
        <time>2014-08-17T10:08:23Z</time>
      </trkpt>
      <trkpt lat="41.669646830" lon="2.512373438">
        <ele>228.45</ele>
        <time>2014-08-17T10:08:29Z</time>
      </trkpt>
      <trkpt lat="41.669656050" lon="2.512179146">
        <ele>227.01</ele>
        <time>2014-08-17T10:08:34Z</time>
      </trkpt>
      <trkpt lat="41.669643142" lon="2.511803385">
        <ele>226.53</ele>
        <time>2014-08-17T10:08:42Z</time>
      </trkpt>
      <trkpt lat="41.669536357" lon="2.511509348">
        <ele>226.05</ele>
        <time>2014-08-17T10:08:48Z</time>
      </trkpt>
      <trkpt lat="41.669519425" lon="2.511458051">
        <ele>225.57</ele>
        <time>2014-08-17T10:08:49Z</time>
      </trkpt>
      <trkpt lat="41.669445748" lon="2.511134258">
        <ele>224.12</ele>
        <time>2014-08-17T10:08:56Z</time>
      </trkpt>
      <trkpt lat="41.669461758" lon="2.510825636">
        <ele>224.12</ele>
        <time>2014-08-17T10:09:04Z</time>
      </trkpt>
      <trkpt lat="41.669470726" lon="2.510561187">
        <ele>223.16</ele>
        <time>2014-08-17T10:09:10Z</time>
      </trkpt>
      <trkpt lat="41.669475420" lon="2.510506285">
        <ele>223.16</ele>
        <time>2014-08-17T10:09:11Z</time>
      </trkpt>
      <trkpt lat="41.669474666" lon="2.510382569">
        <ele>222.20</ele>
        <time>2014-08-17T10:09:13Z</time>
      </trkpt>
      <trkpt lat="41.669467541" lon="2.509911254">
        <ele>221.24</ele>
        <time>2014-08-17T10:09:21Z</time>
      </trkpt>
      <trkpt lat="41.669373915" lon="2.509883594">
        <ele>219.80</ele>
        <time>2014-08-17T10:09:26Z</time>
      </trkpt>
      <trkpt lat="41.669354805" lon="2.509909243">
        <ele>219.80</ele>
        <time>2014-08-17T10:09:27Z</time>
      </trkpt>
      <trkpt lat="41.669145425" lon="2.510051567">
        <ele>219.80</ele>
        <time>2014-08-17T10:09:36Z</time>
      </trkpt>
      <trkpt lat="41.669008213" lon="2.509959869">
        <ele>219.80</ele>
        <time>2014-08-17T10:09:42Z</time>
      </trkpt>
      <trkpt lat="41.668929088" lon="2.509996414">
        <ele>220.76</ele>
        <time>2014-08-17T10:09:47Z</time>
      </trkpt>
      <trkpt lat="41.668814759" lon="2.510152318">
        <ele>221.72</ele>
        <time>2014-08-17T10:09:56Z</time>
      </trkpt>
      <trkpt lat="41.668685761" lon="2.510264132">
        <ele>223.64</ele>
        <time>2014-08-17T10:10:05Z</time>
      </trkpt>
      <trkpt lat="41.668557853" lon="2.510334959">
        <ele>225.57</ele>
        <time>2014-08-17T10:10:13Z</time>
      </trkpt>
      <trkpt lat="41.668397424" lon="2.510438644">
        <ele>226.53</ele>
        <time>2014-08-17T10:10:22Z</time>
      </trkpt>
      <trkpt lat="41.668260128" lon="2.510525312">
        <ele>227.01</ele>
        <time>2014-08-17T10:10:30Z</time>
      </trkpt>
      <trkpt lat="41.668135070" lon="2.510579040">
        <ele>227.49</ele>
        <time>2014-08-17T10:10:38Z</time>
      </trkpt>
      <trkpt lat="41.668015125" lon="2.510624722">
        <ele>228.45</ele>
        <time>2014-08-17T10:10:46Z</time>
      </trkpt>
      <trkpt lat="41.667855198" lon="2.510664117">
        <ele>228.93</ele>
        <time>2014-08-17T10:10:55Z</time>
      </trkpt>
      <trkpt lat="41.667723854" lon="2.510763107">
        <ele>229.41</ele>
        <time>2014-08-17T10:11:02Z</time>
      </trkpt>
      <trkpt lat="41.667665684" lon="2.510838628">
        <ele>229.41</ele>
        <time>2014-08-17T10:11:04Z</time>
      </trkpt>
      <trkpt lat="41.667612878" lon="2.511078853">
        <ele>229.89</ele>
        <time>2014-08-17T10:11:11Z</time>
      </trkpt>
      <trkpt lat="41.667577087" lon="2.511202738">
        <ele>231.81</ele>
        <time>2014-08-17T10:11:19Z</time>
      </trkpt>
      <trkpt lat="41.667504248" lon="2.511362162">
        <ele>232.78</ele>
        <time>2014-08-17T10:11:27Z</time>
      </trkpt>
      <trkpt lat="41.667389165" lon="2.511568273">
        <ele>232.78</ele>
        <time>2014-08-17T10:11:34Z</time>
      </trkpt>
      <trkpt lat="41.667283050" lon="2.511765834">
        <ele>235.18</ele>
        <time>2014-08-17T10:11:42Z</time>
      </trkpt>
      <trkpt lat="41.667201913" lon="2.511925090">
        <ele>236.14</ele>
        <time>2014-08-17T10:11:50Z</time>
      </trkpt>
      <trkpt lat="41.667149526" lon="2.512184091">
        <ele>236.62</ele>
        <time>2014-08-17T10:11:59Z</time>
      </trkpt>
      <trkpt lat="41.667084734" lon="2.512402021">
        <ele>237.58</ele>
        <time>2014-08-17T10:12:07Z</time>
      </trkpt>
      <trkpt lat="41.666930507" lon="2.512438649">
        <ele>238.06</ele>
        <time>2014-08-17T10:12:13Z</time>
      </trkpt>
      <trkpt lat="41.666770748" lon="2.512485840">
        <ele>238.06</ele>
        <time>2014-08-17T10:12:18Z</time>
      </trkpt>
      <trkpt lat="41.666711572" lon="2.512509309">
        <ele>238.54</ele>
        <time>2014-08-17T10:12:24Z</time>
      </trkpt>
      <trkpt lat="41.666655916" lon="2.512548033">
        <ele>237.10</ele>
        <time>2014-08-17T10:12:30Z</time>
      </trkpt>
      <trkpt lat="41.666644768" lon="2.512568737">
        <ele>236.62</ele>
        <time>2014-08-17T10:12:32Z</time>
      </trkpt>
      <trkpt lat="41.666611659" lon="2.512637384">
        <ele>234.22</ele>
        <time>2014-08-17T10:12:36Z</time>
      </trkpt>
      <trkpt lat="41.666532534" lon="2.512712905">
        <ele>230.85</ele>
        <time>2014-08-17T10:12:40Z</time>
      </trkpt>
      <trkpt lat="41.666483751" lon="2.512692873">
        <ele>230.85</ele>
        <time>2014-08-17T10:12:44Z</time>
      </trkpt>
      <trkpt lat="41.666455588" lon="2.512680300">
        <ele>230.85</ele>
        <time>2014-08-17T10:12:50Z</time>
      </trkpt>
      <trkpt lat="41.666400519" lon="2.512649119">
        <ele>230.85</ele>
        <time>2014-08-17T10:12:54Z</time>
      </trkpt>
      <trkpt lat="41.666274874" lon="2.512565635">
        <ele>231.81</ele>
        <time>2014-08-17T10:13:04Z</time>
      </trkpt>
      <trkpt lat="41.666139088" lon="2.512483493">
        <ele>233.26</ele>
        <time>2014-08-17T10:13:13Z</time>
      </trkpt>
      <trkpt lat="41.666084857" lon="2.512430687">
        <ele>234.22</ele>
        <time>2014-08-17T10:13:19Z</time>
      </trkpt>
      <trkpt lat="41.666078403" lon="2.512423562">
        <ele>234.22</ele>
        <time>2014-08-17T10:13:20Z</time>
      </trkpt>
      <trkpt lat="41.666041606" lon="2.512401685">
        <ele>234.70</ele>
        <time>2014-08-17T10:13:23Z</time>
      </trkpt>
      <trkpt lat="41.665958960" lon="2.512409816">
        <ele>235.66</ele>
        <time>2014-08-17T10:13:29Z</time>
      </trkpt>
      <trkpt lat="41.665859383" lon="2.512397913">
        <ele>236.14</ele>
        <time>2014-08-17T10:13:36Z</time>
      </trkpt>
      <trkpt lat="41.665759136" lon="2.512422975">
        <ele>238.54</ele>
        <time>2014-08-17T10:13:43Z</time>
      </trkpt>
      <trkpt lat="41.665723597" lon="2.512462706">
        <ele>239.51</ele>
        <time>2014-08-17T10:13:47Z</time>
      </trkpt>
      <trkpt lat="41.665767685" lon="2.512588769">
        <ele>242.39</ele>
        <time>2014-08-17T10:13:56Z</time>
      </trkpt>
      <trkpt lat="41.665791658" lon="2.512676109">
        <ele>244.79</ele>
        <time>2014-08-17T10:14:03Z</time>
      </trkpt>
      <trkpt lat="41.665736505" lon="2.512670241">
        <ele>245.75</ele>
        <time>2014-08-17T10:14:12Z</time>
      </trkpt>
      <trkpt lat="41.665662576" lon="2.512613664">
        <ele>246.72</ele>
        <time>2014-08-17T10:14:21Z</time>
      </trkpt>
      <trkpt lat="41.665591833" lon="2.512563707">
        <ele>248.16</ele>
        <time>2014-08-17T10:14:29Z</time>
      </trkpt>
      <trkpt lat="41.665526706" lon="2.512519200">
        <ele>249.12</ele>
        <time>2014-08-17T10:14:35Z</time>
      </trkpt>
      <trkpt lat="41.665464177" lon="2.512446780">
        <ele>249.12</ele>
        <time>2014-08-17T10:14:42Z</time>
      </trkpt>
      <trkpt lat="41.665433834" lon="2.512378467">
        <ele>250.08</ele>
        <time>2014-08-17T10:14:46Z</time>
      </trkpt>
      <trkpt lat="41.665325959" lon="2.512173027">
        <ele>250.56</ele>
        <time>2014-08-17T10:14:58Z</time>
      </trkpt>
      <trkpt lat="41.665290923" lon="2.512116114">
        <ele>250.56</ele>
        <time>2014-08-17T10:15:02Z</time>
      </trkpt>
      <trkpt lat="41.665152957" lon="2.511972951">
        <ele>251.52</ele>
        <time>2014-08-17T10:15:14Z</time>
      </trkpt>
      <trkpt lat="41.665042232" lon="2.511827357">
        <ele>252.96</ele>
        <time>2014-08-17T10:15:25Z</time>
      </trkpt>
      <trkpt lat="41.664966292" lon="2.511714704">
        <ele>254.41</ele>
        <time>2014-08-17T10:15:32Z</time>
      </trkpt>
      <trkpt lat="41.664791194" lon="2.511557711">
        <ele>255.37</ele>
        <time>2014-08-17T10:15:43Z</time>
      </trkpt>
      <trkpt lat="41.664659095" lon="2.511459140">
        <ele>257.29</ele>
        <time>2014-08-17T10:15:52Z</time>
      </trkpt>
      <trkpt lat="41.664531858" lon="2.511310529">
        <ele>259.21</ele>
        <time>2014-08-17T10:16:03Z</time>
      </trkpt>
      <trkpt lat="41.664445356" lon="2.511159068">
        <ele>260.65</ele>
        <time>2014-08-17T10:16:11Z</time>
      </trkpt>
      <trkpt lat="41.664300852" lon="2.510931080">
        <ele>263.54</ele>
        <time>2014-08-17T10:16:24Z</time>
      </trkpt>
      <trkpt lat="41.664205131" lon="2.510797054">
        <ele>264.98</ele>
        <time>2014-08-17T10:16:32Z</time>
      </trkpt>
      <trkpt lat="41.664115780" lon="2.510616340">
        <ele>267.38</ele>
        <time>2014-08-17T10:16:42Z</time>
      </trkpt>
      <trkpt lat="41.664021903" lon="2.510439901">
        <ele>269.31</ele>
        <time>2014-08-17T10:16:52Z</time>
      </trkpt>
      <trkpt lat="41.663949818" lon="2.510282489">
        <ele>270.75</ele>
        <time>2014-08-17T10:17:01Z</time>
      </trkpt>
      <trkpt lat="41.663929702" lon="2.510236137">
        <ele>271.71</ele>
        <time>2014-08-17T10:17:04Z</time>
      </trkpt>
      <trkpt lat="41.663893743" lon="2.510091633">
        <ele>273.15</ele>
        <time>2014-08-17T10:17:11Z</time>
      </trkpt>
      <trkpt lat="41.663838004" lon="2.509907315">
        <ele>275.07</ele>
        <time>2014-08-17T10:17:20Z</time>
      </trkpt>
      <trkpt lat="41.663752341" lon="2.509734312">
        <ele>276.04</ele>
        <time>2014-08-17T10:17:29Z</time>
      </trkpt>
      <trkpt lat="41.663686207" lon="2.509589473">
        <ele>277.48</ele>
        <time>2014-08-17T10:17:37Z</time>
      </trkpt>
      <trkpt lat="41.663626277" lon="2.509486627">
        <ele>278.92</ele>
        <time>2014-08-17T10:17:44Z</time>
      </trkpt>
      <trkpt lat="41.663537093" lon="2.509334328">
        <ele>281.32</ele>
        <time>2014-08-17T10:17:54Z</time>
      </trkpt>
      <trkpt lat="41.663445898" lon="2.509152440">
        <ele>283.73</ele>
        <time>2014-08-17T10:18:04Z</time>
      </trkpt>
      <trkpt lat="41.663387644" lon="2.509033082">
        <ele>285.17</ele>
        <time>2014-08-17T10:18:12Z</time>
      </trkpt>
      <trkpt lat="41.663334084" lon="2.508910455">
        <ele>286.13</ele>
        <time>2014-08-17T10:18:20Z</time>
      </trkpt>
      <trkpt lat="41.663320840" lon="2.508741643">
        <ele>286.61</ele>
        <time>2014-08-17T10:18:28Z</time>
      </trkpt>
      <trkpt lat="41.663305166" lon="2.508548021">
        <ele>287.57</ele>
        <time>2014-08-17T10:18:37Z</time>
      </trkpt>
      <trkpt lat="41.663263676" lon="2.508376947">
        <ele>289.01</ele>
        <time>2014-08-17T10:18:46Z</time>
      </trkpt>
      <trkpt lat="41.663242553" lon="2.508173853">
        <ele>289.49</ele>
        <time>2014-08-17T10:18:55Z</time>
      </trkpt>
      <trkpt lat="41.663265436" lon="2.507971179">
        <ele>290.94</ele>
        <time>2014-08-17T10:19:04Z</time>
      </trkpt>
      <trkpt lat="41.663244649" lon="2.507785604">
        <ele>291.42</ele>
        <time>2014-08-17T10:19:12Z</time>
      </trkpt>
      <trkpt lat="41.663160411" lon="2.507616708">
        <ele>293.34</ele>
        <time>2014-08-17T10:19:21Z</time>
      </trkpt>
      <trkpt lat="41.663079693" lon="2.507459464">
        <ele>295.26</ele>
        <time>2014-08-17T10:19:31Z</time>
      </trkpt>
      <trkpt lat="41.663034934" lon="2.507345637">
        <ele>296.70</ele>
        <time>2014-08-17T10:19:38Z</time>
      </trkpt>
      <trkpt lat="41.662998640" lon="2.507243881">
        <ele>297.67</ele>
        <time>2014-08-17T10:19:44Z</time>
      </trkpt>
      <trkpt lat="41.662947846" lon="2.507058390">
        <ele>299.11</ele>
        <time>2014-08-17T10:19:54Z</time>
      </trkpt>
      <trkpt lat="41.662913815" lon="2.506878514">
        <ele>300.07</ele>
        <time>2014-08-17T10:20:03Z</time>
      </trkpt>
      <trkpt lat="41.662879533" lon="2.506721353">
        <ele>302.47</ele>
        <time>2014-08-17T10:20:12Z</time>
      </trkpt>
      <trkpt lat="41.662885484" lon="2.506547764">
        <ele>303.43</ele>
        <time>2014-08-17T10:20:20Z</time>
      </trkpt>
      <trkpt lat="41.662945247" lon="2.506402170">
        <ele>304.39</ele>
        <time>2014-08-17T10:20:28Z</time>
      </trkpt>
      <trkpt lat="41.662952539" lon="2.506380964">
        <ele>304.39</ele>
        <time>2014-08-17T10:20:29Z</time>
      </trkpt>
      <trkpt lat="41.662932758" lon="2.506291278">
        <ele>304.88</ele>
        <time>2014-08-17T10:20:34Z</time>
      </trkpt>
      <trkpt lat="41.662778028" lon="2.506209051">
        <ele>305.84</ele>
        <time>2014-08-17T10:20:44Z</time>
      </trkpt>
      <trkpt lat="41.662635033" lon="2.506192874">
        <ele>306.32</ele>
        <time>2014-08-17T10:20:53Z</time>
      </trkpt>
      <trkpt lat="41.662497486" lon="2.506201089">
        <ele>306.80</ele>
        <time>2014-08-17T10:21:02Z</time>
      </trkpt>
      <trkpt lat="41.662354574" lon="2.506252889">
        <ele>306.80</ele>
        <time>2014-08-17T10:21:11Z</time>
      </trkpt>
      <trkpt lat="41.662192049" lon="2.506213410">
        <ele>306.80</ele>
        <time>2014-08-17T10:21:18Z</time>
      </trkpt>
      <trkpt lat="41.662071937" lon="2.506077288">
        <ele>306.80</ele>
        <time>2014-08-17T10:21:25Z</time>
      </trkpt>
      <trkpt lat="41.661972611" lon="2.505857011">
        <ele>307.28</ele>
        <time>2014-08-17T10:21:34Z</time>
      </trkpt>
      <trkpt lat="41.661875884" lon="2.505621564">
        <ele>307.76</ele>
        <time>2014-08-17T10:21:43Z</time>
      </trkpt>
      <trkpt lat="41.661751329" lon="2.505439425">
        <ele>308.24</ele>
        <time>2014-08-17T10:21:51Z</time>
      </trkpt>
      <trkpt lat="41.661594839" lon="2.505257705">
        <ele>309.20</ele>
        <time>2014-08-17T10:22:00Z</time>
      </trkpt>
      <trkpt lat="41.661463997" lon="2.505161984">
        <ele>310.16</ele>
        <time>2014-08-17T10:22:07Z</time>
      </trkpt>
      <trkpt lat="41.661446563" lon="2.505154189">
        <ele>310.64</ele>
        <time>2014-08-17T10:22:08Z</time>
      </trkpt>
      <trkpt lat="41.661314716" lon="2.505137509">
        <ele>311.12</ele>
        <time>2014-08-17T10:22:15Z</time>
      </trkpt>
      <trkpt lat="41.661045321" lon="2.505154943">
        <ele>311.12</ele>
        <time>2014-08-17T10:22:24Z</time>
      </trkpt>
      <trkpt lat="41.660870056" lon="2.505106161">
        <ele>311.12</ele>
        <time>2014-08-17T10:22:31Z</time>
      </trkpt>
      <trkpt lat="41.660683894" lon="2.505055785">
        <ele>311.12</ele>
        <time>2014-08-17T10:22:38Z</time>
      </trkpt>
      <trkpt lat="41.660441321" lon="2.505095851">
        <ele>311.12</ele>
        <time>2014-08-17T10:22:47Z</time>
      </trkpt>
      <trkpt lat="41.660298075" lon="2.505139269">
        <ele>311.12</ele>
        <time>2014-08-17T10:22:53Z</time>
      </trkpt>
      <trkpt lat="41.660029183" lon="2.505157961">
        <ele>311.12</ele>
        <time>2014-08-17T10:23:03Z</time>
      </trkpt>
      <trkpt lat="41.659825168" lon="2.505139018">
        <ele>312.09</ele>
        <time>2014-08-17T10:23:11Z</time>
      </trkpt>
      <trkpt lat="41.659661888" lon="2.505233565">
        <ele>312.57</ele>
        <time>2014-08-17T10:23:18Z</time>
      </trkpt>
      <trkpt lat="41.659534232" lon="2.505382177">
        <ele>313.53</ele>
        <time>2014-08-17T10:23:25Z</time>
      </trkpt>
      <trkpt lat="41.659448233" lon="2.505564064">
        <ele>314.49</ele>
        <time>2014-08-17T10:23:32Z</time>
      </trkpt>
      <trkpt lat="41.659283278" lon="2.505649643">
        <ele>314.97</ele>
        <time>2014-08-17T10:23:38Z</time>
      </trkpt>
      <trkpt lat="41.659063755" lon="2.505606895">
        <ele>314.97</ele>
        <time>2014-08-17T10:23:46Z</time>
      </trkpt>
      <trkpt lat="41.658855046" lon="2.505448142">
        <ele>314.97</ele>
        <time>2014-08-17T10:23:55Z</time>
      </trkpt>
      <trkpt lat="41.658649941" lon="2.505285785">
        <ele>315.45</ele>
        <time>2014-08-17T10:24:05Z</time>
      </trkpt>
      <trkpt lat="41.658522452" lon="2.505160391">
        <ele>315.93</ele>
        <time>2014-08-17T10:24:12Z</time>
      </trkpt>
      <trkpt lat="41.658394628" lon="2.505006919">
        <ele>315.93</ele>
        <time>2014-08-17T10:24:20Z</time>
      </trkpt>
      <trkpt lat="41.658292872" lon="2.504948162">
        <ele>314.49</ele>
        <time>2014-08-17T10:24:24Z</time>
      </trkpt>
      <trkpt lat="41.658078882" lon="2.504890913">
        <ele>314.01</ele>
        <time>2014-08-17T10:24:30Z</time>
      </trkpt>
      <trkpt lat="41.657803369" lon="2.504829390">
        <ele>313.05</ele>
        <time>2014-08-17T10:24:37Z</time>
      </trkpt>
      <trkpt lat="41.657675461" lon="2.504828720">
        <ele>312.57</ele>
        <time>2014-08-17T10:24:40Z</time>
      </trkpt>
      <trkpt lat="41.657394919" lon="2.504901139">
        <ele>312.09</ele>
        <time>2014-08-17T10:24:47Z</time>
      </trkpt>
      <trkpt lat="41.657256198" lon="2.505008930">
        <ele>311.60</ele>
        <time>2014-08-17T10:24:51Z</time>
      </trkpt>
      <trkpt lat="41.656966017" lon="2.505445209">
        <ele>310.16</ele>
        <time>2014-08-17T10:24:59Z</time>
      </trkpt>
      <trkpt lat="41.656832744" lon="2.505798422">
        <ele>309.20</ele>
        <time>2014-08-17T10:25:03Z</time>
      </trkpt>
      <trkpt lat="41.656510712" lon="2.506277532">
        <ele>305.84</ele>
        <time>2014-08-17T10:25:08Z</time>
      </trkpt>
      <trkpt lat="41.656323795" lon="2.506445253">
        <ele>304.88</ele>
        <time>2014-08-17T10:25:10Z</time>
      </trkpt>
      <trkpt lat="41.655905203" lon="2.506657567">
        <ele>302.47</ele>
        <time>2014-08-17T10:25:14Z</time>
      </trkpt>
      <trkpt lat="41.655477810" lon="2.506668296">
        <ele>301.51</ele>
        <time>2014-08-17T10:25:19Z</time>
      </trkpt>
      <trkpt lat="41.655256779" lon="2.506623704">
        <ele>304.88</ele>
        <time>2014-08-17T10:25:23Z</time>
      </trkpt>
      <trkpt lat="41.655209170" lon="2.506614484">
        <ele>305.36</ele>
        <time>2014-08-17T10:25:24Z</time>
      </trkpt>
      <trkpt lat="41.655133481" lon="2.506592021">
        <ele>306.32</ele>
        <time>2014-08-17T10:25:26Z</time>
      </trkpt>
      <trkpt lat="41.654993419" lon="2.506554134">
        <ele>306.80</ele>
        <time>2014-08-17T10:25:31Z</time>
      </trkpt>
      <trkpt lat="41.654786889" lon="2.506513734">
        <ele>307.28</ele>
        <time>2014-08-17T10:25:39Z</time>
      </trkpt>
      <trkpt lat="41.654701478" lon="2.506711127">
        <ele>306.80</ele>
        <time>2014-08-17T10:25:44Z</time>
      </trkpt>
      <trkpt lat="41.654587400" lon="2.507053947">
        <ele>305.84</ele>
        <time>2014-08-17T10:25:51Z</time>
      </trkpt>
      <trkpt lat="41.654570385" lon="2.507101473">
        <ele>305.84</ele>
        <time>2014-08-17T10:25:52Z</time>
      </trkpt>
      <trkpt lat="41.654491176" lon="2.507385535">
        <ele>303.91</ele>
        <time>2014-08-17T10:25:58Z</time>
      </trkpt>
      <trkpt lat="41.654598632" lon="2.507456279">
        <ele>305.36</ele>
        <time>2014-08-17T10:26:04Z</time>
      </trkpt>
      <trkpt lat="41.654622185" lon="2.507457536">
        <ele>305.36</ele>
        <time>2014-08-17T10:26:05Z</time>
      </trkpt>
      <trkpt lat="41.654760654" lon="2.507496176">
        <ele>307.76</ele>
        <time>2014-08-17T10:26:11Z</time>
      </trkpt>
      <trkpt lat="41.654874816" lon="2.507506402">
        <ele>309.20</ele>
        <time>2014-08-17T10:26:17Z</time>
      </trkpt>
      <trkpt lat="41.655033401" lon="2.507430462">
        <ele>309.20</ele>
        <time>2014-08-17T10:26:22Z</time>
      </trkpt>
      <trkpt lat="41.655078496" lon="2.507404395">
        <ele>307.76</ele>
        <time>2014-08-17T10:26:23Z</time>
      </trkpt>
      <trkpt lat="41.655177151" lon="2.507330466">
        <ele>306.32</ele>
        <time>2014-08-17T10:26:26Z</time>
      </trkpt>
      <trkpt lat="41.655328947" lon="2.507296603">
        <ele>305.36</ele>
        <time>2014-08-17T10:26:32Z</time>
      </trkpt>
      <trkpt lat="41.655440343" lon="2.507408250">
        <ele>304.88</ele>
        <time>2014-08-17T10:26:37Z</time>
      </trkpt>
      <trkpt lat="41.655541931" lon="2.507664234">
        <ele>304.39</ele>
        <time>2014-08-17T10:26:43Z</time>
      </trkpt>
      <trkpt lat="41.655617201" lon="2.507881409">
        <ele>303.43</ele>
        <time>2014-08-17T10:26:48Z</time>
      </trkpt>
      <trkpt lat="41.655782240" lon="2.507984758">
        <ele>302.95</ele>
        <time>2014-08-17T10:26:52Z</time>
      </trkpt>
      <trkpt lat="41.655966475" lon="2.507920049">
        <ele>301.99</ele>
        <time>2014-08-17T10:26:57Z</time>
      </trkpt>
      <trkpt lat="41.656008887" lon="2.507835224">
        <ele>301.51</ele>
        <time>2014-08-17T10:26:59Z</time>
      </trkpt>
      <trkpt lat="41.656057586" lon="2.507670771">
        <ele>301.03</ele>
        <time>2014-08-17T10:27:02Z</time>
      </trkpt>
      <trkpt lat="41.656242072" lon="2.507551329">
        <ele>300.07</ele>
        <time>2014-08-17T10:27:07Z</time>
      </trkpt>
      <trkpt lat="41.656288340" lon="2.507557867">
        <ele>300.07</ele>
        <time>2014-08-17T10:27:08Z</time>
      </trkpt>
      <trkpt lat="41.656518088" lon="2.507689547">
        <ele>298.63</ele>
        <time>2014-08-17T10:27:13Z</time>
      </trkpt>
      <trkpt lat="41.656649181" lon="2.507977884">
        <ele>296.70</ele>
        <time>2014-08-17T10:27:18Z</time>
      </trkpt>
      <trkpt lat="41.656669465" lon="2.508207465">
        <ele>295.26</ele>
        <time>2014-08-17T10:27:21Z</time>
      </trkpt>
      <trkpt lat="41.656628058" lon="2.508682467">
        <ele>293.34</ele>
        <time>2014-08-17T10:27:26Z</time>
      </trkpt>
      <trkpt lat="41.656651863" lon="2.509044901">
        <ele>290.46</ele>
        <time>2014-08-17T10:27:30Z</time>
      </trkpt>
      <trkpt lat="41.656604421" lon="2.509237349">
        <ele>287.57</ele>
        <time>2014-08-17T10:27:34Z</time>
      </trkpt>
      <trkpt lat="41.656568379" lon="2.509247240">
        <ele>286.13</ele>
        <time>2014-08-17T10:27:35Z</time>
      </trkpt>
      <trkpt lat="41.656359251" lon="2.509255370">
        <ele>284.21</ele>
        <time>2014-08-17T10:27:39Z</time>
      </trkpt>
      <trkpt lat="41.656196139" lon="2.509083038">
        <ele>281.32</ele>
        <time>2014-08-17T10:27:43Z</time>
      </trkpt>
      <trkpt lat="41.656141070" lon="2.508893104">
        <ele>279.88</ele>
        <time>2014-08-17T10:27:46Z</time>
      </trkpt>
      <trkpt lat="41.656019448" lon="2.508851698">
        <ele>278.44</ele>
        <time>2014-08-17T10:27:49Z</time>
      </trkpt>
      <trkpt lat="41.655966307" lon="2.508857984">
        <ele>277.48</ele>
        <time>2014-08-17T10:27:50Z</time>
      </trkpt>
      <trkpt lat="41.655710827" lon="2.508909114">
        <ele>275.56</ele>
        <time>2014-08-17T10:27:54Z</time>
      </trkpt>
      <trkpt lat="41.655537154" lon="2.508937948">
        <ele>273.63</ele>
        <time>2014-08-17T10:27:57Z</time>
      </trkpt>
      <trkpt lat="41.655439085" lon="2.509148836">
        <ele>271.71</ele>
        <time>2014-08-17T10:28:01Z</time>
      </trkpt>
      <trkpt lat="41.655429530" lon="2.509214802">
        <ele>271.71</ele>
        <time>2014-08-17T10:28:02Z</time>
      </trkpt>
      <trkpt lat="41.655407905" lon="2.509358384">
        <ele>271.71</ele>
        <time>2014-08-17T10:28:04Z</time>
      </trkpt>
      <trkpt lat="41.655245044" lon="2.509611014">
        <ele>269.79</ele>
        <time>2014-08-17T10:28:09Z</time>
      </trkpt>
      <trkpt lat="41.655153179" lon="2.509628449">
        <ele>269.79</ele>
        <time>2014-08-17T10:28:12Z</time>
      </trkpt>
      <trkpt lat="41.654953019" lon="2.509621157">
        <ele>268.83</ele>
        <time>2014-08-17T10:28:19Z</time>
      </trkpt>
      <trkpt lat="41.654813125" lon="2.509777395">
        <ele>268.83</ele>
        <time>2014-08-17T10:28:24Z</time>
      </trkpt>
      <trkpt lat="41.654582622" lon="2.509828525">
        <ele>267.38</ele>
        <time>2014-08-17T10:28:30Z</time>
      </trkpt>
      <trkpt lat="41.654521015" lon="2.509796925">
        <ele>267.38</ele>
        <time>2014-08-17T10:28:32Z</time>
      </trkpt>
      <trkpt lat="41.654339128" lon="2.509765409">
        <ele>266.90</ele>
        <time>2014-08-17T10:28:39Z</time>
      </trkpt>
      <trkpt lat="41.654275090" lon="2.509872111">
        <ele>266.90</ele>
        <time>2014-08-17T10:28:43Z</time>
      </trkpt>
      <trkpt lat="41.654206862" lon="2.510126753">
        <ele>265.46</ele>
        <time>2014-08-17T10:28:48Z</time>
      </trkpt>
      <trkpt lat="41.654036709" lon="2.510466220">
        <ele>263.06</ele>
        <time>2014-08-17T10:28:54Z</time>
      </trkpt>
      <trkpt lat="41.653759184" lon="2.510822367">
        <ele>260.17</ele>
        <time>2014-08-17T10:29:00Z</time>
      </trkpt>
      <trkpt lat="41.653636641" lon="2.510963351">
        <ele>258.73</ele>
        <time>2014-08-17T10:29:02Z</time>
      </trkpt>
      <trkpt lat="41.653482498" lon="2.511178263">
        <ele>255.85</ele>
        <time>2014-08-17T10:29:05Z</time>
      </trkpt>
      <trkpt lat="41.653278817" lon="2.511337100">
        <ele>254.41</ele>
        <time>2014-08-17T10:29:08Z</time>
      </trkpt>
      <trkpt lat="41.653199776" lon="2.511382278">
        <ele>252.96</ele>
        <time>2014-08-17T10:29:09Z</time>
      </trkpt>
      <trkpt lat="41.652940859" lon="2.511387643">
        <ele>250.08</ele>
        <time>2014-08-17T10:29:13Z</time>
      </trkpt>
      <trkpt lat="41.652584041" lon="2.511266189">
        <ele>245.75</ele>
        <time>2014-08-17T10:29:17Z</time>
      </trkpt>
      <trkpt lat="41.652298386" lon="2.511221597">
        <ele>243.35</ele>
        <time>2014-08-17T10:29:20Z</time>
      </trkpt>
      <trkpt lat="41.652001248" lon="2.511127385">
        <ele>241.91</ele>
        <time>2014-08-17T10:29:23Z</time>
      </trkpt>
      <trkpt lat="41.651803686" lon="2.511102155">
        <ele>241.43</ele>
        <time>2014-08-17T10:29:25Z</time>
      </trkpt>
      <trkpt lat="41.651451814" lon="2.510986233">
        <ele>238.06</ele>
        <time>2014-08-17T10:29:29Z</time>
      </trkpt>
      <trkpt lat="41.651183928" lon="2.511072232">
        <ele>237.58</ele>
        <time>2014-08-17T10:29:33Z</time>
      </trkpt>
      <trkpt lat="41.651118885" lon="2.511120428">
        <ele>236.62</ele>
        <time>2014-08-17T10:29:34Z</time>
      </trkpt>
      <trkpt lat="41.650893495" lon="2.511242803">
        <ele>234.70</ele>
        <time>2014-08-17T10:29:37Z</time>
      </trkpt>
      <trkpt lat="41.650637009" lon="2.511161331">
        <ele>233.74</ele>
        <time>2014-08-17T10:29:41Z</time>
      </trkpt>
      <trkpt lat="41.650447830" lon="2.510992184">
        <ele>232.78</ele>
        <time>2014-08-17T10:29:44Z</time>
      </trkpt>
      <trkpt lat="41.650093191" lon="2.510834018">
        <ele>230.85</ele>
        <time>2014-08-17T10:29:49Z</time>
      </trkpt>
      <trkpt lat="41.649943574" lon="2.510790181">
        <ele>229.89</ele>
        <time>2014-08-17T10:29:51Z</time>
      </trkpt>
      <trkpt lat="41.649474188" lon="2.510580801">
        <ele>226.53</ele>
        <time>2014-08-17T10:29:57Z</time>
      </trkpt>
      <trkpt lat="41.649395314" lon="2.510536544">
        <ele>225.57</ele>
        <time>2014-08-17T10:29:58Z</time>
      </trkpt>
      <trkpt lat="41.649071521" lon="2.510496143">
        <ele>222.20</ele>
        <time>2014-08-17T10:30:03Z</time>
      </trkpt>
      <trkpt lat="41.649030617" lon="2.510538723">
        <ele>222.20</ele>
        <time>2014-08-17T10:30:04Z</time>
      </trkpt>
      <trkpt lat="41.648993737" lon="2.510593206">
        <ele>222.20</ele>
        <time>2014-08-17T10:30:05Z</time>
      </trkpt>
      <trkpt lat="41.648878234" lon="2.510747852">
        <ele>221.72</ele>
        <time>2014-08-17T10:30:08Z</time>
      </trkpt>
      <trkpt lat="41.648697185" lon="2.510811219">
        <ele>221.72</ele>
        <time>2014-08-17T10:30:12Z</time>
      </trkpt>
      <trkpt lat="41.648520998" lon="2.510755144">
        <ele>223.64</ele>
        <time>2014-08-17T10:30:19Z</time>
      </trkpt>
      <trkpt lat="41.648391413" lon="2.510644084">
        <ele>223.64</ele>
        <time>2014-08-17T10:30:25Z</time>
      </trkpt>
      <trkpt lat="41.648253699" lon="2.510529420">
        <ele>223.64</ele>
        <time>2014-08-17T10:30:31Z</time>
      </trkpt>
      <trkpt lat="41.648104585" lon="2.510416767">
        <ele>223.64</ele>
        <time>2014-08-17T10:30:38Z</time>
      </trkpt>
      <trkpt lat="41.647952118" lon="2.510267569">
        <ele>223.64</ele>
        <time>2014-08-17T10:30:45Z</time>
      </trkpt>
      <trkpt lat="41.647917165" lon="2.510229264">
        <ele>222.20</ele>
        <time>2014-08-17T10:30:47Z</time>
      </trkpt>
      <trkpt lat="41.647838711" lon="2.510169333">
        <ele>221.72</ele>
        <time>2014-08-17T10:30:52Z</time>
      </trkpt>
      <trkpt lat="41.647671743" lon="2.510066152">
        <ele>221.24</ele>
        <time>2014-08-17T10:30:59Z</time>
      </trkpt>
      <trkpt lat="41.647586164" lon="2.509960372">
        <ele>221.24</ele>
        <time>2014-08-17T10:31:05Z</time>
      </trkpt>
      <trkpt lat="41.647453814" lon="2.509821903">
        <ele>220.76</ele>
        <time>2014-08-17T10:31:12Z</time>
      </trkpt>
      <trkpt lat="41.647200429" lon="2.509616714">
        <ele>220.28</ele>
        <time>2014-08-17T10:31:22Z</time>
      </trkpt>
      <trkpt lat="41.646991887" lon="2.509475982">
        <ele>220.28</ele>
        <time>2014-08-17T10:31:30Z</time>
      </trkpt>
      <trkpt lat="41.646829865" lon="2.509355869">
        <ele>220.28</ele>
        <time>2014-08-17T10:31:37Z</time>
      </trkpt>
      <trkpt lat="41.646677817" lon="2.509240283">
        <ele>220.28</ele>
        <time>2014-08-17T10:31:44Z</time>
      </trkpt>
      <trkpt lat="41.646521327" lon="2.509140371">
        <ele>221.72</ele>
        <time>2014-08-17T10:31:50Z</time>
      </trkpt>
      <trkpt lat="41.646339104" lon="2.509006512">
        <ele>223.16</ele>
        <time>2014-08-17T10:31:58Z</time>
      </trkpt>
      <trkpt lat="41.646186721" lon="2.508897966">
        <ele>223.64</ele>
        <time>2014-08-17T10:32:06Z</time>
      </trkpt>
      <trkpt lat="41.645991758" lon="2.508752205">
        <ele>224.12</ele>
        <time>2014-08-17T10:32:15Z</time>
      </trkpt>
      <trkpt lat="41.645761759" lon="2.508554559">
        <ele>224.12</ele>
        <time>2014-08-17T10:32:24Z</time>
      </trkpt>
      <trkpt lat="41.645502758" lon="2.508340150">
        <ele>223.16</ele>
        <time>2014-08-17T10:32:32Z</time>
      </trkpt>
      <trkpt lat="41.645426148" lon="2.508289188">
        <ele>223.16</ele>
        <time>2014-08-17T10:32:34Z</time>
      </trkpt>
      <trkpt lat="41.645313830" lon="2.508202016">
        <ele>222.68</ele>
        <time>2014-08-17T10:32:37Z</time>
      </trkpt>
      <trkpt lat="41.645009399" lon="2.507985177">
        <ele>222.68</ele>
        <time>2014-08-17T10:32:45Z</time>
      </trkpt>
      <trkpt lat="41.644753500" lon="2.507856766">
        <ele>222.68</ele>
        <time>2014-08-17T10:32:52Z</time>
      </trkpt>
      <trkpt lat="41.644502797" lon="2.507729696">
        <ele>222.68</ele>
        <time>2014-08-17T10:33:00Z</time>
      </trkpt>
      <trkpt lat="41.644271457" lon="2.507587874">
        <ele>222.68</ele>
        <time>2014-08-17T10:33:08Z</time>
      </trkpt>
      <trkpt lat="41.644135502" lon="2.507467007">
        <ele>224.12</ele>
        <time>2014-08-17T10:33:14Z</time>
      </trkpt>
      <trkpt lat="41.643929643" lon="2.507290233">
        <ele>225.57</ele>
        <time>2014-08-17T10:33:24Z</time>
      </trkpt>
      <trkpt lat="41.643752449" lon="2.507236924">
        <ele>227.97</ele>
        <time>2014-08-17T10:33:33Z</time>
      </trkpt>
      <trkpt lat="41.643737110" lon="2.507241367">
        <ele>227.97</ele>
        <time>2014-08-17T10:33:34Z</time>
      </trkpt>
      <trkpt lat="41.643609957" lon="2.507267853">
        <ele>229.41</ele>
        <time>2014-08-17T10:33:42Z</time>
      </trkpt>
      <trkpt lat="41.643592942" lon="2.507270368">
        <ele>229.41</ele>
        <time>2014-08-17T10:33:43Z</time>
      </trkpt>
      <trkpt lat="41.643404852" lon="2.507294089">
        <ele>230.37</ele>
        <time>2014-08-17T10:33:53Z</time>
      </trkpt>
      <trkpt lat="41.643173343" lon="2.507309260">
        <ele>231.33</ele>
        <time>2014-08-17T10:34:04Z</time>
      </trkpt>
      <trkpt lat="41.643005202" lon="2.507331137">
        <ele>231.81</ele>
        <time>2014-08-17T10:34:12Z</time>
      </trkpt>
      <trkpt lat="41.642805797" lon="2.507355025">
        <ele>232.30</ele>
        <time>2014-08-17T10:34:20Z</time>
      </trkpt>
      <trkpt lat="41.642570936" lon="2.507343710">
        <ele>233.74</ele>
        <time>2014-08-17T10:34:30Z</time>
      </trkpt>
      <trkpt lat="41.642341020" lon="2.507316468">
        <ele>234.70</ele>
        <time>2014-08-17T10:34:40Z</time>
      </trkpt>
      <trkpt lat="41.642133652" lon="2.507314121">
        <ele>235.18</ele>
        <time>2014-08-17T10:34:49Z</time>
      </trkpt>
      <trkpt lat="41.641923099" lon="2.507248156">
        <ele>236.14</ele>
        <time>2014-08-17T10:34:58Z</time>
      </trkpt>
      <trkpt lat="41.641726208" lon="2.507208929">
        <ele>236.14</ele>
        <time>2014-08-17T10:35:06Z</time>
      </trkpt>
      <trkpt lat="41.641478523" lon="2.507170037">
        <ele>236.14</ele>
        <time>2014-08-17T10:35:13Z</time>
      </trkpt>
      <trkpt lat="41.641251876" lon="2.507221082">
        <ele>235.66</ele>
        <time>2014-08-17T10:35:20Z</time>
      </trkpt>
      <trkpt lat="41.641027576" lon="2.507322084">
        <ele>235.66</ele>
        <time>2014-08-17T10:35:28Z</time>
      </trkpt>
      <trkpt lat="41.640771258" lon="2.507368436">
        <ele>236.14</ele>
        <time>2014-08-17T10:35:36Z</time>
      </trkpt>
      <trkpt lat="41.640474454" lon="2.507370951">
        <ele>236.14</ele>
        <time>2014-08-17T10:35:44Z</time>
      </trkpt>
      <trkpt lat="41.640195337" lon="2.507453177">
        <ele>237.10</ele>
        <time>2014-08-17T10:35:53Z</time>
      </trkpt>
      <trkpt lat="41.640032728" lon="2.507500535">
        <ele>237.58</ele>
        <time>2014-08-17T10:35:59Z</time>
      </trkpt>
      <trkpt lat="41.639777667" lon="2.507565411">
        <ele>238.06</ele>
        <time>2014-08-17T10:36:07Z</time>
      </trkpt>
      <trkpt lat="41.639470973" lon="2.507619977">
        <ele>238.54</ele>
        <time>2014-08-17T10:36:17Z</time>
      </trkpt>
      <trkpt lat="41.639218929" lon="2.507649230">
        <ele>239.99</ele>
        <time>2014-08-17T10:36:26Z</time>
      </trkpt>
      <trkpt lat="41.639042825" lon="2.507641016">
        <ele>239.99</ele>
        <time>2014-08-17T10:36:33Z</time>
      </trkpt>
      <trkpt lat="41.638809725" lon="2.507626264">
        <ele>240.95</ele>
        <time>2014-08-17T10:36:42Z</time>
      </trkpt>
      <trkpt lat="41.638622138" lon="2.507646296">
        <ele>240.95</ele>
        <time>2014-08-17T10:36:49Z</time>
      </trkpt>
      <trkpt lat="41.638353749" lon="2.507631125">
        <ele>241.43</ele>
        <time>2014-08-17T10:36:58Z</time>
      </trkpt>
      <trkpt lat="41.638104974" lon="2.507579995">
        <ele>241.91</ele>
        <time>2014-08-17T10:37:07Z</time>
      </trkpt>
      <trkpt lat="41.637956363" lon="2.507543869">
        <ele>241.91</ele>
        <time>2014-08-17T10:37:13Z</time>
      </trkpt>
      <trkpt lat="41.637891739" lon="2.507668927">
        <ele>242.39</ele>
        <time>2014-08-17T10:37:19Z</time>
      </trkpt>
      <trkpt lat="41.637884195" lon="2.507730283">
        <ele>242.87</ele>
        <time>2014-08-17T10:37:22Z</time>
      </trkpt>
      <trkpt lat="41.637785037" lon="2.507899346">
        <ele>245.75</ele>
        <time>2014-08-17T10:37:30Z</time>
      </trkpt>
      <trkpt lat="41.637669283" lon="2.508005293">
        <ele>246.72</ele>
        <time>2014-08-17T10:37:38Z</time>
      </trkpt>
      <trkpt lat="41.637585212" lon="2.508105038">
        <ele>247.68</ele>
        <time>2014-08-17T10:37:45Z</time>
      </trkpt>
      <trkpt lat="41.637467363" lon="2.508275358">
        <ele>249.12</ele>
        <time>2014-08-17T10:37:54Z</time>
      </trkpt>
      <trkpt lat="41.637328726" lon="2.508344676">
        <ele>250.56</ele>
        <time>2014-08-17T10:38:02Z</time>
      </trkpt>
      <trkpt lat="41.637188916" lon="2.508334618">
        <ele>251.52</ele>
        <time>2014-08-17T10:38:10Z</time>
      </trkpt>
      <trkpt lat="41.637045837" lon="2.508388262">
        <ele>252.96</ele>
        <time>2014-08-17T10:38:18Z</time>
      </trkpt>
      <trkpt lat="41.636888006" lon="2.508480044">
        <ele>254.41</ele>
        <time>2014-08-17T10:38:27Z</time>
      </trkpt>
      <trkpt lat="41.636755236" lon="2.508509549">
        <ele>254.89</ele>
        <time>2014-08-17T10:38:34Z</time>
      </trkpt>
      <trkpt lat="41.636622718" lon="2.508586075">
        <ele>255.37</ele>
        <time>2014-08-17T10:38:41Z</time>
      </trkpt>
      <trkpt lat="41.636492212" lon="2.508696800">
        <ele>256.33</ele>
        <time>2014-08-17T10:38:49Z</time>
      </trkpt>
      <trkpt lat="41.636323485" lon="2.508731585">
        <ele>257.29</ele>
        <time>2014-08-17T10:38:58Z</time>
      </trkpt>
      <trkpt lat="41.636184764" lon="2.508713815">
        <ele>259.21</ele>
        <time>2014-08-17T10:39:06Z</time>
      </trkpt>
      <trkpt lat="41.636067753" lon="2.508689257">
        <ele>259.69</ele>
        <time>2014-08-17T10:39:13Z</time>
      </trkpt>
      <trkpt lat="41.635885530" lon="2.508639217">
        <ele>260.65</ele>
        <time>2014-08-17T10:39:21Z</time>
      </trkpt>
      <trkpt lat="41.635694926" lon="2.508618765">
        <ele>262.58</ele>
        <time>2014-08-17T10:39:30Z</time>
      </trkpt>
      <trkpt lat="41.635499208" lon="2.508635445">
        <ele>262.58</ele>
        <time>2014-08-17T10:39:36Z</time>
      </trkpt>
      <trkpt lat="41.635286140" lon="2.508834263">
        <ele>261.14</ele>
        <time>2014-08-17T10:39:42Z</time>
      </trkpt>
      <trkpt lat="41.635147252" lon="2.508986144">
        <ele>261.14</ele>
        <time>2014-08-17T10:39:49Z</time>
      </trkpt>
      <trkpt lat="41.635112467" lon="2.509025874">
        <ele>262.58</ele>
        <time>2014-08-17T10:39:51Z</time>
      </trkpt>
      <trkpt lat="41.634948014" lon="2.509177083">
        <ele>262.58</ele>
        <time>2014-08-17T10:39:58Z</time>
      </trkpt>
      <trkpt lat="41.634736623" lon="2.509362323">
        <ele>262.58</ele>
        <time>2014-08-17T10:40:06Z</time>
      </trkpt>
      <trkpt lat="41.634576025" lon="2.509478497">
        <ele>262.58</ele>
        <time>2014-08-17T10:40:12Z</time>
      </trkpt>
      <trkpt lat="41.634412411" lon="2.509495596">
        <ele>264.02</ele>
        <time>2014-08-17T10:40:19Z</time>
      </trkpt>
      <trkpt lat="41.634238235" lon="2.509446729">
        <ele>264.98</ele>
        <time>2014-08-17T10:40:28Z</time>
      </trkpt>
      <trkpt lat="41.634085516" lon="2.509413369">
        <ele>264.98</ele>
        <time>2014-08-17T10:40:35Z</time>
      </trkpt>
      <trkpt lat="41.633910335" lon="2.509446561">
        <ele>266.42</ele>
        <time>2014-08-17T10:40:43Z</time>
      </trkpt>
      <trkpt lat="41.633814446" lon="2.509450585">
        <ele>266.90</ele>
        <time>2014-08-17T10:40:48Z</time>
      </trkpt>
      <trkpt lat="41.633723670" lon="2.509445975">
        <ele>267.38</ele>
        <time>2014-08-17T10:40:53Z</time>
      </trkpt>
      <trkpt lat="41.633582435" lon="2.509462822">
        <ele>269.79</ele>
        <time>2014-08-17T10:41:02Z</time>
      </trkpt>
      <trkpt lat="41.633449414" lon="2.509534320">
        <ele>271.71</ele>
        <time>2014-08-17T10:41:09Z</time>
      </trkpt>
      <trkpt lat="41.633332905" lon="2.509563573">
        <ele>273.63</ele>
        <time>2014-08-17T10:41:16Z</time>
      </trkpt>
      <trkpt lat="41.633175158" lon="2.509573799">
        <ele>275.07</ele>
        <time>2014-08-17T10:41:25Z</time>
      </trkpt>
      <trkpt lat="41.633046580" lon="2.509574469">
        <ele>276.52</ele>
        <time>2014-08-17T10:41:34Z</time>
      </trkpt>
      <trkpt lat="41.632895035" lon="2.509587964">
        <ele>277.48</ele>
        <time>2014-08-17T10:41:43Z</time>
      </trkpt>
      <trkpt lat="41.632746507" lon="2.509580169">
        <ele>278.92</ele>
        <time>2014-08-17T10:41:53Z</time>
      </trkpt>
      <trkpt lat="41.632717255" lon="2.509572374">
        <ele>278.92</ele>
        <time>2014-08-17T10:41:55Z</time>
      </trkpt>
      <trkpt lat="41.632552802" lon="2.509517724">
        <ele>278.92</ele>
        <time>2014-08-17T10:42:04Z</time>
      </trkpt>
      <trkpt lat="41.632382900" lon="2.509528369">
        <ele>279.88</ele>
        <time>2014-08-17T10:42:13Z</time>
      </trkpt>
      <trkpt lat="41.632232613" lon="2.509539014">
        <ele>281.32</ele>
        <time>2014-08-17T10:42:21Z</time>
      </trkpt>
      <trkpt lat="41.632115099" lon="2.509556951">
        <ele>282.28</ele>
        <time>2014-08-17T10:42:28Z</time>
      </trkpt>
      <trkpt lat="41.631980569" lon="2.509565836">
        <ele>283.25</ele>
        <time>2014-08-17T10:42:35Z</time>
      </trkpt>
      <trkpt lat="41.631797844" lon="2.509524346">
        <ele>284.21</ele>
        <time>2014-08-17T10:42:45Z</time>
      </trkpt>
      <trkpt lat="41.631683598" lon="2.509469863">
        <ele>284.69</ele>
        <time>2014-08-17T10:42:52Z</time>
      </trkpt>
      <trkpt lat="41.631552673" lon="2.509404568">
        <ele>286.13</ele>
        <time>2014-08-17T10:43:01Z</time>
      </trkpt>
      <trkpt lat="41.631398027" lon="2.509363078">
        <ele>288.05</ele>
        <time>2014-08-17T10:43:09Z</time>
      </trkpt>
      <trkpt lat="41.631280261" lon="2.509299878">
        <ele>289.49</ele>
        <time>2014-08-17T10:43:18Z</time>
      </trkpt>
      <trkpt lat="41.631200130" lon="2.509241540">
        <ele>290.94</ele>
        <time>2014-08-17T10:43:25Z</time>
      </trkpt>
      <trkpt lat="41.631187641" lon="2.509230811">
        <ele>291.42</ele>
        <time>2014-08-17T10:43:26Z</time>
      </trkpt>
      <trkpt lat="41.631014387" lon="2.509078177">
        <ele>293.82</ele>
        <time>2014-08-17T10:43:37Z</time>
      </trkpt>
      <trkpt lat="41.630986392" lon="2.509050684">
        <ele>294.30</ele>
        <time>2014-08-17T10:43:39Z</time>
      </trkpt>
      <trkpt lat="41.630872984" lon="2.508950437">
        <ele>296.22</ele>
        <time>2014-08-17T10:43:46Z</time>
      </trkpt>
      <trkpt lat="41.630748345" lon="2.508838706">
        <ele>297.18</ele>
        <time>2014-08-17T10:43:54Z</time>
      </trkpt>
      <trkpt lat="41.630648014" lon="2.508649694">
        <ele>298.63</ele>
        <time>2014-08-17T10:44:04Z</time>
      </trkpt>
      <trkpt lat="41.630577606" lon="2.508422041">
        <ele>299.59</ele>
        <time>2014-08-17T10:44:14Z</time>
      </trkpt>
      <trkpt lat="41.630497727" lon="2.508291200">
        <ele>300.55</ele>
        <time>2014-08-17T10:44:21Z</time>
      </trkpt>
      <trkpt lat="41.630440562" lon="2.508157676">
        <ele>302.47</ele>
        <time>2014-08-17T10:44:29Z</time>
      </trkpt>
      <trkpt lat="41.630417428" lon="2.508038486">
        <ele>303.91</ele>
        <time>2014-08-17T10:44:36Z</time>
      </trkpt>
      <trkpt lat="41.630388846" lon="2.507999845">
        <ele>304.39</ele>
        <time>2014-08-17T10:44:39Z</time>
      </trkpt>
      <trkpt lat="41.630346098" lon="2.508001521">
        <ele>305.36</ele>
        <time>2014-08-17T10:44:42Z</time>
      </trkpt>
      <trkpt lat="41.630226404" lon="2.507895155">
        <ele>307.76</ele>
        <time>2014-08-17T10:44:52Z</time>
      </trkpt>
      <trkpt lat="41.630133952" lon="2.507762050">
        <ele>309.20</ele>
        <time>2014-08-17T10:45:01Z</time>
      </trkpt>
      <trkpt lat="41.630056922" lon="2.507664569">
        <ele>310.64</ele>
        <time>2014-08-17T10:45:09Z</time>
      </trkpt>
      <trkpt lat="41.629988610" lon="2.507616960">
        <ele>312.09</ele>
        <time>2014-08-17T10:45:15Z</time>
      </trkpt>
      <trkpt lat="41.629895738" lon="2.507563399">
        <ele>314.01</ele>
        <time>2014-08-17T10:45:23Z</time>
      </trkpt>
      <trkpt lat="41.629841759" lon="2.507523753">
        <ele>314.49</ele>
        <time>2014-08-17T10:45:27Z</time>
      </trkpt>
      <trkpt lat="41.629718964" lon="2.507432474">
        <ele>315.93</ele>
        <time>2014-08-17T10:45:36Z</time>
      </trkpt>
      <trkpt lat="41.629589464" lon="2.507352762">
        <ele>318.33</ele>
        <time>2014-08-17T10:45:45Z</time>
      </trkpt>
      <trkpt lat="41.629486534" lon="2.507222004">
        <ele>318.33</ele>
        <time>2014-08-17T10:45:53Z</time>
      </trkpt>
      <trkpt lat="41.629389723" lon="2.507095605">
        <ele>319.30</ele>
        <time>2014-08-17T10:46:02Z</time>
      </trkpt>
      <trkpt lat="41.629318141" lon="2.507047493">
        <ele>319.78</ele>
        <time>2014-08-17T10:46:08Z</time>
      </trkpt>
      <trkpt lat="41.629248572" lon="2.507004662">
        <ele>320.26</ele>
        <time>2014-08-17T10:46:14Z</time>
      </trkpt>
      <trkpt lat="41.629148408" lon="2.506876419">
        <ele>321.22</ele>
        <time>2014-08-17T10:46:23Z</time>
      </trkpt>
      <trkpt lat="41.629105157" lon="2.506805005">
        <ele>322.66</ele>
        <time>2014-08-17T10:46:28Z</time>
      </trkpt>
      <trkpt lat="41.628978171" lon="2.506717414">
        <ele>324.58</ele>
        <time>2014-08-17T10:46:38Z</time>
      </trkpt>
      <trkpt lat="41.628949086" lon="2.506712301">
        <ele>324.58</ele>
        <time>2014-08-17T10:46:40Z</time>
      </trkpt>
      <trkpt lat="41.628924192" lon="2.506720683">
        <ele>324.58</ele>
        <time>2014-08-17T10:46:42Z</time>
      </trkpt>
      <trkpt lat="41.628889239" lon="2.506880861">
        <ele>326.02</ele>
        <time>2014-08-17T10:46:52Z</time>
      </trkpt>
      <trkpt lat="41.628941459" lon="2.507005165">
        <ele>326.99</ele>
        <time>2014-08-17T10:47:01Z</time>
      </trkpt>
      <trkpt lat="41.629007843" lon="2.507105747">
        <ele>327.95</ele>
        <time>2014-08-17T10:47:08Z</time>
      </trkpt>
      <trkpt lat="41.629089734" lon="2.507238349">
        <ele>329.87</ele>
        <time>2014-08-17T10:47:17Z</time>
      </trkpt>
      <trkpt lat="41.629126950" lon="2.507309428">
        <ele>330.35</ele>
        <time>2014-08-17T10:47:21Z</time>
      </trkpt>
      <trkpt lat="41.629087555" lon="2.507385871">
        <ele>331.79</ele>
        <time>2014-08-17T10:47:27Z</time>
      </trkpt>
      <trkpt lat="41.629029049" lon="2.507358294">
        <ele>333.71</ele>
        <time>2014-08-17T10:47:33Z</time>
      </trkpt>
      <trkpt lat="41.628986386" lon="2.507336836">
        <ele>334.20</ele>
        <time>2014-08-17T10:47:37Z</time>
      </trkpt>
      <trkpt lat="41.628891251" lon="2.507274727">
        <ele>337.08</ele>
        <time>2014-08-17T10:47:46Z</time>
      </trkpt>
      <trkpt lat="41.628799972" lon="2.507228626">
        <ele>338.52</ele>
        <time>2014-08-17T10:47:54Z</time>
      </trkpt>
      <trkpt lat="41.628764768" lon="2.507210773">
        <ele>339.00</ele>
        <time>2014-08-17T10:47:58Z</time>
      </trkpt>
      <trkpt lat="41.628690504" lon="2.507105244">
        <ele>341.41</ele>
        <time>2014-08-17T10:48:08Z</time>
      </trkpt>
      <trkpt lat="41.628606350" lon="2.506981863">
        <ele>342.85</ele>
        <time>2014-08-17T10:48:18Z</time>
      </trkpt>
      <trkpt lat="41.628538792" lon="2.506859319">
        <ele>345.25</ele>
        <time>2014-08-17T10:48:28Z</time>
      </trkpt>
      <trkpt lat="41.628481460" lon="2.506755635">
        <ele>346.69</ele>
        <time>2014-08-17T10:48:36Z</time>
      </trkpt>
      <trkpt lat="41.628422703" lon="2.506660249">
        <ele>348.62</ele>
        <time>2014-08-17T10:48:45Z</time>
      </trkpt>
      <trkpt lat="41.628374339" lon="2.506634265">
        <ele>348.62</ele>
        <time>2014-08-17T10:48:50Z</time>
      </trkpt>
      <trkpt lat="41.628257495" lon="2.506571904">
        <ele>350.54</ele>
        <time>2014-08-17T10:49:00Z</time>
      </trkpt>
      <trkpt lat="41.628172084" lon="2.506519266">
        <ele>352.94</ele>
        <time>2014-08-17T10:49:08Z</time>
      </trkpt>
      <trkpt lat="41.628150877" lon="2.506508285">
        <ele>353.42</ele>
        <time>2014-08-17T10:49:10Z</time>
      </trkpt>
      <trkpt lat="41.628092456" lon="2.506508621">
        <ele>353.90</ele>
        <time>2014-08-17T10:49:15Z</time>
      </trkpt>
      <trkpt lat="41.628035459" lon="2.506479032">
        <ele>355.34</ele>
        <time>2014-08-17T10:49:21Z</time>
      </trkpt>
      <trkpt lat="41.628013582" lon="2.506464699">
        <ele>355.34</ele>
        <time>2014-08-17T10:49:23Z</time>
      </trkpt>
      <trkpt lat="41.627924147" lon="2.506388592">
        <ele>357.75</ele>
        <time>2014-08-17T10:49:32Z</time>
      </trkpt>
      <trkpt lat="41.627831443" lon="2.506294212">
        <ele>358.71</ele>
        <time>2014-08-17T10:49:40Z</time>
      </trkpt>
      <trkpt lat="41.627802526" lon="2.506273424">
        <ele>359.19</ele>
        <time>2014-08-17T10:49:43Z</time>
      </trkpt>
      <trkpt lat="41.627650813" lon="2.506218439">
        <ele>360.15</ele>
        <time>2014-08-17T10:49:53Z</time>
      </trkpt>
      <trkpt lat="41.627514859" lon="2.506209387">
        <ele>361.11</ele>
        <time>2014-08-17T10:50:02Z</time>
      </trkpt>
      <trkpt lat="41.627388627" lon="2.506198323">
        <ele>362.07</ele>
        <time>2014-08-17T10:50:10Z</time>
      </trkpt>
      <trkpt lat="41.627266084" lon="2.506191617">
        <ele>363.52</ele>
        <time>2014-08-17T10:50:18Z</time>
      </trkpt>
      <trkpt lat="41.627137170" lon="2.506195137">
        <ele>364.48</ele>
        <time>2014-08-17T10:50:26Z</time>
      </trkpt>
      <trkpt lat="41.627043880" lon="2.506263953">
        <ele>366.88</ele>
        <time>2014-08-17T10:50:34Z</time>
      </trkpt>
      <trkpt lat="41.626989062" lon="2.506339977">
        <ele>367.36</ele>
        <time>2014-08-17T10:50:41Z</time>
      </trkpt>
      <trkpt lat="41.626913541" lon="2.506441482">
        <ele>368.80</ele>
        <time>2014-08-17T10:50:49Z</time>
      </trkpt>
      <trkpt lat="41.626817652" lon="2.506489761">
        <ele>370.73</ele>
        <time>2014-08-17T10:50:57Z</time>
      </trkpt>
      <trkpt lat="41.626742885" lon="2.506416755">
        <ele>371.21</ele>
        <time>2014-08-17T10:51:03Z</time>
      </trkpt>
      <trkpt lat="41.626685386" lon="2.506338468">
        <ele>372.17</ele>
        <time>2014-08-17T10:51:10Z</time>
      </trkpt>
      <trkpt lat="41.626677423" lon="2.506294882">
        <ele>372.65</ele>
        <time>2014-08-17T10:51:13Z</time>
      </trkpt>
      <trkpt lat="41.626698126" lon="2.506175440">
        <ele>373.13</ele>
        <time>2014-08-17T10:51:21Z</time>
      </trkpt>
      <trkpt lat="41.626641548" lon="2.506042671">
        <ele>373.61</ele>
        <time>2014-08-17T10:51:28Z</time>
      </trkpt>
      <trkpt lat="41.626559322" lon="2.505938819">
        <ele>374.09</ele>
        <time>2014-08-17T10:51:35Z</time>
      </trkpt>
      <trkpt lat="41.626522274" lon="2.505898669">
        <ele>374.57</ele>
        <time>2014-08-17T10:51:38Z</time>
      </trkpt>
      <trkpt lat="41.626411884" lon="2.505778305">
        <ele>375.53</ele>
        <time>2014-08-17T10:51:46Z</time>
      </trkpt>
      <trkpt lat="41.626351534" lon="2.505632376">
        <ele>376.01</ele>
        <time>2014-08-17T10:51:54Z</time>
      </trkpt>
      <trkpt lat="41.626348601" lon="2.505573787">
        <ele>376.01</ele>
        <time>2014-08-17T10:51:57Z</time>
      </trkpt>
      <trkpt lat="41.626397467" lon="2.505425595">
        <ele>377.94</ele>
        <time>2014-08-17T10:52:05Z</time>
      </trkpt>
      <trkpt lat="41.626467540" lon="2.505278995">
        <ele>378.90</ele>
        <time>2014-08-17T10:52:14Z</time>
      </trkpt>
      <trkpt lat="41.626468965" lon="2.505222082">
        <ele>379.38</ele>
        <time>2014-08-17T10:52:17Z</time>
      </trkpt>
      <trkpt lat="41.626384475" lon="2.505201211">
        <ele>380.82</ele>
        <time>2014-08-17T10:52:24Z</time>
      </trkpt>
      <trkpt lat="41.626372908" lon="2.505236415">
        <ele>381.30</ele>
        <time>2014-08-17T10:52:26Z</time>
      </trkpt>
      <trkpt lat="41.626256232" lon="2.505311433">
        <ele>383.22</ele>
        <time>2014-08-17T10:52:36Z</time>
      </trkpt>
      <trkpt lat="41.626150620" lon="2.505326353">
        <ele>384.18</ele>
        <time>2014-08-17T10:52:45Z</time>
      </trkpt>
      <trkpt lat="41.626062778" lon="2.505360048">
        <ele>385.15</ele>
        <time>2014-08-17T10:52:53Z</time>
      </trkpt>
      <trkpt lat="41.625983401" lon="2.505473288">
        <ele>385.63</ele>
        <time>2014-08-17T10:53:00Z</time>
      </trkpt>
      <trkpt lat="41.625996896" lon="2.505597675">
        <ele>387.07</ele>
        <time>2014-08-17T10:53:08Z</time>
      </trkpt>
      <trkpt lat="41.626063700" lon="2.505764308">
        <ele>388.99</ele>
        <time>2014-08-17T10:53:19Z</time>
      </trkpt>
      <trkpt lat="41.626079122" lon="2.505831614">
        <ele>389.95</ele>
        <time>2014-08-17T10:53:23Z</time>
      </trkpt>
      <trkpt lat="41.626063700" lon="2.506009562">
        <ele>390.91</ele>
        <time>2014-08-17T10:53:32Z</time>
      </trkpt>
      <trkpt lat="41.626021874" lon="2.506162029">
        <ele>391.87</ele>
        <time>2014-08-17T10:53:40Z</time>
      </trkpt>
      <trkpt lat="41.626005948" lon="2.506203016">
        <ele>392.36</ele>
        <time>2014-08-17T10:53:42Z</time>
      </trkpt>
      <trkpt lat="41.625930930" lon="2.506384485">
        <ele>393.32</ele>
        <time>2014-08-17T10:53:50Z</time>
      </trkpt>
      <trkpt lat="41.625906707" lon="2.506564025">
        <ele>394.28</ele>
        <time>2014-08-17T10:53:58Z</time>
      </trkpt>
      <trkpt lat="41.625911317" lon="2.506679528">
        <ele>394.76</ele>
        <time>2014-08-17T10:54:03Z</time>
      </trkpt>
      <trkpt lat="41.625903103" lon="2.506758485">
        <ele>396.20</ele>
        <time>2014-08-17T10:54:08Z</time>
      </trkpt>
      <trkpt lat="41.625858092" lon="2.506922100">
        <ele>397.16</ele>
        <time>2014-08-17T10:54:16Z</time>
      </trkpt>
      <trkpt lat="41.625783660" lon="2.507066688">
        <ele>398.60</ele>
        <time>2014-08-17T10:54:25Z</time>
      </trkpt>
      <trkpt lat="41.625746277" lon="2.507128965">
        <ele>399.08</ele>
        <time>2014-08-17T10:54:29Z</time>
      </trkpt>
      <trkpt lat="41.625715767" lon="2.507237679">
        <ele>400.05</ele>
        <time>2014-08-17T10:54:36Z</time>
      </trkpt>
      <trkpt lat="41.625661704" lon="2.507424846">
        <ele>400.53</ele>
        <time>2014-08-17T10:54:44Z</time>
      </trkpt>
      <trkpt lat="41.625592637" lon="2.507598100">
        <ele>401.49</ele>
        <time>2014-08-17T10:54:53Z</time>
      </trkpt>
      <trkpt lat="41.625507225" lon="2.507750567">
        <ele>403.41</ele>
        <time>2014-08-17T10:55:03Z</time>
      </trkpt>
      <trkpt lat="41.625443271" lon="2.507813599">
        <ele>404.85</ele>
        <time>2014-08-17T10:55:11Z</time>
      </trkpt>
      <trkpt lat="41.625412929" lon="2.507816365">
        <ele>405.81</ele>
        <time>2014-08-17T10:55:18Z</time>
      </trkpt>
      <trkpt lat="41.625405134" lon="2.507825585">
        <ele>406.29</ele>
        <time>2014-08-17T10:55:29Z</time>
      </trkpt>
      <trkpt lat="41.625411504" lon="2.507822568">
        <ele>406.29</ele>
        <time>2014-08-17T10:55:43Z</time>
      </trkpt>
      <trkpt lat="41.625407984" lon="2.507825082">
        <ele>405.33</ele>
        <time>2014-08-17T10:55:47Z</time>
      </trkpt>
      <trkpt lat="41.625402954" lon="2.507827345">
        <ele>405.33</ele>
        <time>2014-08-17T10:55:57Z</time>
      </trkpt>
      <trkpt lat="41.625405553" lon="2.507827597">
        <ele>404.85</ele>
        <time>2014-08-17T10:56:11Z</time>
      </trkpt>
      <trkpt lat="41.625426759" lon="2.507819550">
        <ele>404.85</ele>
        <time>2014-08-17T10:56:27Z</time>
      </trkpt>
      <trkpt lat="41.625436063" lon="2.507793483">
        <ele>405.81</ele>
        <time>2014-08-17T10:56:36Z</time>
      </trkpt>
      <trkpt lat="41.625431788" lon="2.507794572">
        <ele>405.81</ele>
        <time>2014-08-17T10:56:46Z</time>
      </trkpt>
      <trkpt lat="41.625426088" lon="2.507786358">
        <ele>405.81</ele>
        <time>2014-08-17T10:56:50Z</time>
      </trkpt>
      <trkpt lat="41.625417623" lon="2.507716285">
        <ele>406.29</ele>
        <time>2014-08-17T10:56:54Z</time>
      </trkpt>
      <trkpt lat="41.625406056" lon="2.507559292">
        <ele>406.29</ele>
        <time>2014-08-17T10:57:02Z</time>
      </trkpt>
      <trkpt lat="41.625382000" lon="2.507410178">
        <ele>406.29</ele>
        <time>2014-08-17T10:57:10Z</time>
      </trkpt>
      <trkpt lat="41.625356183" lon="2.507273805">
        <ele>406.29</ele>
        <time>2014-08-17T10:57:17Z</time>
      </trkpt>
      <trkpt lat="41.625313939" lon="2.507074902">
        <ele>406.77</ele>
        <time>2014-08-17T10:57:26Z</time>
      </trkpt>
      <trkpt lat="41.625270688" lon="2.506903492">
        <ele>407.74</ele>
        <time>2014-08-17T10:57:34Z</time>
      </trkpt>
      <trkpt lat="41.625250571" lon="2.506732250">
        <ele>408.22</ele>
        <time>2014-08-17T10:57:42Z</time>
      </trkpt>
      <trkpt lat="41.625193323" lon="2.506544998">
        <ele>410.14</ele>
        <time>2014-08-17T10:57:52Z</time>
      </trkpt>
      <trkpt lat="41.625097685" lon="2.506392196">
        <ele>412.06</ele>
        <time>2014-08-17T10:58:00Z</time>
      </trkpt>
      <trkpt lat="41.625032893" lon="2.506221373">
        <ele>413.02</ele>
        <time>2014-08-17T10:58:08Z</time>
      </trkpt>
      <trkpt lat="41.624919486" lon="2.506104948">
        <ele>414.95</ele>
        <time>2014-08-17T10:58:16Z</time>
      </trkpt>
      <trkpt lat="41.624817311" lon="2.506146019">
        <ele>416.39</ele>
        <time>2014-08-17T10:58:23Z</time>
      </trkpt>
      <trkpt lat="41.624707927" lon="2.506234868">
        <ele>417.83</ele>
        <time>2014-08-17T10:58:31Z</time>
      </trkpt>
      <trkpt lat="41.624583875" lon="2.506263366">
        <ele>420.23</ele>
        <time>2014-08-17T10:58:40Z</time>
      </trkpt>
      <trkpt lat="41.624479436" lon="2.506272586">
        <ele>421.19</ele>
        <time>2014-08-17T10:58:47Z</time>
      </trkpt>
      <trkpt lat="41.624339542" lon="2.506297480">
        <ele>424.08</ele>
        <time>2014-08-17T10:58:57Z</time>
      </trkpt>
      <trkpt lat="41.624194284" lon="2.506286668">
        <ele>425.52</ele>
        <time>2014-08-17T10:59:06Z</time>
      </trkpt>
      <trkpt lat="41.624032094" lon="2.506245177">
        <ele>426.96</ele>
        <time>2014-08-17T10:59:16Z</time>
      </trkpt>
      <trkpt lat="41.623909718" lon="2.506155323">
        <ele>427.92</ele>
        <time>2014-08-17T10:59:25Z</time>
      </trkpt>
      <trkpt lat="41.623774937" lon="2.506058345">
        <ele>428.89</ele>
        <time>2014-08-17T10:59:34Z</time>
      </trkpt>
      <trkpt lat="41.623644515" lon="2.505932113">
        <ele>431.29</ele>
        <time>2014-08-17T10:59:44Z</time>
      </trkpt>
      <trkpt lat="41.623589278" lon="2.505803451">
        <ele>431.77</ele>
        <time>2014-08-17T10:59:51Z</time>
      </trkpt>
      <trkpt lat="41.623600594" lon="2.505732792">
        <ele>431.77</ele>
        <time>2014-08-17T10:59:55Z</time>
      </trkpt>
      <trkpt lat="41.623698662" lon="2.505545959">
        <ele>433.21</ele>
        <time>2014-08-17T11:00:06Z</time>
      </trkpt>
      <trkpt lat="41.623779547" lon="2.505384607">
        <ele>435.13</ele>
        <time>2014-08-17T11:00:16Z</time>
      </trkpt>
      <trkpt lat="41.623860852" lon="2.505272625">
        <ele>435.61</ele>
        <time>2014-08-17T11:00:23Z</time>
      </trkpt>
      <trkpt lat="41.623953472" lon="2.505136503">
        <ele>438.50</ele>
        <time>2014-08-17T11:00:32Z</time>
      </trkpt>
      <trkpt lat="41.624032848" lon="2.505056624">
        <ele>439.46</ele>
        <time>2014-08-17T11:00:38Z</time>
      </trkpt>
      <trkpt lat="41.624161259" lon="2.504909773">
        <ele>439.94</ele>
        <time>2014-08-17T11:00:46Z</time>
      </trkpt>
      <trkpt lat="41.624263016" lon="2.504693352">
        <ele>439.94</ele>
        <time>2014-08-17T11:00:54Z</time>
      </trkpt>
      <trkpt lat="41.624294029" lon="2.504390346">
        <ele>441.86</ele>
        <time>2014-08-17T11:01:04Z</time>
      </trkpt>
      <trkpt lat="41.624204677" lon="2.504285991">
        <ele>442.34</ele>
        <time>2014-08-17T11:01:10Z</time>
      </trkpt>
      <trkpt lat="41.624056150" lon="2.504308287">
        <ele>443.31</ele>
        <time>2014-08-17T11:01:17Z</time>
      </trkpt>
      <trkpt lat="41.623895469" lon="2.504252296">
        <ele>442.34</ele>
        <time>2014-08-17T11:01:21Z</time>
      </trkpt>
      <trkpt lat="41.623697321" lon="2.504067643">
        <ele>440.90</ele>
        <time>2014-08-17T11:01:26Z</time>
      </trkpt>
      <trkpt lat="41.623600258" lon="2.504103769">
        <ele>439.94</ele>
        <time>2014-08-17T11:01:29Z</time>
      </trkpt>
      <trkpt lat="41.623573017" lon="2.504150791">
        <ele>439.46</ele>
        <time>2014-08-17T11:01:30Z</time>
      </trkpt>
      <trkpt lat="41.623526582" lon="2.504245591">
        <ele>439.46</ele>
        <time>2014-08-17T11:01:32Z</time>
      </trkpt>
      <trkpt lat="41.623339330" lon="2.504313652">
        <ele>435.61</ele>
        <time>2014-08-17T11:01:36Z</time>
      </trkpt>
      <trkpt lat="41.623180912" lon="2.504280795">
        <ele>433.69</ele>
        <time>2014-08-17T11:01:39Z</time>
      </trkpt>
      <trkpt lat="41.623028613" lon="2.504280375">
        <ele>432.73</ele>
        <time>2014-08-17T11:01:42Z</time>
      </trkpt>
      <trkpt lat="41.622827782" lon="2.504158838">
        <ele>428.89</ele>
        <time>2014-08-17T11:01:46Z</time>
      </trkpt>
      <trkpt lat="41.622800793" lon="2.504106367">
        <ele>428.89</ele>
        <time>2014-08-17T11:01:47Z</time>
      </trkpt>
      <trkpt lat="41.622765924" lon="2.503863795">
        <ele>426.96</ele>
        <time>2014-08-17T11:01:50Z</time>
      </trkpt>
      <trkpt lat="41.622772713" lon="2.503697833">
        <ele>426.00</ele>
        <time>2014-08-17T11:01:52Z</time>
      </trkpt>
      <trkpt lat="41.622801882" lon="2.503440341">
        <ele>427.44</ele>
        <time>2014-08-17T11:01:56Z</time>
      </trkpt>
      <trkpt lat="41.622806660" lon="2.503375884">
        <ele>427.44</ele>
        <time>2014-08-17T11:01:57Z</time>
      </trkpt>
      <trkpt lat="41.622679674" lon="2.503090732">
        <ele>426.48</ele>
        <time>2014-08-17T11:02:02Z</time>
      </trkpt>
      <trkpt lat="41.622633657" lon="2.503055193">
        <ele>426.48</ele>
        <time>2014-08-17T11:02:03Z</time>
      </trkpt>
      <trkpt lat="41.622496781" lon="2.503083523">
        <ele>425.52</ele>
        <time>2014-08-17T11:02:06Z</time>
      </trkpt>
      <trkpt lat="41.622302740" lon="2.503101461">
        <ele>423.60</ele>
        <time>2014-08-17T11:02:10Z</time>
      </trkpt>
      <trkpt lat="41.622201067" lon="2.503059970">
        <ele>422.64</ele>
        <time>2014-08-17T11:02:12Z</time>
      </trkpt>
      <trkpt lat="41.621971487" lon="2.502971374">
        <ele>419.75</ele>
        <time>2014-08-17T11:02:16Z</time>
      </trkpt>
      <trkpt lat="41.621832431" lon="2.502868109">
        <ele>418.31</ele>
        <time>2014-08-17T11:02:19Z</time>
      </trkpt>
      <trkpt lat="41.621753474" lon="2.502677085">
        <ele>416.39</ele>
        <time>2014-08-17T11:02:22Z</time>
      </trkpt>
      <trkpt lat="41.621716258" lon="2.502495365">
        <ele>414.47</ele>
        <time>2014-08-17T11:02:24Z</time>
      </trkpt>
      <trkpt lat="41.621715504" lon="2.502129663">
        <ele>411.10</ele>
        <time>2014-08-17T11:02:28Z</time>
      </trkpt>
      <trkpt lat="41.621786666" lon="2.501739904">
        <ele>407.26</ele>
        <time>2014-08-17T11:02:33Z</time>
      </trkpt>
      <trkpt lat="41.621632942" lon="2.501583750">
        <ele>406.29</ele>
        <time>2014-08-17T11:02:38Z</time>
      </trkpt>
      <trkpt lat="41.621540490" lon="2.501543768">
        <ele>406.29</ele>
        <time>2014-08-17T11:02:40Z</time>
      </trkpt>
      <trkpt lat="41.621406463" lon="2.501454249">
        <ele>407.74</ele>
        <time>2014-08-17T11:02:44Z</time>
      </trkpt>
      <trkpt lat="41.621268916" lon="2.501232296">
        <ele>408.70</ele>
        <time>2014-08-17T11:02:51Z</time>
      </trkpt>
      <trkpt lat="41.621187192" lon="2.501033142">
        <ele>409.18</ele>
        <time>2014-08-17T11:02:57Z</time>
      </trkpt>
      <trkpt lat="41.621058446" lon="2.500901714">
        <ele>406.77</ele>
        <time>2014-08-17T11:03:03Z</time>
      </trkpt>
      <trkpt lat="41.620911260" lon="2.500928620">
        <ele>403.89</ele>
        <time>2014-08-17T11:03:09Z</time>
      </trkpt>
      <trkpt lat="41.620738006" lon="2.501066167">
        <ele>401.49</ele>
        <time>2014-08-17T11:03:15Z</time>
      </trkpt>
      <trkpt lat="41.620710430" lon="2.501110926">
        <ele>401.49</ele>
        <time>2014-08-17T11:03:16Z</time>
      </trkpt>
      <trkpt lat="41.620666425" lon="2.501199355">
        <ele>401.01</ele>
        <time>2014-08-17T11:03:18Z</time>
      </trkpt>
      <trkpt lat="41.620614541" lon="2.501285019">
        <ele>400.05</ele>
        <time>2014-08-17T11:03:20Z</time>
      </trkpt>
      <trkpt lat="41.620446986" lon="2.501439329">
        <ele>399.57</ele>
        <time>2014-08-17T11:03:24Z</time>
      </trkpt>
      <trkpt lat="41.620304997" lon="2.501511414">
        <ele>399.57</ele>
        <time>2014-08-17T11:03:27Z</time>
      </trkpt>
      <trkpt lat="41.620104250" lon="2.501427762">
        <ele>396.68</ele>
        <time>2014-08-17T11:03:31Z</time>
      </trkpt>
      <trkpt lat="41.619988161" lon="2.501262220">
        <ele>395.72</ele>
        <time>2014-08-17T11:03:34Z</time>
      </trkpt>
      <trkpt lat="41.619901325" lon="2.501108077">
        <ele>394.28</ele>
        <time>2014-08-17T11:03:37Z</time>
      </trkpt>
      <trkpt lat="41.619748439" lon="2.500964159">
        <ele>390.91</ele>
        <time>2014-08-17T11:03:41Z</time>
      </trkpt>
      <trkpt lat="41.619638887" lon="2.500781015">
        <ele>388.51</ele>
        <time>2014-08-17T11:03:46Z</time>
      </trkpt>
      <trkpt lat="41.619546435" lon="2.500679594">
        <ele>386.59</ele>
        <time>2014-08-17T11:03:51Z</time>
      </trkpt>
      <trkpt lat="41.619395309" lon="2.500685629">
        <ele>383.70</ele>
        <time>2014-08-17T11:03:57Z</time>
      </trkpt>
      <trkpt lat="41.619364464" lon="2.500815380">
        <ele>381.78</ele>
        <time>2014-08-17T11:04:02Z</time>
      </trkpt>
      <trkpt lat="41.619417940" lon="2.500955191">
        <ele>379.38</ele>
        <time>2014-08-17T11:04:06Z</time>
      </trkpt>
      <trkpt lat="41.619485415" lon="2.501129199">
        <ele>376.01</ele>
        <time>2014-08-17T11:04:11Z</time>
      </trkpt>
      <trkpt lat="41.619559930" lon="2.501254005">
        <ele>374.09</ele>
        <time>2014-08-17T11:04:15Z</time>
      </trkpt>
      <trkpt lat="41.619589518" lon="2.501449136">
        <ele>370.73</ele>
        <time>2014-08-17T11:04:20Z</time>
      </trkpt>
      <trkpt lat="41.619565881" lon="2.501574278">
        <ele>368.32</ele>
        <time>2014-08-17T11:04:23Z</time>
      </trkpt>
      <trkpt lat="41.619511734" lon="2.501748035">
        <ele>365.92</ele>
        <time>2014-08-17T11:04:27Z</time>
      </trkpt>
      <trkpt lat="41.619519110" lon="2.501941992">
        <ele>362.55</ele>
        <time>2014-08-17T11:04:31Z</time>
      </trkpt>
      <trkpt lat="41.619533443" lon="2.502028074">
        <ele>362.07</ele>
        <time>2014-08-17T11:04:33Z</time>
      </trkpt>
      <trkpt lat="41.619543333" lon="2.502242400">
        <ele>358.23</ele>
        <time>2014-08-17T11:04:38Z</time>
      </trkpt>
      <trkpt lat="41.619561606" lon="2.502485978">
        <ele>353.90</ele>
        <time>2014-08-17T11:04:43Z</time>
      </trkpt>
      <trkpt lat="41.619559427" lon="2.502718073">
        <ele>350.54</ele>
        <time>2014-08-17T11:04:49Z</time>
      </trkpt>
      <trkpt lat="41.619537047" lon="2.502890153">
        <ele>347.65</ele>
        <time>2014-08-17T11:04:53Z</time>
      </trkpt>
      <trkpt lat="41.619503436" lon="2.503088804">
        <ele>345.25</ele>
        <time>2014-08-17T11:04:58Z</time>
      </trkpt>
      <trkpt lat="41.619497401" lon="2.503119063">
        <ele>344.77</ele>
        <time>2014-08-17T11:04:59Z</time>
      </trkpt>
      <trkpt lat="41.619439733" lon="2.503128115">
        <ele>341.89</ele>
        <time>2014-08-17T11:05:04Z</time>
      </trkpt>
      <trkpt lat="41.619439398" lon="2.503098695">
        <ele>341.89</ele>
        <time>2014-08-17T11:05:05Z</time>
      </trkpt>
      <trkpt lat="41.619433950" lon="2.502786720">
        <ele>340.44</ele>
        <time>2014-08-17T11:05:11Z</time>
      </trkpt>
      <trkpt lat="41.619414755" lon="2.502714384">
        <ele>339.48</ele>
        <time>2014-08-17T11:05:13Z</time>
      </trkpt>
      <trkpt lat="41.619346443" lon="2.502766185">
        <ele>338.52</ele>
        <time>2014-08-17T11:05:17Z</time>
      </trkpt>
      <trkpt lat="41.619332864" lon="2.502884202">
        <ele>336.60</ele>
        <time>2014-08-17T11:05:19Z</time>
      </trkpt>
      <trkpt lat="41.619315513" lon="2.503045302">
        <ele>335.16</ele>
        <time>2014-08-17T11:05:22Z</time>
      </trkpt>
      <trkpt lat="41.619301767" lon="2.503097605">
        <ele>334.68</ele>
        <time>2014-08-17T11:05:23Z</time>
      </trkpt>
      <trkpt lat="41.619237897" lon="2.503251413">
        <ele>333.23</ele>
        <time>2014-08-17T11:05:26Z</time>
      </trkpt>
      <trkpt lat="41.619123065" lon="2.503572691">
        <ele>329.87</ele>
        <time>2014-08-17T11:05:31Z</time>
      </trkpt>
      <trkpt lat="41.619051148" lon="2.503785843">
        <ele>326.50</ele>
        <time>2014-08-17T11:05:34Z</time>
      </trkpt>
      <trkpt lat="41.618985434" lon="2.503987847">
        <ele>323.14</ele>
        <time>2014-08-17T11:05:38Z</time>
      </trkpt>
      <trkpt lat="41.618895496" lon="2.503966306">
        <ele>321.22</ele>
        <time>2014-08-17T11:05:43Z</time>
      </trkpt>
      <trkpt lat="41.618892646" lon="2.503921546">
        <ele>321.22</ele>
        <time>2014-08-17T11:05:44Z</time>
      </trkpt>
      <trkpt lat="41.618877894" lon="2.503714848">
        <ele>318.81</ele>
        <time>2014-08-17T11:05:47Z</time>
      </trkpt>
      <trkpt lat="41.618895999" lon="2.503457440">
        <ele>316.41</ele>
        <time>2014-08-17T11:05:51Z</time>
      </trkpt>
      <trkpt lat="41.618936568" lon="2.503297262">
        <ele>314.01</ele>
        <time>2014-08-17T11:05:54Z</time>
      </trkpt>
      <trkpt lat="41.618922905" lon="2.503098779">
        <ele>311.60</ele>
        <time>2014-08-17T11:05:59Z</time>
      </trkpt>
      <trkpt lat="41.618863477" lon="2.503067766">
        <ele>310.16</ele>
        <time>2014-08-17T11:06:04Z</time>
      </trkpt>
      <trkpt lat="41.618790052" lon="2.503097102">
        <ele>308.72</ele>
        <time>2014-08-17T11:06:08Z</time>
      </trkpt>
      <trkpt lat="41.618699779" lon="2.503136329">
        <ele>307.28</ele>
        <time>2014-08-17T11:06:11Z</time>
      </trkpt>
      <trkpt lat="41.618611601" lon="2.503165834">
        <ele>306.32</ele>
        <time>2014-08-17T11:06:13Z</time>
      </trkpt>
      <trkpt lat="41.618429379" lon="2.503352666">
        <ele>304.39</ele>
        <time>2014-08-17T11:06:18Z</time>
      </trkpt>
      <trkpt lat="41.618256292" lon="2.503654750">
        <ele>301.99</ele>
        <time>2014-08-17T11:06:23Z</time>
      </trkpt>
      <trkpt lat="41.618197116" lon="2.503847199">
        <ele>299.59</ele>
        <time>2014-08-17T11:06:26Z</time>
      </trkpt>
      <trkpt lat="41.618161912" lon="2.503985165">
        <ele>297.18</ele>
        <time>2014-08-17T11:06:28Z</time>
      </trkpt>
      <trkpt lat="41.618106089" lon="2.504140398">
        <ele>294.30</ele>
        <time>2014-08-17T11:06:30Z</time>
      </trkpt>
      <trkpt lat="41.617944569" lon="2.504477350">
        <ele>290.46</ele>
        <time>2014-08-17T11:06:35Z</time>
      </trkpt>
      <trkpt lat="41.617784559" lon="2.504805083">
        <ele>286.61</ele>
        <time>2014-08-17T11:06:41Z</time>
      </trkpt>
      <trkpt lat="41.617718174" lon="2.504963584">
        <ele>285.65</ele>
        <time>2014-08-17T11:06:44Z</time>
      </trkpt>
      <trkpt lat="41.617702500" lon="2.505015217">
        <ele>284.69</ele>
        <time>2014-08-17T11:06:45Z</time>
      </trkpt>
      <trkpt lat="41.617634271" lon="2.505207246">
        <ele>282.77</ele>
        <time>2014-08-17T11:06:50Z</time>
      </trkpt>
      <trkpt lat="41.617618681" lon="2.505360048">
        <ele>280.84</ele>
        <time>2014-08-17T11:06:53Z</time>
      </trkpt>
      <trkpt lat="41.617567384" lon="2.505628353">
        <ele>276.04</ele>
        <time>2014-08-17T11:06:57Z</time>
      </trkpt>
      <trkpt lat="41.617509716" lon="2.505827675">
        <ele>272.19</ele>
        <time>2014-08-17T11:07:00Z</time>
      </trkpt>
      <trkpt lat="41.617492869" lon="2.505894981">
        <ele>271.71</ele>
        <time>2014-08-17T11:07:01Z</time>
      </trkpt>
      <trkpt lat="41.617493371" lon="2.506119868">
        <ele>268.83</ele>
        <time>2014-08-17T11:07:05Z</time>
      </trkpt>
      <trkpt lat="41.617513404" lon="2.506243585">
        <ele>267.38</ele>
        <time>2014-08-17T11:07:07Z</time>
      </trkpt>
      <trkpt lat="41.617516589" lon="2.506443158">
        <ele>265.46</ele>
        <time>2014-08-17T11:07:10Z</time>
      </trkpt>
      <trkpt lat="41.617511560" lon="2.506645078">
        <ele>262.10</ele>
        <time>2014-08-17T11:07:13Z</time>
      </trkpt>
      <trkpt lat="41.617481972" lon="2.506880777">
        <ele>258.73</ele>
        <time>2014-08-17T11:07:17Z</time>
      </trkpt>
      <trkpt lat="41.617472417" lon="2.507079009">
        <ele>257.29</ele>
        <time>2014-08-17T11:07:20Z</time>
      </trkpt>
      <trkpt lat="41.617484319" lon="2.507318732">
        <ele>255.85</ele>
        <time>2014-08-17T11:07:25Z</time>
      </trkpt>
      <trkpt lat="41.617454815" lon="2.507542361">
        <ele>252.96</ele>
        <time>2014-08-17T11:07:30Z</time>
      </trkpt>
      <trkpt lat="41.617431010" lon="2.507671693">
        <ele>252.00</ele>
        <time>2014-08-17T11:07:32Z</time>
      </trkpt>
      <trkpt lat="41.617445930" lon="2.507952403">
        <ele>249.60</ele>
        <time>2014-08-17T11:07:36Z</time>
      </trkpt>
      <trkpt lat="41.617379713" lon="2.508236131">
        <ele>247.68</ele>
        <time>2014-08-17T11:07:40Z</time>
      </trkpt>
      <trkpt lat="41.617300336" lon="2.508448947">
        <ele>246.23</ele>
        <time>2014-08-17T11:07:43Z</time>
      </trkpt>
      <trkpt lat="41.617200843" lon="2.508719431">
        <ele>244.79</ele>
        <time>2014-08-17T11:07:46Z</time>
      </trkpt>
      <trkpt lat="41.617055166" lon="2.509173898">
        <ele>241.43</ele>
        <time>2014-08-17T11:07:51Z</time>
      </trkpt>
      <trkpt lat="41.616859029" lon="2.509659713">
        <ele>239.99</ele>
        <time>2014-08-17T11:07:57Z</time>
      </trkpt>
      <trkpt lat="41.616783843" lon="2.509991804">
        <ele>238.06</ele>
        <time>2014-08-17T11:08:01Z</time>
      </trkpt>
      <trkpt lat="41.616669179" lon="2.510495138">
        <ele>233.26</ele>
        <time>2014-08-17T11:08:07Z</time>
      </trkpt>
      <trkpt lat="41.616621318" lon="2.510565881">
        <ele>232.78</ele>
        <time>2014-08-17T11:08:08Z</time>
      </trkpt>
      <trkpt lat="41.616479077" lon="2.510785151">
        <ele>229.89</ele>
        <time>2014-08-17T11:08:11Z</time>
      </trkpt>
      <trkpt lat="41.616364916" lon="2.511177592">
        <ele>227.01</ele>
        <time>2014-08-17T11:08:16Z</time>
      </trkpt>
      <trkpt lat="41.616327868" lon="2.511435587">
        <ele>225.57</ele>
        <time>2014-08-17T11:08:21Z</time>
      </trkpt>
      <trkpt lat="41.616315798" lon="2.511468444">
        <ele>225.57</ele>
        <time>2014-08-17T11:08:27Z</time>
      </trkpt>
      <trkpt lat="41.616306326" lon="2.511503481">
        <ele>225.57</ele>
        <time>2014-08-17T11:08:45Z</time>
      </trkpt>
      <trkpt lat="41.616306326" lon="2.511506414">
        <ele>225.57</ele>
        <time>2014-08-17T11:09:02Z</time>
      </trkpt>
      <trkpt lat="41.616304482" lon="2.511519993">
        <ele>225.57</ele>
        <time>2014-08-17T11:09:15Z</time>
      </trkpt>
      <trkpt lat="41.616301968" lon="2.511534242">
        <ele>225.57</ele>
        <time>2014-08-17T11:09:32Z</time>
      </trkpt>
      <trkpt lat="41.616304650" lon="2.511563411">
        <ele>225.57</ele>
        <time>2014-08-17T11:09:42Z</time>
      </trkpt>
      <trkpt lat="41.616376315" lon="2.511723254">
        <ele>225.09</ele>
        <time>2014-08-17T11:09:49Z</time>
      </trkpt>
      <trkpt lat="41.616552168" lon="2.512081916">
        <ele>224.12</ele>
        <time>2014-08-17T11:09:57Z</time>
      </trkpt>
      <trkpt lat="41.616631125" lon="2.512248464">
        <ele>223.64</ele>
        <time>2014-08-17T11:10:00Z</time>
      </trkpt>
      <trkpt lat="41.616735647" lon="2.512622548">
        <ele>222.20</ele>
        <time>2014-08-17T11:10:06Z</time>
      </trkpt>
      <trkpt lat="41.616812007" lon="2.512940139">
        <ele>221.72</ele>
        <time>2014-08-17T11:10:12Z</time>
      </trkpt>
      <trkpt lat="41.616856431" lon="2.513469875">
        <ele>220.28</ele>
        <time>2014-08-17T11:10:20Z</time>
      </trkpt>
      <trkpt lat="41.616864813" lon="2.513932221">
        <ele>218.84</ele>
        <time>2014-08-17T11:10:27Z</time>
      </trkpt>
      <trkpt lat="41.616863639" lon="2.514598582">
        <ele>216.43</ele>
        <time>2014-08-17T11:10:36Z</time>
      </trkpt>
      <trkpt lat="41.616861963" lon="2.515093953">
        <ele>215.47</ele>
        <time>2014-08-17T11:10:42Z</time>
      </trkpt>
      <trkpt lat="41.616847043" lon="2.515453285">
        <ele>214.03</ele>
        <time>2014-08-17T11:10:46Z</time>
      </trkpt>
      <trkpt lat="41.616848300" lon="2.516108750">
        <ele>212.11</ele>
        <time>2014-08-17T11:10:53Z</time>
      </trkpt>
      <trkpt lat="41.616803289" lon="2.516758012">
        <ele>209.70</ele>
        <time>2014-08-17T11:11:00Z</time>
      </trkpt>
      <trkpt lat="41.616749310" lon="2.517430157">
        <ele>208.26</ele>
        <time>2014-08-17T11:11:07Z</time>
      </trkpt>
      <trkpt lat="41.616725254" lon="2.517789740">
        <ele>206.34</ele>
        <time>2014-08-17T11:11:11Z</time>
      </trkpt>
      <trkpt lat="41.616723410" lon="2.518051172">
        <ele>205.38</ele>
        <time>2014-08-17T11:11:14Z</time>
      </trkpt>
      <trkpt lat="41.616696085" lon="2.518339677">
        <ele>204.42</ele>
        <time>2014-08-17T11:11:18Z</time>
      </trkpt>
      <trkpt lat="41.616667167" lon="2.518491725">
        <ele>204.42</ele>
        <time>2014-08-17T11:11:20Z</time>
      </trkpt>
      <trkpt lat="41.616565998" lon="2.518799089">
        <ele>204.42</ele>
        <time>2014-08-17T11:11:26Z</time>
      </trkpt>
      <trkpt lat="41.616509504" lon="2.519110309">
        <ele>203.46</ele>
        <time>2014-08-17T11:11:31Z</time>
      </trkpt>
      <trkpt lat="41.616439599" lon="2.519515239">
        <ele>202.49</ele>
        <time>2014-08-17T11:11:37Z</time>
      </trkpt>
      <trkpt lat="41.616271709" lon="2.520068444">
        <ele>200.57</ele>
        <time>2014-08-17T11:11:44Z</time>
      </trkpt>
      <trkpt lat="41.616060653" lon="2.520707062">
        <ele>199.61</ele>
        <time>2014-08-17T11:11:51Z</time>
      </trkpt>
      <trkpt lat="41.616033328" lon="2.520795323">
        <ele>199.13</ele>
        <time>2014-08-17T11:11:52Z</time>
      </trkpt>
      <trkpt lat="41.615925453" lon="2.521493033">
        <ele>197.69</ele>
        <time>2014-08-17T11:11:59Z</time>
      </trkpt>
      <trkpt lat="41.615886225" lon="2.521774665">
        <ele>198.17</ele>
        <time>2014-08-17T11:12:02Z</time>
      </trkpt>
      <trkpt lat="41.615764269" lon="2.522496347">
        <ele>195.77</ele>
        <time>2014-08-17T11:12:09Z</time>
      </trkpt>
      <trkpt lat="41.615644324" lon="2.523269242">
        <ele>192.88</ele>
        <time>2014-08-17T11:12:16Z</time>
      </trkpt>
      <trkpt lat="41.615600402" lon="2.524058314">
        <ele>190.48</ele>
        <time>2014-08-17T11:12:23Z</time>
      </trkpt>
      <trkpt lat="41.615590763" lon="2.524168201">
        <ele>190.48</ele>
        <time>2014-08-17T11:12:24Z</time>
      </trkpt>
      <trkpt lat="41.615538293" lon="2.524769770">
        <ele>187.59</ele>
        <time>2014-08-17T11:12:29Z</time>
      </trkpt>
      <trkpt lat="41.615517505" lon="2.525018210">
        <ele>186.63</ele>
        <time>2014-08-17T11:12:31Z</time>
      </trkpt>
      <trkpt lat="41.615498478" lon="2.525487010">
        <ele>185.19</ele>
        <time>2014-08-17T11:12:35Z</time>
      </trkpt>
      <trkpt lat="41.615525301" lon="2.526057314">
        <ele>183.75</ele>
        <time>2014-08-17T11:12:40Z</time>
      </trkpt>
      <trkpt lat="41.615575257" lon="2.526594846">
        <ele>181.35</ele>
        <time>2014-08-17T11:12:45Z</time>
      </trkpt>
      <trkpt lat="41.615564360" lon="2.526954262">
        <ele>180.87</ele>
        <time>2014-08-17T11:12:48Z</time>
      </trkpt>
      <trkpt lat="41.615417593" lon="2.527784908">
        <ele>177.50</ele>
        <time>2014-08-17T11:12:55Z</time>
      </trkpt>
      <trkpt lat="41.615394543" lon="2.527907955">
        <ele>177.02</ele>
        <time>2014-08-17T11:12:56Z</time>
      </trkpt>
      <trkpt lat="41.615191114" lon="2.529035069">
        <ele>174.14</ele>
        <time>2014-08-17T11:13:06Z</time>
      </trkpt>
      <trkpt lat="41.615166807" lon="2.529977279">
        <ele>170.77</ele>
        <time>2014-08-17T11:13:15Z</time>
      </trkpt>
      <trkpt lat="41.615145517" lon="2.530634169">
        <ele>168.85</ele>
        <time>2014-08-17T11:13:21Z</time>
      </trkpt>
      <trkpt lat="41.615128753" lon="2.530855786">
        <ele>167.89</ele>
        <time>2014-08-17T11:13:23Z</time>
      </trkpt>
      <trkpt lat="41.615103942" lon="2.531189302">
        <ele>166.45</ele>
        <time>2014-08-17T11:13:26Z</time>
      </trkpt>
      <trkpt lat="41.615201508" lon="2.531719541">
        <ele>165.00</ele>
        <time>2014-08-17T11:13:31Z</time>
      </trkpt>
      <trkpt lat="41.615215505" lon="2.531961527">
        <ele>164.04</ele>
        <time>2014-08-17T11:13:33Z</time>
      </trkpt>
      <trkpt lat="41.615147193" lon="2.532329073">
        <ele>163.08</ele>
        <time>2014-08-17T11:13:36Z</time>
      </trkpt>
      <trkpt lat="41.614855419" lon="2.533287712">
        <ele>160.20</ele>
        <time>2014-08-17T11:13:45Z</time>
      </trkpt>
      <trkpt lat="41.614823065" lon="2.533403885">
        <ele>160.20</ele>
        <time>2014-08-17T11:13:46Z</time>
      </trkpt>
      <trkpt lat="41.614564902" lon="2.534287673">
        <ele>157.79</ele>
        <time>2014-08-17T11:13:54Z</time>
      </trkpt>
      <trkpt lat="41.614360216" lon="2.534956632">
        <ele>155.87</ele>
        <time>2014-08-17T11:14:00Z</time>
      </trkpt>
      <trkpt lat="41.614234990" lon="2.535299787">
        <ele>153.95</ele>
        <time>2014-08-17T11:14:03Z</time>
      </trkpt>
      <trkpt lat="41.613970206" lon="2.536019122">
        <ele>150.58</ele>
        <time>2014-08-17T11:14:10Z</time>
      </trkpt>
      <trkpt lat="41.613828217" lon="2.536360853">
        <ele>149.62</ele>
        <time>2014-08-17T11:14:15Z</time>
      </trkpt>
      <trkpt lat="41.613765269" lon="2.536484989">
        <ele>149.14</ele>
        <time>2014-08-17T11:14:19Z</time>
      </trkpt>
      <trkpt lat="41.613758479" lon="2.536501501">
        <ele>149.14</ele>
        <time>2014-08-17T11:14:26Z</time>
      </trkpt>
      <trkpt lat="41.613746325" lon="2.536516169">
        <ele>149.14</ele>
        <time>2014-08-17T11:14:40Z</time>
      </trkpt>
      <trkpt lat="41.613753282" lon="2.536520025">
        <ele>149.14</ele>
        <time>2014-08-17T11:14:49Z</time>
      </trkpt>
      <trkpt lat="41.613754288" lon="2.536506949">
        <ele>149.14</ele>
        <time>2014-08-17T11:15:01Z</time>
      </trkpt>
      <trkpt lat="41.613717156" lon="2.536587499">
        <ele>149.14</ele>
        <time>2014-08-17T11:15:08Z</time>
      </trkpt>
      <trkpt lat="41.613592182" lon="2.536822612">
        <ele>148.18</ele>
        <time>2014-08-17T11:15:14Z</time>
      </trkpt>
      <trkpt lat="41.613456312" lon="2.537033416">
        <ele>147.22</ele>
        <time>2014-08-17T11:15:21Z</time>
      </trkpt>
      <trkpt lat="41.613320357" lon="2.537216980">
        <ele>146.74</ele>
        <time>2014-08-17T11:15:26Z</time>
      </trkpt>
      <trkpt lat="41.613073175" lon="2.537512778">
        <ele>145.30</ele>
        <time>2014-08-17T11:15:34Z</time>
      </trkpt>
      <trkpt lat="41.612823646" lon="2.537788207">
        <ele>144.82</ele>
        <time>2014-08-17T11:15:42Z</time>
      </trkpt>
      <trkpt lat="41.612650224" lon="2.537989875">
        <ele>144.34</ele>
        <time>2014-08-17T11:15:48Z</time>
      </trkpt>
      <trkpt lat="41.612433971" lon="2.538237561">
        <ele>143.37</ele>
        <time>2014-08-17T11:15:55Z</time>
      </trkpt>
      <trkpt lat="41.612280079" lon="2.538514666">
        <ele>142.41</ele>
        <time>2014-08-17T11:16:01Z</time>
      </trkpt>
      <trkpt lat="41.612168516" lon="2.538695213">
        <ele>141.45</ele>
        <time>2014-08-17T11:16:07Z</time>
      </trkpt>
      <trkpt lat="41.612144795" lon="2.538716000">
        <ele>141.45</ele>
        <time>2014-08-17T11:16:12Z</time>
      </trkpt>
      <trkpt lat="41.612110010" lon="2.538775763">
        <ele>140.97</ele>
        <time>2014-08-17T11:16:24Z</time>
      </trkpt>
      <trkpt lat="41.612123589" lon="2.538811972">
        <ele>140.97</ele>
        <time>2014-08-17T11:16:41Z</time>
      </trkpt>
      <trkpt lat="41.612127528" lon="2.538789174">
        <ele>140.97</ele>
        <time>2014-08-17T11:16:55Z</time>
      </trkpt>
      <trkpt lat="41.612081847" lon="2.538853463">
        <ele>140.97</ele>
        <time>2014-08-17T11:17:18Z</time>
      </trkpt>
      <trkpt lat="41.612086876" lon="2.538827982">
        <ele>140.97</ele>
        <time>2014-08-17T11:17:33Z</time>
      </trkpt>
      <trkpt lat="41.612090983" lon="2.538846590">
        <ele>140.49</ele>
        <time>2014-08-17T11:17:39Z</time>
      </trkpt>
      <trkpt lat="41.612059970" lon="2.538927475">
        <ele>140.49</ele>
        <time>2014-08-17T11:17:44Z</time>
      </trkpt>
      <trkpt lat="41.611932314" lon="2.539076673">
        <ele>139.53</ele>
        <time>2014-08-17T11:17:52Z</time>
      </trkpt>
      <trkpt lat="41.611918735" lon="2.539086312">
        <ele>139.53</ele>
        <time>2014-08-17T11:17:53Z</time>
      </trkpt>
      <trkpt lat="41.611874311" lon="2.539016239">
        <ele>140.01</ele>
        <time>2014-08-17T11:17:57Z</time>
      </trkpt>
      <trkpt lat="41.611812034" lon="2.538754054">
        <ele>140.97</ele>
        <time>2014-08-17T11:18:06Z</time>
      </trkpt>
      <trkpt lat="41.611653448" lon="2.538754221">
        <ele>142.41</ele>
        <time>2014-08-17T11:18:12Z</time>
      </trkpt>
      <trkpt lat="41.611535682" lon="2.538734105">
        <ele>142.41</ele>
        <time>2014-08-17T11:18:15Z</time>
      </trkpt>
      <trkpt lat="41.611337199" lon="2.538762435">
        <ele>140.97</ele>
        <time>2014-08-17T11:18:19Z</time>
      </trkpt>
      <trkpt lat="41.611232844" lon="2.538776601">
        <ele>140.01</ele>
        <time>2014-08-17T11:18:21Z</time>
      </trkpt>
      <trkpt lat="41.610853312" lon="2.538914735">
        <ele>138.09</ele>
        <time>2014-08-17T11:18:28Z</time>
      </trkpt>
      <trkpt lat="41.610671257" lon="2.539045325">
        <ele>137.61</ele>
        <time>2014-08-17T11:18:31Z</time>
      </trkpt>
      <trkpt lat="41.610188794" lon="2.539321425">
        <ele>135.20</ele>
        <time>2014-08-17T11:18:39Z</time>
      </trkpt>
      <trkpt lat="41.609845891" lon="2.539515298">
        <ele>133.28</ele>
        <time>2014-08-17T11:18:45Z</time>
      </trkpt>
      <trkpt lat="41.609637600" lon="2.539641194">
        <ele>132.32</ele>
        <time>2014-08-17T11:18:51Z</time>
      </trkpt>
      <trkpt lat="41.609358567" lon="2.539790057">
        <ele>131.36</ele>
        <time>2014-08-17T11:18:59Z</time>
      </trkpt>
      <trkpt lat="41.609172824" lon="2.540044112">
        <ele>129.92</ele>
        <time>2014-08-17T11:19:05Z</time>
      </trkpt>
      <trkpt lat="41.609167040" lon="2.540072695">
        <ele>129.43</ele>
        <time>2014-08-17T11:19:06Z</time>
      </trkpt>
      <trkpt lat="41.609133345" lon="2.540176546">
        <ele>129.43</ele>
        <time>2014-08-17T11:19:11Z</time>
      </trkpt>
      <trkpt lat="41.608988422" lon="2.540342843">
        <ele>128.47</ele>
        <time>2014-08-17T11:19:18Z</time>
      </trkpt>
      <trkpt lat="41.608897311" lon="2.540461950">
        <ele>128.47</ele>
        <time>2014-08-17T11:19:25Z</time>
      </trkpt>
      <trkpt lat="41.608895634" lon="2.540473852">
        <ele>128.47</ele>
        <time>2014-08-17T11:19:40Z</time>
      </trkpt>
      <trkpt lat="41.608878787" lon="2.540484330">
        <ele>128.47</ele>
        <time>2014-08-17T11:19:52Z</time>
      </trkpt>
      <trkpt lat="41.608871243" lon="2.540489610">
        <ele>128.47</ele>
        <time>2014-08-17T11:20:01Z</time>
      </trkpt>
      <trkpt lat="41.608859844" lon="2.540524982">
        <ele>128.47</ele>
        <time>2014-08-17T11:20:21Z</time>
      </trkpt>
      <trkpt lat="41.608863448" lon="2.540529257">
        <ele>128.47</ele>
        <time>2014-08-17T11:20:33Z</time>
      </trkpt>
      <trkpt lat="41.608862023" lon="2.540527245">
        <ele>128.47</ele>
        <time>2014-08-17T11:20:46Z</time>
      </trkpt>
      <trkpt lat="41.608866130" lon="2.540515594">
        <ele>127.99</ele>
        <time>2014-08-17T11:21:03Z</time>
      </trkpt>
      <trkpt lat="41.608854647" lon="2.540512409">
        <ele>127.99</ele>
        <time>2014-08-17T11:21:20Z</time>
      </trkpt>
      <trkpt lat="41.608845008" lon="2.540515259">
        <ele>127.99</ele>
        <time>2014-08-17T11:21:22Z</time>
      </trkpt>
      <trkpt lat="41.608794129" lon="2.540371342">
        <ele>127.51</ele>
        <time>2014-08-17T11:21:28Z</time>
      </trkpt>
      <trkpt lat="41.608689775" lon="2.540340580">
        <ele>126.55</ele>
        <time>2014-08-17T11:21:32Z</time>
      </trkpt>
      <trkpt lat="41.608579888" lon="2.540366648">
        <ele>126.55</ele>
        <time>2014-08-17T11:21:35Z</time>
      </trkpt>
      <trkpt lat="41.608278894" lon="2.540445773">
        <ele>125.59</ele>
        <time>2014-08-17T11:21:43Z</time>
      </trkpt>
      <trkpt lat="41.607943953" lon="2.540486425">
        <ele>125.59</ele>
        <time>2014-08-17T11:21:51Z</time>
      </trkpt>
      <trkpt lat="41.607681432" lon="2.540506207">
        <ele>124.63</ele>
        <time>2014-08-17T11:21:58Z</time>
      </trkpt>
      <trkpt lat="41.607649245" lon="2.540507799">
        <ele>124.63</ele>
        <time>2014-08-17T11:21:59Z</time>
      </trkpt>
      <trkpt lat="41.607591494" lon="2.540486090">
        <ele>124.63</ele>
        <time>2014-08-17T11:22:01Z</time>
      </trkpt>
      <trkpt lat="41.607158317" lon="2.540382657">
        <ele>122.71</ele>
        <time>2014-08-17T11:22:09Z</time>
      </trkpt>
      <trkpt lat="41.606700162" lon="2.540278722">
        <ele>120.78</ele>
        <time>2014-08-17T11:22:17Z</time>
      </trkpt>
      <trkpt lat="41.606283749" lon="2.540209068">
        <ele>120.30</ele>
        <time>2014-08-17T11:22:25Z</time>
      </trkpt>
      <trkpt lat="41.606124577" lon="2.540185850">
        <ele>119.34</ele>
        <time>2014-08-17T11:22:30Z</time>
      </trkpt>
      <trkpt lat="41.606054253" lon="2.540210074">
        <ele>118.86</ele>
        <time>2014-08-17T11:22:36Z</time>
      </trkpt>
      <trkpt lat="41.606063054" lon="2.540199680">
        <ele>118.86</ele>
        <time>2014-08-17T11:22:49Z</time>
      </trkpt>
      <trkpt lat="41.606061210" lon="2.540212840">
        <ele>118.86</ele>
        <time>2014-08-17T11:23:03Z</time>
      </trkpt>
      <trkpt lat="41.606061713" lon="2.540218791">
        <ele>118.86</ele>
        <time>2014-08-17T11:23:12Z</time>
      </trkpt>
      <trkpt lat="41.606055929" lon="2.540236225">
        <ele>118.86</ele>
        <time>2014-08-17T11:23:24Z</time>
      </trkpt>
      <trkpt lat="41.606039333" lon="2.540261120">
        <ele>118.86</ele>
        <time>2014-08-17T11:23:33Z</time>
      </trkpt>
      <trkpt lat="41.605977810" lon="2.540369498">
        <ele>118.86</ele>
        <time>2014-08-17T11:23:40Z</time>
      </trkpt>
      <trkpt lat="41.605925675" lon="2.540378718">
        <ele>119.82</ele>
        <time>2014-08-17T11:23:43Z</time>
      </trkpt>
      <trkpt lat="41.605937325" lon="2.540448874">
        <ele>119.82</ele>
        <time>2014-08-17T11:23:49Z</time>
      </trkpt>
      <trkpt lat="41.606034975" lon="2.540584493">
        <ele>120.30</ele>
        <time>2014-08-17T11:23:56Z</time>
      </trkpt>
      <trkpt lat="41.606239325" lon="2.540653560">
        <ele>120.78</ele>
        <time>2014-08-17T11:24:04Z</time>
      </trkpt>
      <trkpt lat="41.606446610" lon="2.540713575">
        <ele>121.74</ele>
        <time>2014-08-17T11:24:12Z</time>
      </trkpt>
      <trkpt lat="41.606577116" lon="2.540892277">
        <ele>122.22</ele>
        <time>2014-08-17T11:24:19Z</time>
      </trkpt>
      <trkpt lat="41.606641908" lon="2.541171897">
        <ele>123.19</ele>
        <time>2014-08-17T11:24:28Z</time>
      </trkpt>
      <trkpt lat="41.606691361" lon="2.541383624">
        <ele>124.63</ele>
        <time>2014-08-17T11:24:35Z</time>
      </trkpt>
      <trkpt lat="41.606733690" lon="2.541590909">
        <ele>125.59</ele>
        <time>2014-08-17T11:24:42Z</time>
      </trkpt>
      <trkpt lat="41.606790435" lon="2.541767851">
        <ele>126.55</ele>
        <time>2014-08-17T11:24:48Z</time>
      </trkpt>
      <trkpt lat="41.606866962" lon="2.542030288">
        <ele>128.47</ele>
        <time>2014-08-17T11:24:57Z</time>
      </trkpt>
      <trkpt lat="41.606972323" lon="2.542240339">
        <ele>129.43</ele>
        <time>2014-08-17T11:25:05Z</time>
      </trkpt>
      <trkpt lat="41.607028314" lon="2.542360451">
        <ele>131.36</ele>
        <time>2014-08-17T11:25:12Z</time>
      </trkpt>
      <trkpt lat="41.607061003" lon="2.542374868">
        <ele>131.36</ele>
        <time>2014-08-17T11:25:20Z</time>
      </trkpt>
      <trkpt lat="41.607073744" lon="2.542380568">
        <ele>131.36</ele>
        <time>2014-08-17T11:25:30Z</time>
      </trkpt>
    </trkseg>
  </trk>
</gpx>
